[[[{"header":{"parameterUnit":"kt","parameterCategory":2,"dx":1,"dy":1,"la1":29.285339999999998,"la2":30.599998999999997,"lo1":-89.70041500000002,"lo2":-87.6738589999976,"nx":112,"ny":82,"refTime":"2022-10-30T06:00:00:Z","depth":0,"parameterNumber":1,"parameterNumberName":"U-component_of_WINDS"},"data":[3.3532,3.2703,3.1356,2.532,2.392,2.164,1.272,1.2006,1.4064,1.689,1.5819,1.4836,1.6379,1.3944,1.2146,1.3602,1.1243,0.9228,0.0,0.8921,0.0,0.0,0.0,0.0,0.0,0.0,2.1797,3.0259,3.107,3.5141,4.4238,4.7165,5.0268,5.4049,5.5619,5.6404,5.6457,5.5965,5.4349,5.1612,5.1093,4.945,4.6875,4.8128,4.8712,4.8966,5.1826,5.3118,5.3306,5.4987,5.5609,5.5463,5.5384,5.542,5.5764,5.7209,5.7735,5.7735,5.7917,5.7975,5.8033,5.7996,5.8107,5.8204,5.8073,5.8091,5.8165,5.8341,5.8378,5.8378,5.8489,5.8563,5.8638,5.8638,5.8675,5.8712,5.8712,5.8712,5.8712,5.8712,5.8712,5.8712,5.8712,5.8712,5.8712,5.8823,5.8823,5.8888,5.8962,5.8962,5.8999,5.9036,5.9179,5.9284,5.9341,5.9431,5.9506,5.9582,5.9582,5.9619,5.9657,5.9657,5.9657,5.9657,5.9657,5.9657,5.9657,5.9657,5.9657,5.9657,5.9657,5.972,2.7884,2.7195,2.6825,2.1794,2.137,1.9837,1.0983,1.0452,1.2326,1.4109,1.3585,1.2907,1.3387,1.2169,1.1384,1.2216,1.0513,0.9088,0.0,0.0,0.0,0.0,0.0,0.0,0.0,0.0,2.525,3.1935,3.1721,3.5683,4.5772,4.8272,5.1173,5.4935,5.6001,5.6581,5.6632,5.6668,5.5384,5.2761,5.227,5.0692,4.8245,4.8423,4.8562,4.8705,5.1078,5.246,5.3186,5.4834,5.5885,5.6438,5.6341,5.6332,5.643,5.7365,5.7735,5.7771,5.8086,5.8218,5.8341,5.8341,5.8452,5.8563,5.8563,5.8638,5.8712,5.8712,5.8712,5.8712,5.8712,5.8712,5.8712,5.8712,5.8712,5.8712,5.8712,5.8712,5.8712,5.8712,5.8712,5.8712,5.8712,5.8786,5.8888,5.8962,5.897,5.9,5.9097,5.9097,5.9134,5.9209,5.9397,5.9506,5.9544,5.9619,5.9657,5.9657,5.9657,5.9657,5.9657,5.9657,5.9657,5.9657,5.9695,5.9733,5.9733,5.9733,5.9733,5.9746,5.972,5.9781,2.0862,2.0354,2.0733,1.7197,1.489,1.3053,1.1286,1.1625,1.2325,1.2325,1.2785,1.3278,1.3414,1.2712,1.172,1.0529,1.0522,0.0,0.0,0.9054,0.0,0.0,0.0,2.0514,2.5017,2.2912,2.5172,3.458,3.1116,3.4657,4.8629,4.9599,5.1821,5.6402,5.6675,5.676,5.676,5.688,5.6094,5.4438,5.2968,5.1562,5.0111,4.8408,4.7715,4.7889,4.9486,5.112,5.2755,5.4093,5.5837,5.7735,5.7735,5.7735,5.7735,5.7734,5.7771,5.7841,5.8478,5.8712,5.8712,5.8712,5.8712,5.8712,5.8712,5.8712,5.8712,5.8712,5.8712,5.8712,5.8712,5.8712,5.8712,5.8712,5.8712,5.8712,5.8712,5.8712,5.8712,5.8712,5.8712,5.8712,5.8712,5.8888,5.91,5.91,5.9102,5.9128,5.9128,5.9128,5.9204,5.9468,5.9506,5.9544,5.9657,5.9657,5.9657,5.9657,5.9657,5.9657,5.9657,5.9657,5.9671,5.9671,5.9822,5.9873,5.9873,5.9873,5.9873,5.9873,5.9851,5.9873,1.9132,2.0094,2.0466,1.7032,1.6066,1.5026,1.1552,1.0092,0.946,0.9358,0.9399,0.0,0.0,0.0,0.967,1.0818,0.0,1.3201,1.123,1.7096,2.1355,2.0721,2.3213,2.7227,3.2975,3.2082,3.404,4.1221,3.8584,4.0385,4.9063,5.1714,5.4159,5.6766,5.6796,5.6802,5.688,5.6958,5.6094,5.4438,5.3079,5.1633,5.0111,4.8477,4.778,4.7889,4.9486,5.1117,5.2749,5.3879,5.5696,5.7735,5.7735,5.7735,5.777,5.8267,5.8419,5.8448,5.8657,5.8712,5.8712,5.8712,5.8712,5.8712,5.8712,5.8712,5.8712,5.8712,5.8712,5.8712,5.8712,5.8712,5.8712,5.8712,5.8712,5.8712,5.8712,5.8712,5.8712,5.8712,5.8786,5.8823,5.8823,5.8976,5.9154,5.9342,5.9397,5.9431,5.9619,5.9657,5.9657,5.9733,5.977,5.977,5.9822,5.9822,5.9822,5.9822,5.9822,5.9822,5.9822,5.9822,5.9833,5.9821,5.9859,5.9859,5.9859,5.9859,5.9859,5.9859,5.9858,5.9873,1.8606,1.8815,1.8647,1.5511,1.5388,1.4899,1.0675,0.9677,0.9388,0.8448,0.0,0.0,0.0,0.0,0.0,0.0,1.408,1.655,1.4723,2.1725,2.6563,2.5381,2.9461,3.3607,3.675,3.7079,3.9466,4.5094,4.2599,4.3632,5.0097,5.2935,5.5097,5.6844,5.7014,5.7054,5.704,5.713,5.6624,5.5526,5.3405,5.1959,5.1051,4.8833,4.7879,4.7947,4.8856,5.0199,5.183,5.2416,5.4127,5.6383,5.6581,5.7197,5.8042,5.8535,5.8712,5.8712,5.8712,5.8712,5.8712,5.8712,5.8712,5.8712,5.8712,5.8712,5.8712,5.8712,5.8712,5.8712,5.8712,5.8712,5.8712,5.8712,5.8712,5.8712,5.8786,5.8786,5.8786,5.8888,5.8962,5.9031,5.9119,5.9284,5.9468,5.9619,5.9644,5.9697,5.9859,5.9859,5.9859,5.9859,5.9859,5.9859,5.9859,5.9859,5.9859,5.9859,5.9859,5.9859,5.9859,5.9859,5.9866,5.9869,5.9873,5.9873,5.9873,5.9873,5.986,5.987,5.987,5.987,1.8445,1.6934,1.6099,1.3686,1.3794,1.3638,1.015,0.0,1.165,1.0885,0.0,0.9968,0.9775,0.0,0.0,1.0473,1.6463,2.0681,1.9175,2.5244,2.9297,2.7689,3.4955,3.9633,3.8428,3.9842,4.2581,4.6947,4.484,4.5773,5.149,5.3621,5.5359,5.6724,5.7254,5.7404,5.7206,5.7443,5.7443,5.717,5.3951,5.243,5.2427,4.9301,4.7905,4.8027,4.8027,4.8976,5.054,5.0572,5.2143,5.4588,5.4906,5.6266,5.807,5.8563,5.8729,5.8712,5.8712,5.8712,5.8712,5.8749,5.8712,5.8712,5.8712,5.8712,5.8712,5.8712,5.8712,5.8712,5.8712,5.8712,5.8712,5.8749,5.8749,5.8786,5.8925,5.8941,5.8982,5.9094,5.9131,5.9224,5.9492,5.971,5.9861,5.9861,5.9874,5.9873,5.9873,5.9873,5.9873,5.9873,5.9873,5.9873,5.9873,5.9873,5.9873,5.9873,5.9873,5.9873,5.9873,5.9873,5.9873,5.9873,5.9873,5.9873,5.9873,5.9873,5.9872,5.983,5.983,5.983,1.5948,1.5242,1.5097,1.4644,1.379,1.3458,0.0,0.0,0.0,2.3655,2.3769,2.1673,1.8773,1.6954,1.73,2.1613,2.5774,2.7527,2.4738,3.4824,4.1877,4.0117,4.3054,4.4697,4.3312,4.4631,4.6094,4.744,4.918,5.0766,5.2138,5.4793,5.6515,5.688,5.7126,5.7326,5.748,5.7588,5.7696,5.7588,5.4434,5.2833,5.2533,4.9393,4.7997,4.8027,4.8027,4.8976,5.054,5.0673,5.2538,5.526,5.4439,5.4998,5.6509,5.8349,5.8883,5.8712,5.8712,5.8712,5.8749,5.8962,5.8888,5.8712,5.8712,5.8712,5.8712,5.8712,5.8712,5.8712,5.8712,5.8786,5.8888,5.8999,5.9036,5.9073,5.9185,5.9222,5.9221,5.9259,5.9334,5.9478,5.9738,5.9841,5.9879,5.9879,5.9858,5.9873,5.9873,5.9873,5.9873,5.9873,5.9873,5.9873,5.9873,5.9873,5.9873,5.9873,5.9873,5.9873,5.9873,5.9873,5.9873,5.9873,5.9873,5.9873,5.9873,5.9873,5.9796,5.9717,5.9717,5.9717,1.4314,1.4478,1.4473,1.3316,1.3035,0.0,0.0,1.3343,1.4963,2.2531,2.5214,2.5508,2.3494,2.217,2.235,2.5287,3.0526,3.4137,3.3905,4.0276,4.4656,4.3735,4.4947,4.588,4.5984,4.7039,4.7734,4.7832,5.0712,5.2892,5.3799,5.6096,5.733,5.7251,5.7553,5.7696,5.7658,5.7895,5.7993,5.7988,5.48,5.3214,5.3032,4.9851,4.8394,4.842,4.827,4.8757,4.9584,4.9483,5.1297,5.3994,5.3456,5.4986,5.7611,5.8913,5.9175,5.8893,5.9131,5.906,5.891,5.906,5.9066,5.8999,5.8999,5.8999,5.8999,5.8925,5.8925,5.8925,5.8925,5.8999,5.9105,5.9184,5.9176,5.9226,5.9382,5.9388,5.9423,5.9574,5.965,5.9714,5.9864,5.9873,5.9873,5.9873,5.9873,5.9873,5.9873,5.9873,5.9873,5.9873,5.9873,5.9873,5.9873,5.9873,5.9873,5.9873,5.9873,5.9873,5.9873,5.9873,5.9873,5.9873,5.9872,5.9863,5.9863,5.9825,5.9717,5.9679,5.9672,5.9695,1.2994,1.3694,1.3691,1.1935,1.2204,0.0,1.33,1.3349,1.481,2.0027,2.5409,2.9092,2.8883,2.8443,2.8276,2.888,3.4512,3.9666,4.2089,4.3538,4.4345,4.4353,4.5058,4.6037,4.74,4.8167,4.8589,4.8655,5.1099,5.3407,5.5386,5.7041,5.7825,5.7623,5.8062,5.8187,5.7988,5.8263,5.8444,5.8434,5.5147,5.3636,5.3575,5.0328,4.8826,4.8811,4.8596,4.8584,4.8657,4.8483,4.9799,5.1974,5.2559,5.5396,5.9271,5.9562,5.9463,5.9233,5.9562,5.9431,5.9091,5.9166,5.9232,5.9299,5.9299,5.9299,5.9276,5.9144,5.9119,5.9119,5.9119,5.9231,5.9344,5.9379,5.9373,5.943,5.9553,5.9571,5.9608,5.9835,5.9873,5.9873,5.9873,5.9873,5.9873,5.9873,5.9873,5.9873,5.9873,5.9873,5.9873,5.9873,5.9873,5.9873,5.9873,5.9873,5.9873,5.9873,5.9873,5.9873,5.9873,5.9858,5.9865,5.9865,5.9858,5.983,5.983,5.9715,5.9655,5.9655,5.9652,5.9627,1.1626,1.1959,1.201,1.2797,1.2068,0.0,2.1033,2.2788,2.3834,2.7587,3.4326,3.9681,4.0093,3.8299,3.7413,3.9644,4.1168,4.2688,4.4442,4.54,4.5872,4.6008,4.6591,4.7233,4.79,4.8232,4.9131,5.0841,5.1262,5.2756,5.5617,5.7123,5.7909,5.7914,5.8174,5.8481,5.8772,5.8832,5.8902,5.8985,5.5701,5.4048,5.3718,5.0439,4.8949,4.8949,4.8928,4.8928,4.8949,4.9035,4.9468,5.0258,5.2265,5.573,5.9629,5.9657,5.9643,5.9629,5.9657,5.9431,5.9128,5.9355,5.9363,5.929,5.929,5.929,5.9297,5.928,5.9283,5.9283,5.9283,5.9359,5.9482,5.9593,5.9712,5.9831,5.982,5.9826,5.9835,5.9873,5.9873,5.9873,5.9873,5.9873,5.9873,5.9873,5.9873,5.9873,5.9873,5.9873,5.9873,5.9873,5.9873,5.9873,5.9873,5.9873,5.9873,5.9873,5.9873,5.9873,5.9873,5.9851,5.9882,5.9882,5.9735,5.9679,5.9679,5.969,5.9623,5.9493,5.9495,5.9515,0.9192,1.0299,1.0305,1.0632,0.0,0.0,1.9854,2.3497,2.8157,3.5423,4.0809,4.3895,4.3072,4.2589,4.2539,4.327,4.387,4.457,4.5549,4.5878,4.6213,4.6651,4.7097,4.7554,4.7967,4.8316,4.9298,5.1197,5.2377,5.4009,5.621,5.7864,5.8647,5.8495,5.8584,5.8771,5.9029,5.9013,5.9097,5.9271,5.7009,5.5375,5.42,5.185,5.0288,4.9454,4.9201,4.9183,4.9339,4.9464,4.9674,4.996,5.0801,5.2295,5.4462,5.8273,5.9657,5.9657,5.9657,5.9568,5.9441,5.9676,5.9676,5.9608,5.9608,5.9608,5.9619,5.9621,5.9617,5.9638,5.9638,5.9676,5.973,5.9788,5.9835,5.9873,5.9873,5.9873,5.9873,5.9873,5.9873,5.9873,5.9873,5.9873,5.9873,5.9873,5.9873,5.9873,5.9873,5.9873,5.9873,5.9873,5.9873,5.9873,5.9873,5.9873,5.9873,5.9873,5.9871,5.9889,5.9889,5.9783,5.9755,5.9755,5.9679,5.9655,5.969,5.9585,5.9552,5.9477,5.9477,5.9477,0.7493,0.0,0.0,0.0,0.0,0.0,2.1412,2.7024,3.3588,4.1649,4.4697,4.5495,4.4384,4.4762,4.5177,4.4796,4.5223,4.5731,4.6213,4.6335,4.6577,4.7169,4.745,4.7715,4.8195,4.8873,5.0076,5.1974,5.3856,5.5663,5.7354,5.863,5.921,5.9056,5.9097,5.9157,5.9252,5.9232,5.9339,5.9525,5.7931,5.6308,5.4559,5.2924,5.1298,4.9733,4.9464,4.9464,4.9674,4.9791,4.9879,4.9952,4.9876,4.9862,5.0531,5.523,5.8169,5.9731,5.9731,5.9752,5.9759,5.9835,5.9873,5.9873,5.9873,5.9873,5.9853,5.9849,5.9874,5.9873,5.9873,5.9873,5.9873,5.9873,5.9873,5.9873,5.9873,5.9873,5.9873,5.9873,5.9873,5.9873,5.9873,5.9873,5.9873,5.9873,5.9873,5.9873,5.9873,5.9873,5.9873,5.9873,5.9863,5.9871,5.9871,5.9871,5.9833,5.9795,5.9815,5.9792,5.9792,5.9717,5.9687,5.967,5.9632,5.9606,5.9627,5.9515,5.9477,5.9477,5.9477,5.9477,0.0,0.0,0.0,1.2524,1.1142,1.3282,2.9503,3.7217,4.1953,4.5404,4.5495,4.5083,4.5499,4.5442,4.527,4.527,4.5509,4.5948,4.6719,4.695,4.7204,4.7739,4.7801,4.8065,4.8691,5.0147,5.1899,5.3996,5.574,5.7429,5.912,5.927,5.9365,5.9472,5.9585,5.9657,5.9659,5.9644,5.9666,5.967,5.8082,5.6396,5.4547,5.2983,5.1351,4.9782,4.9735,4.9825,4.9932,4.997,4.9964,4.9958,4.9958,4.997,4.997,5.0156,5.4329,5.9869,5.9869,5.9869,5.9873,5.9873,5.9873,5.9873,5.9873,5.9873,5.9873,5.9869,5.9869,5.9873,5.9873,5.9873,5.9873,5.9873,5.9873,5.9873,5.9873,5.9873,5.9873,5.9873,5.9873,5.9873,5.9873,5.9873,5.9873,5.9873,5.9873,5.9873,5.9873,5.9873,5.9873,5.9873,5.9889,5.9886,5.9886,5.9886,5.9811,5.9697,5.9688,5.9679,5.9679,5.9679,5.9696,5.9701,5.957,5.9495,5.9477,5.9477,5.9477,5.9477,5.9477,5.9477,0.7773,0.9326,0.9337,1.0103,1.9374,3.0182,3.7633,4.0654,4.2249,4.3562,4.5189,4.6243,4.5991,4.5475,4.5247,4.5599,4.5731,4.6166,4.7098,4.7133,4.7343,4.8094,4.815,4.8298,4.8892,5.0477,5.2348,5.4347,5.6052,5.7757,5.9441,5.9517,5.9501,5.9468,5.9629,5.9696,5.9792,5.983,5.9811,5.978,5.9271,5.753,5.4748,5.4199,5.2484,4.9863,4.9795,4.9832,4.9958,4.9943,4.9943,4.9958,4.9966,4.997,4.997,4.997,5.1374,5.3271,5.3271,5.6193,5.9873,5.9873,5.9873,5.9873,5.9873,5.9873,5.9873,5.9873,5.9873,5.9873,5.9873,5.9873,5.9873,5.9873,5.9873,5.9873,5.9873,5.9873,5.9873,5.9873,5.9873,5.9873,5.9873,5.9873,5.9873,5.9873,5.9873,5.9873,5.9873,5.9871,5.9873,5.9873,5.9889,5.983,5.9755,5.9717,5.9717,5.9679,5.9684,5.9698,5.9698,5.9608,5.9522,5.9552,5.9515,5.9477,5.9477,5.9477,5.9402,5.9252,5.9252,5.9176,0.8746,1.4578,1.9882,2.1737,3.1687,4.1589,4.3659,4.3882,4.374,4.4128,4.5594,4.6719,4.6118,4.5618,4.5485,4.5956,4.5956,4.6295,4.7341,4.7409,4.7702,4.852,4.8557,4.8928,5.0083,5.1653,5.3434,5.539,5.705,5.8476,5.9612,5.9688,5.9631,5.9574,5.9659,5.9745,5.9869,5.9903,5.9904,5.9868,5.9813,5.8039,5.4834,5.4803,5.3039,4.9974,4.9829,4.9837,4.9957,4.9951,4.9943,4.997,4.997,4.997,5.0046,5.0843,5.0653,5.0312,5.274,5.6345,5.9873,5.9873,5.9873,5.9873,5.9873,5.9873,5.9873,5.9873,5.9873,5.9873,5.9873,5.9873,5.9873,5.9873,5.9873,5.9873,5.9873,5.9873,5.9873,5.9873,5.9873,5.9873,5.9873,5.9873,5.9889,5.9872,5.9872,5.9872,5.9872,5.9853,5.9868,5.9868,5.983,5.9755,5.9679,5.9682,5.9672,5.9634,5.9598,5.959,5.959,5.9515,5.9477,5.9477,5.9477,5.9477,5.9477,5.9402,5.9252,5.9083,5.9051,5.8977,1.0402,2.3975,3.9327,4.4932,4.6376,4.6573,4.7382,4.6877,4.6376,4.6946,4.6834,4.6486,4.5991,4.5793,4.5809,4.6172,4.6131,4.6385,4.744,4.7821,4.8224,4.8916,4.9094,4.9939,5.2049,5.3523,5.5143,5.694,5.8561,5.9528,5.9643,5.9643,5.9643,5.9644,5.9644,5.972,5.9834,5.9974,5.9982,5.9866,5.9744,5.8041,5.4965,5.486,5.307,5.0075,4.9848,4.9844,4.9948,4.9948,4.9925,4.9936,4.9936,4.9974,5.0202,5.2292,5.1837,5.1036,5.7483,5.9797,5.9873,5.9873,5.9873,5.9873,5.9873,5.9873,5.9873,5.9873,5.9873,5.9873,5.9873,5.9873,5.9873,5.9873,5.9873,5.9873,5.9873,5.9873,5.9873,5.9873,5.9873,5.9873,5.9882,5.9882,5.9871,5.9874,5.9868,5.9868,5.9868,5.9868,5.9868,5.9868,5.9755,5.9679,5.9669,5.9661,5.9627,5.9477,5.9477,5.9477,5.9477,5.9477,5.9477,5.9477,5.9477,5.9477,5.944,5.9214,5.9083,5.9064,5.8917,5.8899,1.7591,3.1434,4.459,4.7015,4.7578,4.7411,4.6766,4.6416,4.6371,4.6683,4.6644,4.6451,4.633,4.6131,4.5971,4.5956,4.5731,4.5932,4.7129,4.7369,4.7875,4.8987,5.0326,5.1256,5.153,5.431,5.616,5.6256,5.8268,5.9419,5.9245,5.9408,5.9548,5.9557,5.9544,5.9536,5.9578,5.9695,5.982,5.9855,5.9726,5.8637,5.6679,5.5286,5.3583,5.1616,5.0309,4.9794,4.9801,4.9819,4.9837,4.9809,4.9809,4.9885,5.0037,5.0602,5.148,5.2655,5.4376,5.7175,6.0025,6.0025,5.9949,5.9873,5.9873,5.9873,5.9873,5.9873,5.9873,5.9873,5.9873,5.9873,5.9873,5.9873,5.9873,5.9873,5.9873,5.9873,5.9873,5.9873,5.9873,5.986,5.9873,5.9853,5.9872,5.9886,5.9868,5.9868,5.9868,5.9868,5.983,5.9717,5.9679,5.9655,5.9554,5.9531,5.9515,5.9477,5.9477,5.9477,5.9477,5.9477,5.9477,5.9477,5.9289,5.9139,5.9064,5.897,5.8842,5.8675,5.8624,5.8499,2.017,3.4445,4.7133,4.7838,4.8027,4.7807,4.7061,4.6335,4.5956,4.6411,4.6451,4.6491,4.653,4.6411,4.573,4.4159,4.3775,4.4013,4.4943,4.5237,4.6255,4.8628,5.0547,5.1818,5.2285,5.4727,5.65,5.7033,5.804,5.865,5.8743,5.8774,5.8921,5.9205,5.9218,5.9294,5.9466,5.9571,5.9646,5.9802,5.9726,5.8805,5.7218,5.5408,5.4471,5.4134,5.2533,5.14,5.078,5.0794,5.0371,4.9748,4.9748,4.9786,4.9938,5.0728,5.1749,5.2995,5.4213,5.6453,5.8919,5.9719,5.9872,5.9794,5.984,5.9858,5.9882,5.9933,5.9911,5.9873,5.9873,5.9873,5.9873,5.9873,5.9873,5.9889,5.9871,5.9868,5.9868,5.9868,5.9868,5.9855,5.9857,5.9868,5.9868,5.9868,5.9868,5.9868,5.9868,5.9792,5.9755,5.9679,5.9632,5.9577,5.9495,5.9477,5.9477,5.9477,5.9477,5.9477,5.9477,5.9477,5.944,5.9327,5.9119,5.8995,5.892,5.8808,5.8628,5.8499,5.8388,5.8278,2.1468,3.5049,4.6727,4.7718,4.7967,4.7874,4.769,4.653,4.5653,4.6048,4.6254,4.6411,4.6605,4.6089,4.4702,4.1738,4.0953,4.0922,4.1672,4.2203,4.3944,4.7808,5.0048,5.1879,5.3464,5.4925,5.6434,5.8093,5.7756,5.7651,5.8107,5.7975,5.8119,5.8733,5.8757,5.8947,5.9288,5.9364,5.9455,5.953,5.9619,5.8878,5.7396,5.5704,5.5467,5.6342,5.4764,5.3186,5.1728,5.1721,5.0947,4.9715,4.9725,4.9725,4.9914,5.1361,5.2083,5.2603,5.5008,5.6413,5.7388,5.8986,5.9578,5.9706,5.9802,5.9853,5.9872,5.9979,5.993,5.9873,5.9873,5.9886,5.9855,5.9878,5.9848,5.9833,5.9844,5.983,5.9868,5.9868,5.9868,5.9868,5.9868,5.9868,5.9868,5.9868,5.9868,5.9868,5.9868,5.9755,5.9669,5.9677,5.9547,5.9477,5.9477,5.9477,5.9477,5.9477,5.9477,5.9477,5.944,5.944,5.9327,5.9005,5.888,5.8825,5.8825,5.8572,5.8462,5.8462,5.8241,5.8098,2.8516,3.6202,4.0903,4.6351,4.7687,4.769,4.7623,4.7169,4.6463,4.5514,4.5592,4.5971,4.6376,4.3834,4.1405,4.0703,3.7905,3.6536,3.855,3.9523,4.1667,4.5981,4.9143,5.1664,5.3318,5.5471,5.6744,5.6736,5.6922,5.7115,5.7188,5.7471,5.7703,5.7935,5.8063,5.8189,5.835,5.8684,5.8856,5.8865,5.9302,5.938,5.9004,5.7314,5.5854,5.456,5.3003,5.1373,4.9838,4.9852,4.9677,4.9439,4.9446,4.9498,4.9648,4.9926,5.0985,5.2344,5.2845,5.4811,5.7207,5.7516,5.8563,5.9655,5.9694,5.9703,5.9701,5.9736,5.9826,5.9873,5.9873,5.987,5.9869,5.9858,5.9794,5.97,5.9726,5.9792,5.9868,5.9868,5.9868,5.9868,5.9868,5.9868,5.9868,5.9868,5.9868,5.9868,5.9868,5.9755,5.9693,5.9673,5.9551,5.9477,5.9477,5.9477,5.9477,5.9477,5.9477,5.9402,5.9176,5.9139,5.8992,5.8626,5.8593,5.8462,5.8278,5.8241,5.8172,5.8172,5.8135,5.8098,2.5864,3.2667,3.897,4.2986,4.568,4.7311,4.7312,4.6766,4.5166,4.1341,4.0325,4.0146,4.0271,3.9053,3.7646,3.6198,3.4616,3.4195,3.5944,3.7908,4.0777,4.5131,4.9211,5.2055,5.3121,5.5155,5.6243,5.5988,5.61,5.6207,5.6215,5.6634,5.6959,5.7334,5.7478,5.7651,5.7887,5.8107,5.8284,5.8516,5.8821,5.9119,5.9346,5.8192,5.6853,5.5419,5.4727,5.2966,5.0588,5.0642,5.019,4.9381,4.9371,4.9424,4.9483,4.9536,5.0116,5.1109,5.2817,5.3834,5.4847,5.7515,5.8317,5.8431,5.9305,5.959,5.959,5.9665,5.9735,5.9759,5.9775,5.9771,5.979,5.9772,5.9706,5.9684,5.9659,5.9717,5.9792,5.983,5.9868,5.9868,5.9868,5.9868,5.9868,5.9868,5.9868,5.983,5.9755,5.9717,5.967,5.9588,5.9515,5.9477,5.9477,5.9477,5.9477,5.9477,5.9364,5.9252,5.9101,5.8925,5.8648,5.8314,5.8314,5.8241,5.8098,5.8098,5.8098,5.8098,5.8098,5.8098,2.3305,2.9914,3.7831,4.0845,4.3884,4.5835,4.497,4.4381,4.238,3.6553,3.4932,3.4535,3.4192,3.4264,3.3723,3.1806,3.1882,3.2621,3.3918,3.6742,4.0256,4.4466,4.8946,5.1987,5.2852,5.4528,5.5498,5.5428,5.5349,5.5349,5.5477,5.5884,5.6297,5.6747,5.6869,5.7106,5.7443,5.7479,5.7685,5.8039,5.8226,5.8536,5.8933,5.8416,5.7729,5.6928,5.6441,5.4313,5.1149,5.1281,5.053,4.9385,4.9376,4.9355,4.9376,4.9483,4.9536,4.9928,5.2484,5.2973,5.3048,5.6657,5.771,5.7672,5.865,5.9176,5.9515,5.959,5.9627,5.9623,5.9634,5.9644,5.9693,5.9644,5.9638,5.964,5.9646,5.9649,5.9717,5.9792,5.983,5.9868,5.9868,5.9868,5.9868,5.9868,5.983,5.9792,5.9679,5.9639,5.9608,5.9513,5.9477,5.9477,5.9477,5.944,5.9402,5.9402,5.9176,5.9026,5.8981,5.8629,5.8351,5.8098,5.8098,5.8098,5.8098,5.8098,5.8098,5.8098,5.8098,5.8062,2.8274,3.2333,3.5756,4.29,4.3817,4.2025,3.8345,3.8412,3.791,3.3116,3.2811,3.3241,3.2766,3.1186,3.0032,3.0276,3.0435,3.1159,3.2891,3.5925,3.9464,4.356,4.7343,5.0434,5.2327,5.388,5.4746,5.4871,5.4871,5.4923,5.5028,5.5533,5.5872,5.6059,5.6197,5.6332,5.6501,5.6711,5.6956,5.7109,5.7478,5.7722,5.7858,5.7825,5.7909,5.8026,5.5562,5.2548,4.9407,4.9446,4.9391,4.937,4.9385,4.9381,4.9376,4.9376,4.9483,4.9627,4.989,5.1845,5.4026,5.2973,5.5605,5.8988,5.7597,5.8236,5.9477,5.9515,5.9515,5.9477,5.9513,5.9568,5.9643,5.9531,5.9495,5.9495,5.9475,5.9608,5.9679,5.9679,5.9792,5.9868,5.9868,5.9868,5.9868,5.9868,5.9755,5.9679,5.9679,5.9568,5.9513,5.9477,5.9477,5.9477,5.9477,5.9289,5.9139,5.9139,5.897,5.8783,5.8574,5.8272,5.8135,5.8098,5.8098,5.8098,5.8098,5.8098,5.8098,5.8098,5.7988,5.7951,1.6046,2.3725,3.0302,2.9106,3.3766,3.7913,3.5351,3.1654,2.7748,2.431,2.5103,2.6233,2.5454,2.5573,2.6131,2.7557,2.9604,3.1724,3.3729,3.7963,4.1566,4.3676,4.7509,5.0408,5.1522,5.31,5.3904,5.3673,5.4074,5.4352,5.4441,5.4976,5.5469,5.5715,5.5872,5.6001,5.6141,5.6252,5.6488,5.6865,5.7067,5.7028,5.6783,5.7028,5.686,5.6205,5.4416,5.246,5.0514,4.9571,4.924,4.9241,4.9344,4.9398,4.9385,4.9381,4.9398,4.9585,5.0599,5.1817,5.3128,5.4518,5.6302,5.8011,5.8387,5.8951,5.9477,5.9477,5.9477,5.9477,5.9477,5.9515,5.9552,5.9515,5.9477,5.9477,5.9477,5.9522,5.9582,5.9659,5.9717,5.9755,5.9755,5.9792,5.983,5.9755,5.9717,5.9677,5.9554,5.9527,5.944,5.9289,5.9252,5.9214,5.9139,5.9026,5.8964,5.8967,5.8792,5.8555,5.8278,5.8172,5.8098,5.8098,5.8098,5.8098,5.8098,5.8098,5.8062,5.7988,5.7951,5.7902,0.8459,1.609,2.2963,2.0145,2.5662,3.1829,3.2097,2.5327,1.9145,2.0064,2.076,2.1005,2.0131,2.146,2.3489,2.5817,2.9485,3.3031,3.5646,4.0248,4.3699,4.4646,4.8013,5.0335,5.0855,5.2265,5.2986,5.2587,5.3107,5.3523,5.3673,5.4352,5.4923,5.5334,5.5569,5.5631,5.5764,5.5764,5.5966,5.6394,5.6481,5.6386,5.6095,5.6386,5.5918,5.4787,5.3556,5.2366,5.1211,4.9726,4.9123,4.9185,4.9255,4.9348,4.937,4.9385,4.9365,4.9535,5.0735,5.1765,5.2926,5.4821,5.6134,5.7166,5.8387,5.8725,5.8838,5.9327,5.9477,5.9477,5.9477,5.9477,5.9477,5.9477,5.9477,5.9477,5.9477,5.9477,5.951,5.9583,5.9658,5.9682,5.9669,5.9755,5.9755,5.9679,5.9628,5.9595,5.9513,5.944,5.9289,5.9064,5.9039,5.9007,5.8873,5.8798,5.8772,5.8783,5.8535,5.8314,5.8098,5.8098,5.8098,5.8098,5.8098,5.8098,5.8098,5.8062,5.8025,5.7914,5.7829,5.7735,1.0594,1.1916,1.3729,2.0902,2.2288,2.3133,2.7754,1.978,1.3953,2.2988,2.194,1.928,1.8757,2.0027,2.2275,2.5712,3.0306,3.4795,3.8838,4.2399,4.5071,4.6611,4.8543,4.9943,5.0265,5.1255,5.1883,5.1883,5.2012,5.2332,5.2836,5.3605,5.4317,5.4853,5.5063,5.5217,5.5217,5.5217,5.5319,5.5618,5.5618,5.5667,5.5776,5.5954,5.5396,5.4372,5.3046,5.1914,5.0813,4.9539,4.9061,4.9163,4.9185,4.9279,4.937,4.937,4.9351,4.9385,4.9385,5.1523,5.3978,5.2438,5.422,5.6961,5.6978,5.6958,5.7334,5.9026,5.9477,5.9477,5.9477,5.9477,5.9477,5.9477,5.9477,5.9477,5.9477,5.9477,5.9477,5.9477,5.959,5.9673,5.9687,5.9679,5.9679,5.9679,5.9554,5.9477,5.9477,5.9252,5.9064,5.8895,5.8904,5.8899,5.8899,5.8678,5.8499,5.8499,5.8278,5.8098,5.8098,5.8098,5.8098,5.8098,5.8098,5.8098,5.8098,5.7988,5.7914,5.7951,5.7551,5.7343,0.483,0.9179,1.2932,1.1326,1.4381,1.7797,1.7847,1.5746,1.4729,1.7944,1.7643,1.6965,1.7471,2.0182,2.3208,2.5723,3.0056,3.4043,3.7052,4.1083,4.435,4.6032,4.7676,4.8969,4.9521,5.0284,5.0774,5.0944,5.1085,5.1488,5.2207,5.2554,5.2919,5.3329,5.4005,5.4461,5.4535,5.501,5.5268,5.5469,5.5268,5.5096,5.4991,5.4311,5.353,5.2629,5.1053,4.9776,4.8757,4.8472,4.8485,4.8832,4.9089,4.9204,4.9223,4.9223,4.9241,4.9241,4.9241,5.0663,5.2611,5.3266,5.4279,5.5647,5.7881,5.7787,5.7297,5.8988,5.9477,5.9477,5.9477,5.9477,5.9477,5.9477,5.9477,5.9477,5.9477,5.9477,5.9477,5.9477,5.9515,5.9551,5.9554,5.9457,5.9457,5.9532,5.9435,5.9327,5.9252,5.9139,5.9039,5.8915,5.8721,5.8572,5.8388,5.8314,5.8241,5.8241,5.8135,5.8098,5.8098,5.8098,5.8098,5.8098,5.8025,5.7988,5.7988,5.788,5.7696,5.7513,5.739,5.7307,0.2641,0.6616,0.9878,0.6722,0.9051,1.2234,1.2565,1.2892,1.3452,1.4446,1.4708,1.5214,1.6863,2.0707,2.4303,2.6369,3.053,3.4466,3.7295,4.1047,4.4174,4.5864,4.6937,4.7894,4.8911,4.9193,4.9458,5.0021,4.9926,5.0284,5.1117,5.1355,5.1687,5.2391,5.304,5.3396,5.3479,5.4173,5.4481,5.4303,5.4317,5.4007,5.3514,5.2975,5.1981,5.0624,4.9716,4.8667,4.7539,4.7795,4.8036,4.8344,4.8603,4.875,4.88,4.8789,4.8907,4.9011,4.9011,5.0211,5.188,5.2929,5.3341,5.3903,5.6548,5.6736,5.6339,5.8031,5.897,5.9459,5.9285,5.9285,5.9325,5.9325,5.9421,5.9477,5.9477,5.9402,5.9327,5.9327,5.9289,5.9289,5.9289,5.9214,5.9177,5.9261,5.9172,5.9101,5.9026,5.8922,5.8833,5.8777,5.8499,5.8314,5.8135,5.8098,5.8098,5.8098,5.8098,5.8098,5.8098,5.8098,5.8098,5.8025,5.7951,5.7895,5.7841,5.7691,5.7528,5.7343,5.7271,5.7235,0.3363,0.429,0.5238,0.6504,0.6389,0.7044,1.1263,1.1127,1.0505,1.2123,1.2711,1.381,1.6362,2.0725,2.4847,2.7378,3.1371,3.5312,3.8709,4.1549,4.4062,4.6057,4.6305,4.6908,4.8545,4.8128,4.8051,4.8911,4.8606,4.8804,4.9709,5.0046,5.0678,5.1686,5.2044,5.2202,5.2202,5.2972,5.3032,5.2329,5.2797,5.2559,5.1601,5.1732,5.0597,4.8528,4.889,4.8305,4.697,4.7365,4.7623,4.7814,4.7779,4.7935,4.8201,4.8194,4.8435,4.8737,4.8737,4.9971,5.1519,5.1729,5.1673,5.1823,5.3753,5.4353,5.471,5.6417,5.8125,5.9325,5.8957,5.8957,5.9089,5.9066,5.9281,5.944,5.944,5.9233,5.9064,5.9064,5.8989,5.8914,5.8914,5.8876,5.8895,5.8913,5.8871,5.8876,5.8876,5.8654,5.8499,5.8499,5.8278,5.8098,5.8098,5.8098,5.8098,5.8098,5.8098,5.8098,5.8098,5.8098,5.8062,5.7919,5.7919,5.7839,5.7713,5.7492,5.7307,5.7307,5.7198,5.7162,0.1955,0.2816,0.4151,0.6534,0.724,0.7761,0.9514,0.9846,0.9534,0.8699,0.8898,0.9859,1.1889,1.4964,1.9507,2.6383,2.8727,3.1143,3.5471,3.7795,4.0456,4.4096,4.4699,4.558,4.7579,4.7018,4.6886,4.737,4.6856,4.6989,4.7959,4.8605,4.9205,4.9958,5.0981,5.1521,5.1521,5.2362,5.2075,5.0875,5.2238,5.2032,5.0314,4.9688,4.8654,4.7226,4.6663,4.6225,4.6047,4.6627,4.7086,4.7393,4.7383,4.7578,4.793,4.8114,4.8241,4.8357,4.8446,4.8781,4.957,5.2112,5.1212,4.9965,5.4142,5.4602,5.4045,5.5841,5.7505,5.8747,5.8644,5.8759,5.8946,5.8956,5.8982,5.902,5.9042,5.9005,5.8934,5.8934,5.8934,5.8897,5.8897,5.8721,5.8663,5.8857,5.8751,5.8609,5.8609,5.8543,5.8425,5.8241,5.8135,5.8098,5.8098,5.8098,5.8098,5.8098,5.8098,5.8098,5.8098,5.8098,5.8034,5.7935,5.7837,5.7662,5.7435,5.7278,5.7198,5.7198,5.7162,5.7162,0.1911,0.2945,0.4064,0.5421,0.5849,0.616,0.7227,0.7542,0.7363,0.6349,0.6583,0.7877,1.0852,1.2864,1.6339,2.3287,2.6719,2.9571,3.2505,3.6032,3.9305,4.1969,4.3371,4.4583,4.6057,4.5948,4.5977,4.6394,4.5894,4.5948,4.6634,4.7519,4.8253,4.8743,4.9958,5.063,5.063,5.1085,5.0948,5.0205,5.0603,5.0108,4.8689,4.7635,4.6612,4.5597,4.5459,4.5425,4.5583,4.6181,4.6663,4.6905,4.6963,4.7133,4.7364,4.7598,4.817,4.8966,4.9945,4.9932,4.9741,5.1536,5.091,4.9979,5.2661,5.3972,5.473,5.5729,5.6925,5.8025,5.8218,5.8433,5.8648,5.8694,5.8813,5.8893,5.8893,5.8805,5.8721,5.8715,5.8609,5.8535,5.8535,5.8425,5.8388,5.8535,5.8425,5.8351,5.8351,5.8351,5.8278,5.8135,5.8098,5.8098,5.8098,5.8098,5.8098,5.8098,5.8005,5.7942,5.7942,5.7942,5.7837,5.7661,5.7589,5.7477,5.7249,5.7202,5.7162,5.7162,5.6999,5.688,0.2142,0.3417,0.4253,0.3987,0.3815,0.395,0.4977,0.5023,0.4856,0.4694,0.5101,0.6637,1.0424,1.1892,1.4081,1.8927,2.3949,2.7916,2.983,3.477,3.876,4.0056,4.1972,4.3526,4.4234,4.4668,4.4956,4.5243,4.5129,4.5214,4.5612,4.6715,4.7488,4.7881,4.9106,4.9793,4.9793,4.9917,4.9831,4.961,4.8817,4.7844,4.676,4.5776,4.4818,4.3915,4.4752,4.5148,4.5204,4.5945,4.6289,4.6436,4.6582,4.6888,4.7193,4.7345,4.8457,5.018,5.1851,5.179,5.1004,5.1224,5.115,5.1033,5.129,5.334,5.568,5.5938,5.6635,5.7404,5.7732,5.8005,5.8267,5.8382,5.8583,5.8766,5.8796,5.862,5.8461,5.8451,5.8278,5.8098,5.8098,5.8098,5.8098,5.8098,5.8098,5.8098,5.8098,5.8098,5.8098,5.8098,5.8098,5.8098,5.8098,5.8062,5.8098,5.8066,5.7839,5.7734,5.7734,5.7771,5.7626,5.7328,5.7328,5.7288,5.7162,5.7162,5.7122,5.7081,5.6711,5.6501,0.0943,0.2258,0.3443,0.3303,0.3476,0.3774,0.4068,0.3693,0.3353,0.3653,0.3784,0.4331,0.5866,0.8209,1.0813,1.362,1.7204,2.1633,2.7534,3.2443,3.6338,3.8837,4.0201,4.135,4.2255,4.2677,4.2731,4.2612,4.3367,4.3993,4.4378,4.6003,4.715,4.7488,4.8956,4.9793,4.9793,4.9917,4.9388,4.8318,4.8339,4.7135,4.4757,4.4714,4.399,4.2852,4.3893,4.4436,4.4697,4.5816,4.6254,4.633,4.6526,4.7477,4.8707,4.8912,5.0093,5.1606,5.1865,5.1951,5.214,5.3403,5.3044,5.2321,5.3625,5.4386,5.5112,5.6562,5.7145,5.7366,5.7404,5.7626,5.7875,5.8009,5.8038,5.8103,5.8199,5.8193,5.8162,5.8204,5.8135,5.8098,5.8098,5.8098,5.8098,5.8098,5.8098,5.8098,5.8098,5.8098,5.8098,5.8098,5.8098,5.8062,5.7951,5.7951,5.7961,5.7975,5.7805,5.777,5.7873,5.7805,5.7626,5.7328,5.7328,5.7288,5.7162,5.7162,5.6963,5.6668,5.6589,5.6413,0.0937,0.1873,0.2708,0.2848,0.3402,0.3854,0.3722,0.3615,0.3495,0.3313,0.3395,0.3916,0.5314,0.6825,0.8812,1.1724,1.4504,1.8165,2.3435,3.0098,3.5366,3.7929,3.9756,4.0902,4.1161,4.1658,4.2058,4.2204,4.2666,4.3186,4.3993,4.5357,4.6417,4.7069,4.836,4.8839,4.8372,4.8597,4.7944,4.6414,4.6133,4.5341,4.4096,4.3557,4.3053,4.2525,4.3623,4.4256,4.4531,4.5726,4.6759,4.7551,4.7823,4.8873,5.0311,5.0553,5.1659,5.3063,5.314,5.3723,5.4528,5.447,5.4009,5.3579,5.4378,5.5283,5.6187,5.6946,5.7166,5.7249,5.7328,5.7441,5.7552,5.777,5.7841,5.7839,5.7972,5.7975,5.7939,5.8103,5.8071,5.8038,5.8098,5.8098,5.8098,5.8098,5.8098,5.8098,5.8098,5.8062,5.8025,5.8025,5.7951,5.7887,5.7825,5.7692,5.7588,5.7515,5.7439,5.7439,5.7478,5.7439,5.7362,5.7246,5.7246,5.7206,5.7162,5.7162,5.6922,5.6581,5.6368,5.6059,0.1148,0.0,0.332,0.4171,0.4629,0.4763,0.0,0.4252,0.3931,0.3246,0.3292,0.3913,0.5413,0.6008,0.7335,1.065,1.2559,1.5351,2.0214,2.6393,3.1775,3.5305,3.7856,3.9249,3.9319,4.0496,4.147,4.2084,4.2363,4.2714,4.3454,4.4785,4.5803,4.641,4.6764,4.6844,4.6578,4.687,4.6251,4.4701,4.4164,4.3781,4.3431,4.2737,4.2525,4.2931,4.4031,4.4714,4.5236,4.6429,4.7613,4.8776,4.9101,5.0248,5.1671,5.2069,5.3179,5.4584,5.4663,5.5492,5.6366,5.5246,5.4973,5.505,5.5208,5.6151,5.7162,5.7162,5.7162,5.7166,5.7249,5.7326,5.7365,5.7589,5.7626,5.7698,5.7839,5.7805,5.7805,5.8038,5.7972,5.7939,5.8103,5.8098,5.8098,5.8098,5.8098,5.8062,5.8062,5.7951,5.7887,5.7902,5.7789,5.7722,5.7661,5.7404,5.7249,5.7206,5.7162,5.7162,5.7166,5.7162,5.7162,5.7162,5.7162,5.7162,5.7162,5.7045,5.6753,5.6278,5.5966,5.5631,0.0,0.3584,0.6469,0.8827,0.8255,0.712,0.6965,0.556,0.0,0.3267,0.3218,0.3605,0.4586,0.4995,0.6207,0.9368,0.978,1.2297,1.9623,2.0141,2.2314,2.9169,3.1981,3.4159,3.5935,3.8585,4.0423,4.1255,4.2151,4.2541,4.2147,4.4499,4.5642,4.5092,4.3567,4.3396,4.4527,4.5049,4.4707,4.3687,4.3816,4.3303,4.2093,4.2319,4.3118,4.4407,4.5201,4.6328,4.764,4.8462,4.8938,4.9202,4.9783,5.1131,5.2687,5.3279,5.4584,5.6009,5.6045,5.6197,5.6368,5.6445,5.6616,5.6819,5.6941,5.7054,5.7162,5.7162,5.7162,5.7162,5.7162,5.7162,5.7206,5.7365,5.7366,5.7441,5.7698,5.7698,5.777,5.7908,5.7942,5.7939,5.8103,5.8098,5.8098,5.8098,5.8025,5.7951,5.7951,5.7841,5.7758,5.7759,5.7734,5.7625,5.7351,5.7239,5.7206,5.729,5.7206,5.7206,5.7328,5.7206,5.7162,5.7162,5.7162,5.7162,5.7162,5.6796,5.6233,5.5484,5.5434,5.5217,0.4474,0.7055,0.9625,1.1287,1.0222,0.8701,0.8535,0.6697,0.4692,0.3587,0.3382,0.3712,0.4615,0.4656,0.5766,0.9379,1.0362,1.2585,1.8128,2.1081,2.4501,2.9459,3.3361,3.619,3.7601,3.7945,3.9039,4.1297,4.1089,4.1315,4.2407,4.26,4.2372,4.1892,4.1851,4.1921,4.2034,4.2879,4.2577,4.1254,4.2994,4.353,4.3117,4.4249,4.5078,4.566,4.6569,4.7313,0.0,4.8739,4.968,5.0684,5.1,5.208,5.3545,5.388,5.4673,5.5574,5.5561,5.5884,5.6404,5.6413,5.6545,5.6753,5.688,5.6958,5.7035,5.7122,5.7162,5.7162,5.7162,5.7162,5.7162,5.7206,5.7246,5.7249,5.7441,5.7439,5.7477,5.7873,5.7875,5.7873,5.8066,5.8098,5.8103,5.7975,5.7965,5.7895,5.7808,5.7588,5.7475,5.7492,5.743,5.7321,5.7235,5.7162,5.7202,5.7206,5.7166,5.7202,5.7246,5.7166,5.7162,5.7162,5.6922,5.6796,5.6796,5.6377,5.5919,5.5384,5.5384,5.5166,0.8351,1.0656,1.2722,1.4312,1.3068,1.1354,1.0541,0.8514,0.6177,0.3945,0.3484,0.3831,0.4962,0.5037,0.5981,0.9165,1.0502,1.2928,1.7948,2.154,2.5155,2.9351,3.2982,3.5612,3.6788,3.7286,3.87,4.1511,4.0391,4.0403,4.2069,4.1199,4.012,3.9128,3.9874,4.0128,3.974,4.1076,4.1183,4.0271,4.2786,4.4063,4.4159,4.5629,4.6557,4.7098,4.7845,4.8393,4.895,4.9657,5.0606,5.1588,5.1904,5.2732,5.3705,5.4014,5.4446,5.4888,5.4956,5.5477,5.6059,5.6278,5.6493,5.6589,5.6711,5.6802,5.6891,5.705,5.7126,5.7162,5.7162,5.7162,5.7162,5.7162,5.7162,5.7166,5.7249,5.7206,5.7246,5.7698,5.7662,5.7662,5.7939,5.8005,5.7975,5.7877,5.7764,5.7696,5.7608,5.7415,5.7271,5.7271,5.7198,5.7162,5.7162,5.7162,5.7162,5.7162,5.7162,5.7162,5.7162,5.7162,5.7162,5.7162,5.6753,5.6545,5.6545,5.6059,5.568,5.5384,5.5233,5.5063,1.2163,1.4008,1.5759,1.8131,1.7359,1.5386,1.3178,1.1145,0.8527,0.4357,0.3517,0.399,0.555,0.6158,0.6927,0.8488,0.9777,1.2844,1.9497,2.0466,2.2519,2.7965,2.9793,3.1049,3.235,3.6393,3.9697,4.1831,4.0509,4.0,4.0802,4.0693,3.944,3.7004,3.7332,3.7664,3.7892,3.9711,4.0818,4.1234,4.3489,4.4655,4.4963,4.5877,4.72,4.8782,4.8969,4.9844,5.1155,5.1555,5.1719,5.1782,5.2545,5.2864,5.2931,5.3605,5.3926,5.4117,5.4466,5.4853,5.5343,5.6105,5.6448,5.6581,5.6739,5.6658,5.6612,5.6869,5.7054,5.7162,5.7162,5.7162,5.7162,5.7162,5.7162,5.7162,5.7162,5.7162,5.7166,5.7326,5.7328,5.7441,5.7699,5.7735,5.7735,5.7735,5.748,5.7366,5.7347,5.7235,5.7162,5.7162,5.7162,5.7162,5.7162,5.7162,5.7162,5.7162,5.7162,5.7162,5.7162,5.7162,5.7162,5.7162,5.6753,5.6545,5.6545,5.5776,5.542,5.5384,5.4958,5.4781,1.3117,1.5348,1.7332,2.0921,1.9957,1.7465,1.5106,1.2166,0.8907,0.5118,0.3957,0.4183,0.591,0.613,0.6784,0.9185,1.2385,1.5841,1.9377,2.3563,2.7772,3.1705,3.32,3.4361,3.5526,3.7435,3.9451,4.1564,3.9654,3.9141,4.0745,3.985,3.8516,3.6976,3.7732,3.8304,3.8475,4.0381,4.1473,4.1804,4.4528,4.6002,4.6177,4.8305,4.9567,5.0066,5.0431,5.0855,5.1175,5.1552,5.1718,5.1784,5.2045,5.2172,5.2235,5.2428,5.3133,5.4061,5.4248,5.5026,5.5931,5.6278,5.6404,5.6448,5.6556,5.6608,5.6632,5.686,5.6978,5.7014,5.7126,5.7162,5.7162,5.7162,5.7162,5.7162,5.7162,5.7162,5.7166,5.7326,5.7328,5.7441,5.7699,5.7735,5.7662,5.7478,5.7137,5.6891,5.6818,5.6751,5.6743,5.6732,5.6994,5.7162,5.7162,5.7162,5.7162,5.7162,5.7162,5.7162,5.7162,5.688,5.6753,5.6753,5.6059,5.5728,5.5728,5.5217,5.4993,5.4993,5.4887,5.4781,1.2998,1.5979,1.8918,2.1802,2.2153,2.0796,1.6966,1.4189,1.0974,0.5985,0.4316,0.4436,0.6631,0.6579,0.7457,1.1279,1.4317,1.7765,2.2395,2.6685,3.0929,3.5099,3.6145,3.6874,3.7533,3.8143,3.9156,4.0902,3.9913,3.9361,3.9739,3.8745,3.7935,3.7242,3.8194,3.8936,3.9541,4.1179,4.2126,4.2315,4.5307,4.6969,4.742,4.9529,5.0585,5.0737,5.1045,5.1142,5.1101,5.1515,5.1652,5.1685,5.1818,5.1883,5.1883,5.1883,5.2616,5.3605,5.4005,5.4835,5.5786,5.6197,5.6314,5.6359,5.6475,5.6511,5.6564,5.6783,5.6869,5.6905,5.7126,5.7162,5.7162,5.7162,5.7162,5.7162,5.7162,5.704,5.6963,5.7014,5.6932,5.6855,5.7014,5.7054,5.7014,5.7014,5.6808,5.6718,5.6747,5.6803,5.6796,5.6782,5.6999,5.7162,5.7162,5.7162,5.7162,5.7162,5.7004,5.6922,5.6922,5.6545,5.6368,5.6368,5.5728,5.5384,5.5384,5.5045,5.4781,5.4781,5.4781,5.4781,1.2662,1.64,2.0401,2.2085,2.4304,2.4493,1.8845,1.6673,1.3965,0.7006,0.4846,0.4974,0.7446,0.7686,0.9165,1.4302,1.6314,1.9859,2.7418,3.0003,3.2981,3.7924,3.8509,3.8485,3.8509,3.8509,3.8884,3.9868,4.0653,4.0303,3.8452,3.7989,3.7772,3.7984,3.8802,3.981,4.0995,4.2265,4.2913,4.2942,4.5864,4.7688,4.8407,4.9876,5.0655,5.0967,5.0967,5.0967,5.0967,5.1347,5.1552,5.1587,5.1818,5.1883,5.1883,5.2014,5.2461,5.3107,5.3824,5.454,5.5222,5.5917,5.6268,5.6359,5.6359,5.6359,5.6413,5.6628,5.6757,5.6833,5.705,5.7122,5.7162,5.7162,5.7122,5.7081,5.7081,5.6753,5.6501,5.6501,5.6197,5.5977,5.5977,5.6013,5.6151,5.6501,5.6545,5.6711,5.7081,5.7122,5.7122,5.7162,5.7162,5.7122,5.7122,5.7122,5.7045,5.7081,5.6675,5.6501,5.6501,5.6151,5.5931,5.5931,5.5533,5.5334,5.5334,5.4993,5.4781,5.4781,5.4781,5.4781,1.6807,1.9296,2.1791,2.8068,2.8441,2.5877,2.0796,1.8326,1.5142,0.8099,0.6658,0.6793,0.726,1.0321,1.3504,1.5842,2.2337,2.7912,3.0158,3.4254,3.7555,3.8983,3.8709,3.8609,3.8734,3.8609,3.8585,3.8784,3.9711,4.0435,4.0826,3.9684,3.9382,4.0163,4.0351,4.1051,4.2321,4.3591,4.4124,4.4211,4.6276,4.7688,4.8407,4.9772,5.0553,5.0967,5.0967,5.0967,5.0967,5.1347,5.1619,5.1818,5.1883,5.1883,5.2014,5.2679,5.3439,5.4173,5.4537,5.5173,5.5813,5.608,5.6288,5.6359,5.6359,5.6359,5.6404,5.6573,5.6652,5.6793,5.6963,5.704,5.7162,5.7162,5.6922,5.6589,5.6288,5.6151,5.6105,5.6105,5.6059,5.5977,5.5977,5.6242,5.6457,5.6545,5.6545,5.6624,5.6711,5.6711,5.6796,5.7122,5.7162,5.704,5.6711,5.6711,5.6545,5.6242,5.6151,5.6105,5.6105,5.5728,5.5533,5.5533,5.5114,5.494,5.494,5.4834,5.4781,5.4781,5.4781,5.4781,1.7702,2.0357,2.3634,2.985,3.1011,2.944,2.4658,2.1992,1.8678,1.2062,0.9853,0.9046,0.889,1.1899,1.5543,1.9102,2.5289,3.0523,3.3214,3.6369,3.8561,3.9156,3.9008,3.8809,3.8858,3.8734,3.8809,3.9181,3.977,4.0352,4.0997,3.9812,3.9738,4.1094,4.1536,4.2349,4.3647,4.4181,4.449,4.4519,4.634,4.748,4.7894,4.9552,5.0553,5.0967,5.0967,5.0967,5.0935,5.1353,5.1653,5.1883,5.1883,5.1883,5.1949,5.2428,5.3287,5.4173,5.4315,5.5069,5.6001,5.6045,5.6216,5.6359,5.6359,5.6359,5.6359,5.6546,5.666,5.6736,5.6694,5.6766,5.6838,5.6632,5.6421,5.6242,5.6059,5.5836,5.5741,5.5931,5.568,5.5484,5.568,5.5728,5.5824,5.6197,5.6323,5.6413,5.6796,5.6501,5.6368,5.6589,5.6589,5.6501,5.6323,5.6323,5.6197,5.6013,5.5824,5.5728,5.5728,5.5284,5.5114,5.5114,5.494,5.4781,5.4781,5.4781,5.4781,5.4781,5.4781,5.4781,1.9098,2.2255,2.6462,3.0839,3.3034,3.2884,2.8658,2.6104,2.2941,1.6989,1.3886,1.2158,1.1854,1.4089,1.7728,2.2921,2.7476,3.1955,3.6379,3.7715,3.8596,3.9426,3.9428,3.9329,3.8958,3.8858,3.9131,3.977,4.0062,4.0256,4.0519,3.9926,4.0215,4.1412,4.2489,4.3562,4.449,4.449,4.449,4.4519,4.6257,4.7078,4.732,4.915,5.034,5.0967,5.0967,5.0967,5.0935,5.129,5.1621,5.1883,5.1883,5.1883,5.1949,5.2143,5.2891,5.3801,5.3945,5.4836,5.5997,5.5963,5.6181,5.6359,5.6359,5.6359,5.6359,5.6511,5.6644,5.6704,5.6424,5.6445,5.6457,5.6105,5.5931,5.5919,5.5919,5.5583,5.542,5.5693,5.5268,5.494,5.5268,5.5063,5.5114,5.5776,5.5966,5.6242,5.688,5.6377,5.5977,5.5977,5.5977,5.5931,5.5766,5.5766,5.5801,5.5776,5.5484,5.5319,5.5319,5.4993,5.4781,5.4781,5.4781,5.4781,5.4781,5.4781,5.4781,5.4781,5.4781,5.4781,2.6446,2.9169,3.1454,3.5332,3.5159,3.3219,3.0239,2.8503,2.6038,2.0858,1.8647,1.7318,1.6248,1.9586,2.3304,2.5919,3.1882,3.7033,3.9279,4.0217,4.0703,4.0596,4.0184,3.9795,3.923,3.9057,3.8833,3.8685,3.994,4.0711,4.0807,4.2029,4.2392,4.1612,4.33,4.435,4.449,4.449,4.449,4.4519,4.5838,4.667,4.7269,4.8206,4.9521,5.0967,5.0967,5.0967,5.0935,5.0972,5.1318,5.1883,5.1883,5.1883,5.2014,5.3167,5.3469,5.3448,5.4234,5.5146,5.5997,5.5963,5.6181,5.6359,5.6359,5.6359,5.6359,5.6359,5.6573,5.6696,5.6288,5.6377,5.6457,5.6105,5.5728,5.5484,5.5484,5.5166,5.4887,5.4993,5.4887,5.4834,5.4887,5.5114,5.5369,5.5434,5.5776,5.6059,5.6151,5.6024,5.5977,5.5977,5.5977,5.5683,5.5013,5.4964,5.5004,5.4958,5.494,5.4887,5.4887,5.4834,5.4781,5.4781,5.4781,5.4781,5.4781,5.4781,5.4781,5.4781,5.4781,5.4781,2.9513,3.208,3.4835,3.889,3.8309,3.6393,3.4625,3.2587,3.0019,2.6566,2.4241,2.2445,2.0997,2.3991,2.7192,2.877,3.3921,3.8295,3.9744,4.0812,4.1265,4.0884,4.0596,4.021,3.965,3.9478,3.9255,3.8908,4.023,4.1538,4.2649,4.3374,4.3802,4.3875,4.4614,4.4898,4.4898,4.4753,4.4694,4.4519,4.6199,4.6908,4.6989,4.8894,5.0237,5.0967,5.0967,5.0967,5.0967,5.0967,5.1315,5.1883,5.1883,5.1883,5.1949,5.2554,5.3066,5.3619,5.404,5.4989,5.5984,5.5966,5.613,5.6359,5.6359,5.6181,5.5993,5.6359,5.6258,5.5954,5.5966,5.5954,5.5824,5.5384,5.5217,5.5063,5.5063,5.494,5.4781,5.4781,5.4781,5.4887,5.5114,5.5114,5.5166,5.5334,5.5533,5.5583,5.5369,5.5284,5.5284,5.5284,5.5284,5.5198,5.4888,5.4802,5.4819,5.4834,5.4781,5.4781,5.4781,5.4781,5.4781,5.4781,5.4781,5.4781,5.4781,5.4781,5.4781,5.4781,5.4781,5.4781,3.1442,3.3741,3.6658,4.0582,4.0398,3.9042,3.8209,3.6155,3.4001,3.2104,2.9737,2.7562,2.6089,2.7998,3.0155,3.1392,3.5367,3.8791,4.0102,4.1364,4.1925,4.1265,4.117,4.098,4.0235,4.0041,4.0041,4.0087,4.1255,4.2649,4.4114,4.4406,4.487,4.5698,4.5414,4.5329,4.5329,4.51,4.5013,4.4985,4.6552,4.7439,4.7803,4.999,5.0967,5.0967,5.0967,5.0967,5.0967,5.0967,5.1179,5.1653,5.1851,5.1883,5.1883,5.1883,5.2807,5.4006,5.4108,5.4887,5.5962,5.6024,5.6155,5.6359,5.6359,5.5993,5.5734,5.6272,5.594,5.5434,5.5583,5.5484,5.5319,5.4887,5.4781,5.4781,5.4781,5.4781,5.4781,5.4781,5.4781,5.4887,5.5217,5.5045,5.494,5.5217,5.5233,5.5166,5.4887,5.4887,5.4834,5.4834,5.4834,5.4834,5.4781,5.48,5.48,5.4781,5.48,5.48,5.48,5.4834,5.4834,5.48,5.4834,5.4781,5.4781,5.4781,5.4781,5.4781,5.4781,5.4781,3.3235,3.5,3.6374,3.9554,4.0057,3.9715,3.9397,3.8367,3.7335,3.6722,3.4595,3.258,3.1669,3.1818,3.2472,3.3667,3.6906,3.9701,4.1243,4.2625,4.3123,4.2363,4.227,4.2018,4.117,4.0641,4.0928,4.2084,4.3519,4.4406,4.4493,4.5243,4.5613,4.5698,4.5414,4.5329,4.5329,4.5243,4.5641,4.6335,4.6693,4.8206,5.0726,5.0866,5.0967,5.0967,5.0967,5.0967,5.0967,5.0967,5.0935,5.1004,5.1653,5.1883,5.1883,5.1883,5.3003,5.4428,5.4708,5.5268,5.6025,5.6116,5.6288,5.6359,5.6359,5.5993,5.5669,5.5914,5.5723,5.5369,5.5268,5.5319,5.5319,5.4887,5.4781,5.4781,5.4781,5.4781,5.4781,5.4781,5.4781,5.4834,5.4834,5.4834,5.4834,5.4834,5.4869,5.4887,5.4958,5.501,5.4958,5.4834,5.494,5.4958,5.4834,5.4836,5.4801,5.4834,5.4836,5.4819,5.4819,5.4818,5.4853,5.4819,5.4818,5.4781,5.4781,5.4781,5.4781,5.4781,5.4781,5.4781,3.5663,3.7358,3.8771,4.2173,4.2315,4.1442,4.0958,3.9559,3.8446,3.872,3.7275,3.5913,3.5802,3.5662,3.5549,3.5617,3.7266,3.908,4.0539,4.167,4.2426,4.2832,4.2758,4.2363,4.1737,4.2177,4.2977,4.4434,4.4522,4.4755,4.5357,4.5641,4.5809,4.5809,4.5725,4.5641,4.5641,4.5585,4.5669,4.6007,4.7069,4.8376,4.9782,5.0553,5.0967,5.0967,5.0967,5.0967,5.0967,5.0967,5.0967,5.1004,5.1653,5.1883,5.1883,5.1883,5.2807,5.4154,5.4623,5.5349,5.6084,5.6141,5.6278,5.6359,5.6359,5.6013,5.568,5.6011,5.556,5.5079,5.5268,5.5166,5.4993,5.4834,5.4781,5.4781,5.4781,5.4781,5.4781,5.4781,5.4781,5.4781,5.4781,5.4781,5.4834,5.494,5.4993,5.508,5.5097,5.5149,5.5149,5.5097,5.5114,5.5114,5.5097,5.5028,5.5114,5.5202,5.4958,5.4819,5.494,5.5097,5.5132,5.4941,5.4923,5.4906,5.4906,5.4834,5.4887,5.5097,5.4887,5.4834,3.3595,3.5099,3.7006,4.1671,4.26,4.2405,4.2543,4.135,4.0365,4.0616,3.982,3.8864,3.8475,3.8087,3.7721,3.6955,3.7338,3.8451,4.044,4.1038,4.1811,4.3593,4.3457,4.3095,4.2913,4.3965,4.4956,4.5669,4.5386,4.5357,4.5977,4.5864,4.5864,4.5864,4.5864,4.5864,4.5864,4.5838,4.5754,4.5754,4.736,4.8452,4.8982,5.0308,5.0967,5.0967,5.0967,5.0967,5.0967,5.0967,5.0967,5.1004,5.1653,5.1883,5.1883,5.1883,5.2891,5.4283,5.5026,5.5693,5.6176,5.6222,5.6314,5.6359,5.6359,5.5943,5.554,5.5884,5.5349,5.4746,5.5114,5.5045,5.4781,5.4781,5.4781,5.4781,5.4781,5.4781,5.4781,5.4781,5.4781,5.4781,5.4781,5.4869,5.4904,5.4975,5.515,5.5202,5.5184,5.5252,5.5268,5.5217,5.5217,5.5303,5.5287,5.5287,5.5338,5.5357,5.5147,5.5077,5.5233,5.5322,5.5357,5.5166,5.5114,5.5063,5.5063,5.4993,5.5045,5.5114,5.4993,5.494,2.7177,2.8279,3.0928,3.7761,4.0656,4.2249,4.3976,4.3744,4.306,4.2487,4.2152,4.1477,3.965,3.9177,3.873,3.7736,3.7259,3.8079,4.1283,4.106,4.1672,4.4642,4.4465,4.4198,4.4581,4.5948,4.6641,4.5977,4.6145,4.6257,4.6257,4.6061,4.5864,4.5864,4.5864,4.5864,4.5948,4.5864,4.5864,4.5948,4.7549,4.8407,4.856,5.0165,5.0967,5.0967,5.0967,5.0967,5.0967,5.0967,5.0967,5.1004,5.1653,5.1883,5.1883,5.1949,5.3185,5.5026,5.5884,5.6187,5.6233,5.6359,5.6359,5.6359,5.6359,5.5836,5.5279,5.5504,5.5026,5.451,5.4727,5.4781,5.4781,5.4781,5.4781,5.4781,5.4781,5.4781,5.4781,5.4834,5.4834,5.4834,5.4869,5.4938,5.5008,5.5008,5.513,5.5236,5.5236,5.5319,5.5369,5.5217,5.5319,5.5404,5.5392,5.551,5.5474,5.5217,5.5474,5.561,5.561,5.5494,5.5373,5.5384,5.5268,5.5217,5.5217,5.5201,5.5114,5.501,5.501,5.4993,3.2819,3.1255,3.0347,3.7414,3.8466,3.8355,4.0751,4.0667,4.0659,4.2644,4.2495,4.1596,4.0359,3.9907,3.9475,3.8651,3.8483,3.8787,3.9714,4.1234,4.2672,4.3656,4.5108,4.6145,4.6476,4.667,4.6782,4.6618,4.6482,4.6399,4.6399,4.6257,4.6145,4.6145,4.6145,4.6447,4.7039,4.6506,4.667,4.739,4.6826,4.7864,5.0237,5.0726,5.0967,5.0967,5.0967,5.0967,5.0967,5.0967,5.1179,5.1653,5.1818,5.1883,5.2078,5.3287,5.4661,5.5966,5.6105,5.6233,5.6359,5.6359,5.6359,5.6359,5.6141,5.5942,5.5695,5.5424,5.5184,5.4941,5.4834,5.4781,5.4781,5.4781,5.4781,5.4781,5.4781,5.4781,5.4834,5.4906,5.4958,5.4958,5.5097,5.5097,5.5132,5.5132,5.5338,5.5525,5.561,5.5554,5.5519,5.5469,5.5519,5.5519,5.5505,5.5583,5.5561,5.5477,5.5561,5.5609,5.5609,5.5569,5.5505,5.5384,5.5334,5.5334,5.5334,5.5217,5.5217,5.5284,5.5217,5.5097,2.971,2.7481,2.5942,3.2085,3.2661,3.3093,3.8469,3.8307,3.8155,4.2105,4.227,4.1502,4.1049,4.0581,3.9937,3.9139,3.8559,3.8693,4.0105,4.0876,4.2129,4.4407,4.6102,4.7151,4.7027,4.7228,4.7239,4.7027,4.6729,4.6511,4.6511,4.6452,4.634,4.6145,4.6145,4.6447,4.7099,4.734,4.7737,4.8206,4.802,4.9044,5.0967,5.0967,5.0967,5.0935,5.1247,5.135,5.135,5.135,5.1519,5.1883,5.1883,5.1883,5.211,5.3892,5.5299,5.6359,5.6314,5.6314,5.6404,5.6413,5.6448,5.643,5.6349,5.6261,5.6054,5.5585,5.5393,5.5202,5.4922,5.4781,5.4781,5.4781,5.4781,5.4834,5.4887,5.4869,5.4957,5.5045,5.5097,5.5097,5.5201,5.5252,5.5354,5.542,5.5631,5.5764,5.5786,5.5764,5.5776,5.5764,5.5764,5.5715,5.5751,5.5622,5.5564,5.56,5.56,5.56,5.56,5.5596,5.5569,5.5484,5.5469,5.5469,5.5469,5.5369,5.5319,5.542,5.5217,5.5063,2.1518,2.0091,2.01,2.421,2.5512,2.7925,0.0,3.5751,3.5031,3.9898,4.028,3.9996,4.068,4.027,3.968,3.9175,3.8169,3.8354,4.1213,4.0316,4.0997,4.5466,4.6712,4.7081,4.6661,4.7411,4.7767,4.7239,4.6916,4.67,4.67,4.67,4.6423,4.5977,4.5977,4.6311,4.6997,4.8145,4.8832,4.8787,5.0347,5.1004,5.1004,5.1004,5.1004,5.1074,5.1653,5.1883,5.1883,5.1883,5.1883,5.1883,5.1883,5.1883,5.211,5.4104,5.5463,5.6359,5.6359,5.6359,5.6368,5.6509,5.6581,5.6556,5.6688,5.6521,5.6283,5.5864,5.5568,5.5304,5.4938,5.4781,5.4781,5.4781,5.4816,5.4869,5.4993,5.501,5.5079,5.5219,5.5271,5.5271,5.5287,5.5354,5.5519,5.5776,5.5931,5.5942,5.5824,5.5931,5.5977,5.6001,5.6001,5.599,5.6001,5.5766,5.5659,5.5683,5.567,5.567,5.56,5.5596,5.5569,5.5569,5.5569,5.5569,5.5569,5.5469,5.5384,5.5369,5.5166,5.4958,0.0,0.0,0.0,0.0,0.0,0.0,0.0,2.9364,2.9417,3.119,3.1136,3.1486,3.4142,3.5493,3.661,3.7993,3.9343,4.0026,3.9562,4.1044,4.249,4.3223,4.4338,4.5243,4.5934,4.6855,4.732,4.7239,4.7159,4.7078,4.7078,4.6864,4.6618,4.6506,4.6834,4.7658,4.8982,4.8051,4.8832,5.122,5.1554,5.1719,5.1719,5.1719,5.1719,5.1719,5.1818,5.1883,5.1883,5.1883,5.1883,5.1883,5.1883,5.1883,5.2238,5.4991,5.6187,5.6359,5.6359,5.6359,5.6368,5.6524,5.6567,5.6517,5.6456,5.6413,5.6238,5.5657,5.5446,5.5304,5.4938,5.4781,5.4781,5.4781,5.4904,5.4973,5.5026,5.5185,5.5357,5.5505,5.5625,5.5709,5.5786,5.5847,5.586,5.5954,5.5954,5.6013,5.6095,5.6048,5.6048,5.6105,5.6048,5.599,5.6132,5.5977,5.6034,5.6212,5.6226,5.6025,5.5624,5.5609,5.5569,5.5569,5.5569,5.5569,5.5569,5.5569,5.5469,5.5217,5.5319,5.5217,0.0,0.0,0.0,0.0,0.0,0.0,0.0,0.0,0.0,0.0,0.0,2.6922,2.9791,0.0,3.4501,3.6256,3.8761,4.0302,3.9902,4.0926,4.176,4.205,4.3003,4.3707,4.3813,4.5361,4.6084,4.5325,4.6521,4.7239,4.7239,4.6997,4.7658,4.9248,4.95,4.9935,5.0742,5.0361,5.0948,5.2465,5.2111,5.1883,5.1883,5.1883,5.1883,5.1883,5.1883,5.1883,5.1883,5.1883,5.1883,5.1883,5.1883,5.2797,5.4323,5.5836,5.6537,5.6753,5.6753,5.6753,5.6796,5.685,5.6891,5.685,5.6782,5.6802,5.6761,5.6251,5.5977,5.5774,5.5374,5.5146,5.5008,5.5008,5.5042,5.5149,5.5306,5.5424,5.5589,5.5836,5.586,5.5918,5.6061,5.6222,5.6368,5.6278,5.6278,5.6278,5.6278,5.6187,5.5902,5.5174,5.5725,5.5786,5.4791,5.5618,5.6268,5.6385,5.6365,5.6119,5.5589,5.5587,5.5596,5.5569,5.5569,5.5569,5.5569,5.5469,5.5369,5.5319,5.5268,5.5114,0.0,0.0,0.0,0.0,0.0,0.0,0.0,0.0,0.0,0.0,0.0,0.0,0.0,0.0,0.0,3.3955,3.7399,4.0116,4.0896,4.0865,4.0896,4.139,4.2365,4.2649,4.1804,4.3783,4.4619,4.3454,4.5419,4.7018,4.7688,4.8003,4.9279,5.1818,5.2047,5.2111,5.2111,5.2964,5.3275,5.3065,5.2401,0.0,5.2111,5.2111,5.2014,5.1883,5.1883,5.1949,5.2111,5.2111,5.2335,5.2645,5.2735,5.4269,5.6359,5.6359,5.6711,5.7162,5.7162,5.7162,5.7162,5.7162,5.7162,5.7162,5.7235,5.7343,0.0,5.6959,5.6688,5.6427,5.5934,5.5602,5.5393,5.5271,5.5271,5.5393,5.5625,5.5702,5.586,5.6126,5.6197,5.613,5.6272,5.6314,5.6179,5.5729,5.565,5.5643,5.5512,5.5762,5.5441,5.4156,5.5441,5.5682,5.3998,5.5405,5.6332,5.6359,5.6368,5.619,5.5689,5.5669,5.4916,5.34,5.3353,5.3951,5.5111,5.4864,5.4988,5.5214,5.2045,5.1292,0.0,0.0,0.0,0.0,0.0,0.0,0.0,0.0,0.0,0.0,0.0,0.0,0.0,0.0,0.0,0.0,3.5923,4.0201,4.1675,4.1866,4.1568,4.0802,4.2173,4.2685,4.1556,4.2705,4.3514,4.335,4.4292,4.6167,4.9342,5.0635,0.0,0.0,0.0,5.2908,5.2908,5.4063,5.412,5.3065,5.297,5.2908,5.2908,5.2908,5.2528,5.1883,5.1883,5.2304,5.2908,5.2908,5.3823,5.5198,5.5693,5.6059,5.6359,5.6359,5.6711,5.7162,5.7162,0.0,0.0,5.7162,5.7162,5.7198,5.7564,5.7672,5.7611,5.718,5.7098,5.6897,5.6143,5.6026,5.5991,5.5625,5.5625,5.5744,5.5794,5.6025,5.6314,5.6323,5.6501,5.666,5.6654,5.5579,5.4164,5.2653,5.2434,5.2425,5.2425,5.3521,5.4228,5.4049,5.5441,0.0,5.6038,5.6227,5.6382,5.6368,5.6371,5.6223,5.5973,5.5851,5.2501,4.5555,4.5409,4.8035,5.3363,5.3315,5.3904,5.4714,4.1045,3.8258,0.0,0.0,0.0,0.0,0.0,0.0,0.0,0.0,0.0,0.0,0.0,0.0,0.0,0.0,0.0,0.0,3.2688,3.5976,3.7503,3.9825,4.1453,4.1829,4.2196,4.2208,4.1608,4.2626,4.3078,4.2274,4.5522,4.8755,5.1554,5.2209,5.2561,5.2561,5.2908,5.3396,5.4063,5.4565,5.4565,5.4063,5.4063,5.4063,5.4063,5.4063,5.3915,5.3557,5.2903,5.3498,5.4993,5.4993,5.5399,5.6095,0.0,0.0,0.0,0.0,5.7209,5.7661,5.7285,5.7403,5.766,5.7514,5.7478,5.7514,5.766,5.7805,5.7804,5.7634,5.7514,5.7344,5.6823,5.652,5.6297,5.6013,5.5966,5.6084,5.6226,5.6375,5.6529,5.6682,5.6724,0.0,5.6946,5.6454,5.5774,5.5054,5.4897,5.4815,5.4738,5.5185,5.5135,5.4121,5.5441,5.6011,5.5084,5.5872,0.0,0.0,0.0,5.6323,5.6215,5.608,0.0,0.0,0.0,4.6882,5.2755,4.4862,0.0,0.0,4.291,4.103,0.0,0.0,0.0,0.0,0.0,0.0,0.0,0.0,0.0,0.0,0.0,0.0,0.0,0.0,0.0,0.0,3.0313,3.4245,3.5378,3.7975,3.9909,4.0321,4.1476,4.178,4.0582,4.1989,4.2743,4.1875,4.5788,4.9595,5.2903,5.3065,5.2294,5.0651,5.2518,5.3949,5.4816,5.494,5.5045,5.5045,5.5045,5.5045,5.5045,5.5045,5.494,5.4781,5.4386,5.5112,5.6581,5.6581,5.6581,5.6624,5.6963,5.7246,5.7403,5.7403,5.7732,5.8071,5.7553,5.7732,5.8062,5.7914,5.7841,5.7841,5.7841,5.7914,5.7988,5.8025,5.7988,5.7867,5.7526,5.7152,5.6841,5.6511,5.6421,5.6402,5.6581,5.6617,5.6747,5.6937,5.6855,5.67,5.6464,5.6432,5.6251,5.5819,5.5666,5.5585,5.5508,5.5736,5.5428,5.4235,5.5441,5.594,5.4763,5.5714,5.6358,5.6404,5.6394,5.6358,5.6404,5.4071,5.2935,5.3141,4.7099,4.5791,0.0,0.0,0.0,0.0,0.0,0.0,0.0,0.0,0.0,0.0,0.0,0.0,0.0,0.0,0.0,0.0,0.0,0.0,0.0,0.0,0.0,0.0,0.0,0.0,3.7795,3.7339,3.6351,3.4502,3.9396,4.148,3.7814,4.0449,4.2518,4.2705,4.3671,4.6909,5.2763,5.3065,5.0417,4.4617,5.1145,5.4781,5.4781,5.5354,5.5569,5.5569,5.5569,5.5569,5.5569,5.5569,5.5303,5.4887,5.6377,5.7045,5.7122,5.7122,5.7122,5.7122,5.7162,5.7552,5.8066,5.8066,5.8098,5.8098,5.8098,5.8098,5.8098,5.8098,5.8098,5.8098,5.8098,5.8098,5.8135,5.8278,5.8388,5.8414,5.8184,5.788,5.761,5.7243,5.6897,5.6721,5.6757,5.6869,5.6941,5.6941,5.685,5.6293,5.4779,5.4501,5.4006,5.2493,5.2277,0.0,5.2239,5.3447,5.429,5.4255,5.552,5.6323,5.6288,5.6341,5.6387,5.6368,5.6341,5.6387,5.6368,4.8639,4.5118,4.6896,4.507,4.3322,4.1731,0.0,0.0,0.0,0.0,0.0,0.0,0.0,0.0,0.0,0.0,0.0,0.0,0.0,0.0,0.0,0.0,0.0,0.0,0.0,0.0,0.0,0.0,0.0,0.0,3.3452,3.5743,3.4894,3.7522,3.8936,3.7814,3.5859,3.7161,4.3181,4.396,4.5891,4.9914,4.8238,4.7348,4.7737,4.8428,5.0692,5.4746,5.5354,5.5569,5.5618,5.5954,5.613,5.613,5.613,5.661,5.7406,5.7932,5.8167,5.8167,5.7905,5.7802,5.7802,5.7802,5.7902,5.8098,5.8098,5.8098,5.8098,5.8098,5.8098,5.8098,5.8098,5.8098,5.8098,5.8098,5.8098,5.8098,5.8172,5.8322,5.8424,5.8063,5.7848,5.7666,5.7347,5.7077,5.6905,5.6978,5.6978,5.6941,5.6941,5.6022,5.4025,5.0326,5.3164,5.4358,4.9685,5.2604,5.5338,5.5338,5.5646,5.5843,5.5793,5.6127,5.6359,5.6359,5.6358,5.6366,5.6404,5.6402,5.6366,5.6404,5.3591,5.2296,5.2812,5.2218,4.8092,4.0514,0.0,0.0,0.0,0.0,0.0,0.0,0.0,0.0,0.0,0.0,0.0,0.0,0.0,0.0,0.0,0.0,0.0,0.0,0.0,0.0,0.0,0.0,0.0,0.0,0.0,0.0,3.5238,3.6269,0.0,3.5425,2.9657,3.0996,4.3193,4.4148,4.4986,4.6897,4.7629,4.7943,4.7892,4.6442,4.7539,5.1489,5.2028,5.2599,5.3239,5.5901,5.7217,5.7217,5.7217,5.7764,5.8712,5.8712,5.8712,5.8526,5.5933,5.4829,5.4741,5.4741,5.4741,5.4711,5.4458,5.4521,5.5073,5.7325,5.8098,5.8098,5.8098,5.8098,5.7551,5.471,5.2609,5.1631,5.3405,5.4393,5.5359,5.6896,5.7565,5.7794,5.755,5.7271,5.709,5.7014,5.6504,5.6171,5.6628,5.5736,5.3104,4.7238,5.0139,5.1761,4.7201,5.055,5.4405,5.6752,5.688,5.6718,5.6632,5.6457,5.6359,5.6359,5.6359,5.6359,5.6359,5.6359,5.6359,5.6359,5.6233,5.5075,5.267,5.1979,4.8211,0.0,0.0,0.0,0.0,0.0,0.0,0.0,0.0,0.0,0.0,0.0,0.0,0.0,0.0,0.0,0.0,0.0,0.0,0.0,0.0,0.0,0.0,0.0,0.0,0.0,0.0,0.0,3.5242,3.5476,0.0,0.0,0.0,0.0,4.1098,4.264,4.3209,4.4114,5.0631,5.1459,4.5159,4.5408,4.5713,4.5678,4.6083,4.7166,4.8997,5.5221,5.8219,5.8219,5.8219,5.8219,5.8219,5.8192,5.8192,5.7709,5.1531,4.8805,4.8542,4.7878,4.7189,4.6549,4.5959,4.6939,4.9473,5.5552,5.762,5.762,5.762,5.7762,5.6453,4.8779,4.2772,0.0,0.0,4.6799,4.9128,5.4333,5.6562,5.7531,5.7624,5.7383,5.7122,5.6833,5.5594,5.4702,5.5352,5.5314,5.2705,4.4834,0.0,4.588,4.4584,4.6049,4.9612,5.597,5.6778,5.6796,5.6796,5.6537,5.6404,5.6404,5.6404,5.6359,5.6359,5.6359,5.6359,5.6359,5.5948,5.2844,4.6651,4.4516,0.0,0.0,0.0,0.0,0.0,0.0,0.0,0.0,0.0,0.0,0.0,0.0,0.0,0.0,0.0,0.0,0.0,0.0,0.0,0.0,0.0,0.0,0.0,0.0,0.0,0.0,2.5873,2.8329,3.3539,3.1115,2.6897,0.0,0.0,0.0,0.0,0.0,0.0,4.3444,4.6569,4.7216,4.5522,4.5589,4.581,4.6124,4.6605,4.7205,4.8003,5.0434,5.1606,5.1606,5.1606,5.1606,5.1606,5.1527,5.1494,5.1346,4.9674,4.8805,4.762,3.7927,2.8134,1.9488,1.9312,3.1702,4.8837,5.0468,5.102,5.102,5.102,5.268,5.4278,5.221,0.0,0.0,0.0,0.0,4.0879,4.6953,4.8753,5.0192,5.4888,5.5621,5.5607,5.668,5.6329,5.3672,4.6796,4.4599,4.1323,3.3514,3.4543,0.0,3.7289,4.2052,4.7055,5.1236,5.4765,5.688,5.688,5.6668,5.6501,5.6501,5.6448,5.6359,5.6359,5.6359,5.6359,5.6359,5.179,4.7905,4.5092,0.0,0.0,0.0,0.0,0.0,0.0,0.0,0.0,0.0,0.0,0.0,0.0,0.0,0.0,0.0,0.0,0.0,0.0,0.0,0.0,0.0,0.0,0.0,0.0,0.0,0.0,0.0,2.2011,2.4024,2.6752,2.4695,2.0676,0.0,0.0,0.0,0.0,0.0,0.0,0.0,0.0,0.0,3.3575,4.168,4.6041,4.6254,4.695,4.7418,4.7657,4.8681,4.9185,4.9185,4.9185,4.9185,4.9185,4.9123,4.7381,4.486,4.7779,4.5457,3.8774,0.0,0.0,0.0,0.0,2.0731,3.5806,3.5806,3.9564,4.4795,4.7694,0.0,0.0,0.0,0.0,0.0,0.0,0.0,3.6583,4.2267,4.638,4.9881,5.3289,5.3897,5.3818,5.4475,5.0434,4.5339,4.0642,3.6142,3.0281,2.1335,2.5882,0.0,0.0,0.0,4.2767,4.824,5.3651,5.6958,5.6958,5.6711,5.6545,5.6545,5.6448,5.6359,5.6359,5.6359,5.5155,5.2408,4.8047,4.1785,0.0,0.0,0.0,0.0,0.0,0.0,0.0,0.0,0.0,0.0,0.0,0.0,0.0,0.0,0.0,0.0,0.0,0.0,0.0,0.0,0.0,0.0,0.0,0.0,0.0,0.0,0.0,0.0,0.0,2.1564,1.7887,0.0,0.0,0.0,0.0,0.0,0.0,0.0,0.0,0.0,0.0,0.0,0.0,0.0,4.1397,4.1433,4.3905,4.6021,4.7843,4.8751,4.9185,4.9185,4.9185,4.9185,4.911,4.8231,0.0,4.0826,4.4753,0.0,0.0,0.0,0.0,0.0,0.0,0.0,0.0,0.0,0.0,0.0,0.0,0.0,0.0,0.0,0.0,0.0,0.0,0.0,0.0,0.0,0.0,5.0235,5.0495,5.0864,5.0684,4.8786,4.0697,3.3918,3.4567,2.7954,1.9353,0.0,0.0,0.0,0.0,0.0,0.0,4.5761,5.2676,5.6999,5.6999,5.6753,5.6589,5.6589,5.6457,5.6404,5.6359,5.5361,5.283,4.8448,4.4773,0.0,0.0,0.0,0.0,0.0,0.0,0.0,0.0,0.0,0.0,0.0,0.0,0.0,0.0,0.0,0.0,0.0,0.0,0.0,0.0,0.0,0.0,0.0,0.0,0.0,0.0,0.0,0.0,0.0,0.0,0.0,0.0,0.0,0.0,0.0,0.0,0.0,0.0,0.0,0.0,0.0,0.0,0.0,0.0,0.0,0.0,0.0,0.0,0.0,0.0,4.9089,4.9185,4.9185,4.9185,4.9185,4.8886,4.3287,4.3573,4.7239,3.6882,0.0,0.0,0.0,0.0,0.0,0.0,0.0,0.0,0.0,0.0,0.0,0.0,0.0,0.0,0.0,0.0,0.0,0.0,0.0,0.0,0.0,0.0,3.5891,3.9583,4.2409,4.2062,3.3869,0.0,0.0,0.0,0.0,0.0,0.0,0.0,0.0,0.0,0.0,0.0,4.1565,5.0727,5.7122,5.7122,5.6999,5.6838,5.6718,5.6589,5.6493,5.6404,5.0192,4.9051,0.0,0.0,0.0,0.0,0.0,0.0,0.0,0.0,0.0,0.0,0.0,0.0,0.0,0.0,0.0,0.0,0.0,0.0,0.0,0.0,0.0,0.0,0.0,0.0,0.0,0.0,0.0,0.0,0.0,0.0,0.0,0.0,0.0,0.0,0.0,0.0,0.0,0.0,0.0,0.0,0.0,0.0,0.0,0.0,0.0,0.0,0.0,0.0,0.0,0.0,0.0,0.0,0.0,0.0,0.0,0.0,0.0,0.0,3.9716,3.8458,0.0,0.0,0.0,0.0,0.0,0.0,0.0,0.0,0.0,0.0,0.0,0.0,0.0,0.0,0.0,0.0,0.0,0.0,0.0,0.0,0.0,0.0,0.0,0.0,0.0,0.0,0.0,0.0,0.0,0.0,0.0,0.0,0.0,0.0,0.0,0.0,0.0,0.0,0.0,0.0,3.9305,4.9647,5.7162,5.7162,5.704,5.6958,5.688,5.6711,5.4827,5.0668,5.0553,0.0,0.0,0.0,0.0,0.0,0.0,0.0,0.0,0.0,0.0,0.0,0.0,0.0,0.0,0.0,0.0,0.0,0.0,0.0,0.0,0.0,0.0,0.0,0.0,0.0,0.0,0.0,0.0,0.0,0.0,0.0,0.0,0.0,0.0,0.0,0.0,0.0,0.0,0.0,0.0,0.0,0.0,0.0,0.0,0.0,0.0,0.0,0.0,0.0,0.0,0.0,0.0,0.0,0.0,0.0,0.0,0.0,0.0,0.0,3.1074,2.8855,0.0,0.0,0.0,0.0,0.0,0.0,0.0,0.0,0.0,0.0,0.0,0.0,0.0,0.0,0.0,0.0,0.0,0.0,0.0,0.0,0.0,0.0,0.0,0.0,0.0,0.0,0.0,0.0,0.0,0.0,0.0,0.0,0.0,0.0,0.0,0.0,0.0,0.0,0.0,0.0,3.767,4.8961,5.7126,5.7162,5.7081,5.6999,5.688,5.6388,5.29,4.5308,4.8629,0.0,0.0,0.0,0.0,0.0,0.0,0.0,0.0,0.0,0.0,0.0,0.0,0.0,0.0,0.0,0.0,0.0,0.0,0.0,0.0,0.0,0.0,0.0,0.0,0.0,0.0,0.0,0.0,0.0,0.0,0.0,0.0,0.0,0.0,0.0,0.0,0.0,0.0,0.0,0.0,0.0,0.0,0.0,0.0,0.0,0.0,0.0,0.0,0.0,0.0,0.0,0.0,0.0,0.0,0.0,0.0,0.0,0.0,0.0,0.0,0.0,0.0,0.0,0.0,0.0,0.0,0.0,0.0,0.0,0.0,0.0,0.0,0.0,0.0,0.0,0.0,0.0,0.0,0.0,0.0,0.0,0.0,0.0,0.0,0.0,0.0,0.0,0.0,0.0,0.0,0.0,0.0,0.0,0.0,0.0,0.0,0.0,0.0,0.0,0.0,0.0,3.6004,4.8213,5.7014,5.7126,5.7122,5.7004,5.6796,5.5467,5.1793,4.513,0.0,0.0,0.0,0.0,0.0,0.0,0.0,0.0,0.0,0.0,0.0,0.0,0.0,0.0,0.0,0.0,0.0,0.0,0.0,0.0,0.0,0.0,0.0,0.0,0.0,0.0,0.0,0.0,0.0,0.0,0.0,0.0,0.0,0.0,0.0,0.0,0.0,0.0,0.0,0.0,0.0,0.0,0.0,0.0,0.0,0.0,0.0,0.0,0.0,0.0,0.0,0.0,0.0,0.0,0.0,0.0,0.0,0.0,0.0,0.0,0.0,0.0,0.0,0.0,0.0,0.0,0.0,0.0,0.0,0.0,0.0,0.0,0.0,0.0,0.0,0.0,0.0,0.0,0.0,0.0,0.0,0.0,0.0,0.0,0.0,0.0,0.0,0.0,0.0,0.0,0.0,0.0,0.0,0.0,0.0,0.0,0.0,0.0,0.0,0.0,0.0,0.0,3.554,4.7269,5.5959,5.7014,5.7162,5.6725,5.5598,5.4825,4.9287,3.7169,0.0,0.0,0.0,0.0,0.0,0.0,0.0,0.0,0.0,0.0,0.0,0.0,0.0,0.0,0.0,0.0,0.0,0.0,0.0,0.0,0.0,0.0,0.0,0.0,0.0,0.0,0.0,0.0,0.0,0.0,0.0,0.0,0.0,0.0,0.0,0.0,0.0,0.0,0.0,0.0,0.0,0.0,0.0,0.0,0.0,0.0,0.0,0.0,0.0,0.0,0.0,0.0,0.0,0.0,0.0,0.0,0.0,0.0,0.0,0.0,0.0,0.0,0.0,0.0,0.0,0.0,0.0,0.0,0.0,0.0,0.0,0.0,0.0,0.0,0.0,0.0,0.0,0.0,0.0,0.0,0.0,0.0,0.0,0.0,0.0,0.0,0.0,0.0,0.0,0.0,0.0,0.0,0.0,0.0,0.0,0.0,0.0,0.0,0.0,0.0,0.0,0.0,3.4706,4.6416,5.523,5.6941,5.6693,5.5894,5.4661,5.3175,4.6342,3.2343,0.0,0.0,0.0,0.0,0.0,0.0,0.0,0.0,0.0,0.0,0.0,0.0,0.0,0.0,0.0,0.0,0.0,0.0,0.0,0.0,0.0,0.0,0.0,0.0,0.0,0.0,0.0,0.0,0.0,0.0,0.0,0.0,0.0,0.0,0.0,0.0,0.0,0.0,0.0,0.0,0.0,0.0,0.0,0.0,0.0,0.0,0.0,0.0,0.0,0.0,0.0,0.0,0.0,0.0,0.0,0.0,0.0,0.0,0.0,0.0,0.0,0.0,0.0,0.0,0.0,0.0,0.0,0.0,0.0,0.0,0.0,0.0,0.0,0.0,0.0,0.0,0.0,0.0,0.0,0.0,0.0,0.0,0.0,0.0,0.0,0.0,0.0,0.0,0.0,0.0,0.0,0.0,0.0,0.0,0.0,0.0,0.0,0.0,0.0,0.0,0.0,0.0,3.3239,4.5678,5.5122,5.6941,5.5645,5.4556,5.4425,5.0042,4.3188,0.0,0.0,0.0,0.0,0.0,0.0,0.0,0.0,0.0,0.0,0.0,0.0,0.0,0.0,0.0,0.0,0.0,0.0,0.0,0.0,0.0,0.0,0.0,0.0,0.0,0.0,0.0,0.0,0.0,0.0,0.0,0.0,0.0,0.0,0.0,0.0,0.0,0.0,0.0,0.0,0.0,0.0,0.0,0.0,0.0,0.0,0.0,0.0,0.0,0.0,0.0,0.0,0.0,0.0,0.0,0.0,0.0,0.0,0.0,0.0,0.0,0.0,0.0,0.0,0.0,0.0,0.0,0.0,0.0,0.0,0.0,0.0,0.0,0.0,0.0,0.0,0.0,0.0,0.0,0.0,0.0,0.0,0.0,0.0,0.0,0.0,0.0,0.0,0.0,0.0,0.0,0.0,0.0,0.0,0.0,0.0,0.0,0.0,0.0,0.0,0.0,0.0,0.0,3.1461,3.9246,4.6981,5.316,5.3383,5.2527,5.1309,4.9757,4.3393,3.0611,0.0,0.0,0.0,0.0,0.0,0.0,0.0,0.0,0.0,0.0,0.0,0.0,0.0,0.0,0.0,0.0,0.0,0.0,0.0,0.0,0.0,0.0,0.0,0.0,0.0,0.0,0.0,0.0,0.0,0.0,0.0,0.0,0.0,0.0,0.0,0.0,0.0,0.0,0.0,0.0,0.0,0.0,0.0,0.0,0.0,0.0,0.0,0.0,0.0,0.0,0.0,0.0,0.0,0.0,0.0,0.0,0.0,0.0,0.0,0.0,0.0,0.0,0.0,0.0,0.0,0.0,0.0,0.0,0.0,0.0,0.0,0.0,0.0,0.0,0.0,0.0,0.0,0.0,0.0,0.0,0.0,0.0,0.0,0.0,0.0,0.0,0.0,0.0,0.0,0.0,0.0,0.0,0.0,0.0,0.0,0.0,0.0,0.0,0.0,0.0,0.0,0.0,0.0,3.8331,4.5872,5.1665,5.1773,5.0982,4.9863,4.8534,4.2781,3.0897,0.0,0.0,0.0,0.0,0.0,0.0,0.0,0.0,0.0,0.0,0.0,0.0,0.0,0.0,0.0,0.0,0.0,0.0,0.0,0.0,0.0,0.0,0.0,0.0,0.0,0.0,0.0,0.0,0.0,0.0,0.0,0.0,0.0,0.0,0.0,0.0,0.0,0.0,0.0,0.0,0.0,0.0,0.0,0.0,0.0,0.0,0.0,0.0,0.0,0.0,0.0,0.0,0.0,0.0,0.0,0.0,0.0,0.0,0.0,0.0,0.0,0.0,0.0,0.0,0.0,0.0,0.0,0.0,0.0,0.0,0.0,0.0,0.0,0.0,0.0,0.0,0.0,0.0,0.0,0.0,0.0,0.0,0.0,0.0,0.0,0.0,0.0,0.0,0.0,0.0,0.0,0.0,0.0,0.0,0.0,0.0,0.0,0.0,0.0,0.0,0.0,0.0,0.0,4.1464,4.9528,5.1728,5.0645,4.9752,4.9612,4.6809,4.1569,3.337,2.8536,0.0,0.0,0.0,0.0,0.0,0.0,0.0,0.0,0.0,0.0,0.0,0.0,0.0,0.0,0.0,0.0,0.0,0.0,0.0,0.0,0.0,0.0,0.0,0.0,0.0,0.0,0.0,0.0,0.0,0.0,0.0,0.0,0.0,0.0,0.0,0.0,0.0,0.0,0.0,0.0,0.0,0.0,0.0,0.0,0.0,0.0,0.0,0.0,0.0,0.0,0.0,0.0,0.0,0.0,0.0,0.0,0.0,0.0,0.0,0.0,0.0,0.0,0.0,0.0,0.0,0.0,0.0,0.0,0.0,0.0,0.0,0.0,0.0,0.0,0.0,0.0,0.0,0.0,0.0,0.0,0.0,0.0,0.0,0.0,0.0,0.0,0.0,0.0,0.0,0.0,0.0,0.0,0.0,0.0,0.0,0.0,0.0,0.0,0.0,0.0,0.0,0.0,3.7797,4.2488,4.7982,4.8341,4.8093,4.7846,4.7133,4.2233,3.1792,2.8924,0.0,0.0,0.0,0.0,0.0,0.0,0.0,0.0,0.0,0.0,0.0,0.0,0.0,0.0,0.0,0.0,0.0,0.0,0.0,0.0,0.0,0.0,0.0,0.0,0.0,0.0,0.0,0.0,0.0,0.0,0.0,0.0,0.0,0.0,0.0,0.0,0.0,0.0,0.0,0.0,0.0,0.0,0.0,0.0,0.0,0.0,0.0,0.0,0.0,0.0,0.0,0.0,0.0,0.0,0.0,0.0,0.0,0.0,0.0,0.0,0.0,0.0,0.0,0.0,0.0,0.0,0.0,0.0,0.0,0.0,0.0,0.0,0.0,0.0,0.0,0.0,0.0,0.0,0.0,0.0,0.0,0.0,0.0,0.0,0.0,0.0,0.0,0.0,0.0,0.0,0.0,0.0,0.0,0.0,0.0,0.0,0.0,0.0,0.0,0.0,0.0,0.0,3.3263,3.6867,4.6443,4.7551,4.7551,4.7337,4.7277,4.2764,3.2342,2.9512,0.0,0.0,0.0,0.0,0.0,0.0,0.0,0.0,0.0,0.0,0.0,0.0,0.0,0.0,0.0,0.0,0.0,0.0,0.0,0.0,0.0,0.0,0.0,0.0,0.0,0.0,0.0,0.0,0.0,0.0,0.0,0.0,0.0,0.0,0.0,0.0,0.0,0.0,0.0,0.0,0.0,0.0,0.0,0.0,0.0,0.0,0.0,0.0,0.0,0.0,0.0,0.0,0.0,0.0,0.0,0.0,0.0,0.0,0.0,0.0,0.0,0.0,0.0,0.0,0.0,0.0,0.0,0.0,0.0,0.0,0.0,0.0,0.0,0.0,0.0,0.0,0.0,0.0,0.0,0.0,0.0,0.0,0.0,0.0,0.0,0.0,0.0,0.0,0.0,0.0,0.0,0.0,0.0,0.0,0.0,0.0,0.0,0.0,0.0,0.0,0.0,0.0,0.0,3.378,4.4769,4.6945,4.7587,4.7409,4.7313,4.3093,3.328,0.0,0.0,0.0,0.0,0.0,0.0,0.0,0.0,0.0,0.0,0.0,0.0,0.0,0.0,0.0,0.0,0.0,0.0,0.0,0.0,0.0,0.0,0.0,0.0,0.0,0.0,0.0,0.0,0.0,0.0,0.0,0.0,0.0,0.0,0.0,0.0,0.0,0.0,0.0,0.0,0.0,0.0,0.0,0.0,0.0,0.0,0.0,0.0,0.0,0.0,0.0,0.0,0.0,0.0,0.0,0.0,0.0,0.0,0.0,0.0,0.0,0.0,0.0,0.0,0.0,0.0,0.0,0.0,0.0,0.0,0.0,0.0,0.0,0.0,0.0,0.0,0.0,0.0,0.0,0.0,0.0,0.0,0.0,0.0,0.0,0.0,0.0,0.0,0.0,0.0,0.0,0.0,0.0,0.0,0.0,0.0,0.0,0.0,0.0,0.0,0.0,0.0,0.0,0.0,3.6886,3.9004,4.4238,4.7551,4.7301,4.7277,4.256,3.1634,0.0,0.0,0.0,0.0,0.0,0.0,0.0,0.0,0.0,0.0,0.0,0.0,0.0,0.0]}],[{"header":{"parameterUnit":"kt","parameterCategory":2,"dx":1,"dy":1,"la1":29.285339999999998,"la2":30.599998999999997,"lo1":-89.70041500000002,"lo2":-87.6738589999976,"nx":112,"ny":82,"refTime":"2022-10-30T06:00:00:Z","depth":0,"parameterNumber":2,"parameterNumberName":"V-component_of_WINDS"},"data":[2.9536,2.9836,2.9113,2.1913,2.0977,1.9485,1.0533,0.9423,1.1288,1.4943,1.363,1.256,1.4943,1.1909,0.949,1.0771,0.8358,0.5794,0.0,0.457,0.0,0.0,0.0,0.0,0.0,0.0,0.8476,1.154,1.154,1.279,1.5992,1.705,1.8296,1.9672,2.0244,2.0529,2.027,1.9956,1.9513,1.9041,1.847,1.7876,1.7293,1.8595,1.9188,1.9165,2.0808,2.1461,2.1402,2.1799,2.2186,2.2549,2.2941,2.2956,2.2107,1.8038,1.6555,1.6555,1.6471,1.5399,1.3932,1.3924,1.395,1.3705,1.2742,1.248,1.2496,1.2401,1.2409,1.2409,1.2432,1.2448,1.2464,1.2464,1.2472,1.248,1.248,1.248,1.248,1.248,1.248,1.248,1.248,1.248,1.248,1.2503,1.2503,1.2383,1.2398,1.2398,1.2406,1.2414,1.0036,0.7805,0.6368,0.6246,0.6254,0.6262,0.6262,0.6266,0.627,0.627,0.627,0.627,0.627,0.627,0.627,0.627,0.627,0.627,0.627,0.5225,2.3294,2.3227,2.3422,1.8207,1.8413,1.7628,0.8697,0.802,0.963,1.0924,1.0854,1.0545,1.0553,0.9337,0.8423,0.8633,0.7158,0.5515,0.0,0.0,0.0,0.0,0.0,0.0,0.0,0.0,0.9756,1.2259,1.186,1.3076,1.666,1.745,1.8247,1.9453,1.9968,2.0036,1.9777,1.9789,1.9205,1.8425,1.787,1.7084,1.6143,1.7029,1.7316,1.7367,1.8844,1.9484,1.949,1.9958,2.0065,1.9986,2.0367,2.0503,2.0121,1.7538,1.6555,1.6429,1.5428,1.3977,1.2401,1.2401,1.2424,1.2448,1.2448,1.2464,1.248,1.248,1.248,1.248,1.248,1.248,1.248,1.248,1.248,1.248,1.248,1.248,1.248,1.248,1.248,1.248,1.248,1.2495,1.2383,1.2398,1.1196,1.0403,1.0288,1.0288,1.0294,1.0307,0.782,0.6254,0.6258,0.6266,0.627,0.627,0.627,0.627,0.627,0.627,0.627,0.627,0.6274,0.6278,0.6278,0.6278,0.6278,0.6148,0.5225,0.3918,1.4949,1.513,1.6198,1.2437,1.0768,0.9614,0.7976,0.7953,0.8274,0.8274,0.9077,0.9692,0.9437,0.8984,0.8283,0.7135,0.6801,0.0,0.0,0.5122,0.0,0.0,0.0,0.8708,1.1204,0.9667,0.9852,1.3101,1.1634,1.2786,1.758,1.7686,1.8351,1.9973,1.9653,1.9406,1.9406,1.917,1.8769,1.8215,1.7338,1.6505,1.568,1.5147,1.4816,1.4641,1.5129,1.5629,1.6255,1.7315,1.7338,1.6555,1.6555,1.6555,1.6555,1.6419,1.6429,1.6041,1.3366,1.248,1.248,1.248,1.248,1.248,1.248,1.248,1.248,1.248,1.248,1.248,1.248,1.248,1.248,1.248,1.248,1.248,1.248,1.248,1.248,1.248,1.248,1.248,1.248,1.2383,1.2293,1.2293,0.8833,0.6215,0.6215,0.6215,0.6223,0.625,0.6254,0.6258,0.627,0.627,0.627,0.627,0.627,0.627,0.627,0.627,0.614,0.614,0.6156,0.6029,0.6029,0.6029,0.6029,0.6029,0.3399,0.2091,1.3647,1.5349,1.6352,1.2661,1.2552,1.2332,0.8705,0.7099,0.6411,0.6492,0.6829,0.0,0.0,0.0,0.637,0.5935,0.0,0.7507,0.5971,0.909,1.094,0.9553,1.0214,1.1839,1.4424,1.3125,1.3237,1.5823,1.4426,1.4699,1.7495,1.8313,1.8913,1.927,1.9418,1.9282,1.917,1.9058,1.8769,1.8215,1.7119,1.628,1.568,1.5052,1.4608,1.4641,1.5129,1.5506,1.575,1.6473,1.663,1.6555,1.6555,1.6555,1.6293,1.4258,1.3621,1.3494,1.2736,1.248,1.248,1.248,1.248,1.248,1.248,1.248,1.248,1.248,1.248,1.248,1.248,1.248,1.248,1.248,1.248,1.248,1.248,1.248,1.248,1.248,1.2495,1.2503,1.2503,0.9869,0.7919,0.7944,0.6899,0.6246,0.6266,0.627,0.627,0.6278,0.6282,0.6282,0.6156,0.6156,0.6156,0.6156,0.6156,0.6156,0.6156,0.6156,0.5235,0.3266,0.3268,0.3268,0.3268,0.3268,0.3268,0.3268,0.2483,0.2091,1.2198,1.3175,1.3735,1.0811,1.118,1.1329,0.772,0.6497,0.6038,0.5806,0.0,0.0,0.0,0.0,0.0,0.0,0.7565,0.8661,0.7141,1.0362,1.2387,1.1036,1.2505,1.4006,1.4848,1.4326,1.456,1.6413,1.561,1.5881,1.7987,1.8616,1.9106,1.9158,1.8525,1.84,1.8809,1.8287,1.8125,1.831,1.7223,1.6383,1.5852,1.493,1.441,1.4316,1.4588,1.487,1.5107,1.5402,1.5776,1.6035,1.5029,1.4925,1.5146,1.3111,1.248,1.248,1.248,1.248,1.248,1.248,1.248,1.248,1.248,1.248,1.248,1.248,1.248,1.248,1.248,1.248,1.248,1.248,1.248,1.248,1.2495,1.2495,1.2495,1.2383,1.2398,1.1876,1.0159,0.7805,0.625,0.6266,0.5218,0.4567,0.4448,0.4448,0.4448,0.4448,0.4448,0.4448,0.4448,0.4448,0.4448,0.4448,0.4448,0.4448,0.4448,0.4448,0.3793,0.2221,0.2091,0.2091,0.2091,0.2091,0.1176,-0.0522,-0.0522,-0.0522,1.0649,0.9925,0.9914,0.8183,0.8371,0.848,0.6466,0.0,0.7,0.6868,0.0,0.7012,0.6348,0.0,0.0,0.6737,0.8985,1.0424,0.9095,1.078,1.1911,1.1328,1.4123,1.5612,1.4082,1.4305,1.487,1.5594,1.5659,1.6547,1.8487,1.8725,1.8927,1.9393,1.7641,1.7277,1.8174,1.7015,1.7015,1.8163,1.7011,1.6405,1.6029,1.4955,1.419,1.3772,1.3772,1.4044,1.4373,1.4263,1.4706,1.5267,1.2802,1.2474,1.3273,1.2448,1.2216,1.248,1.248,1.248,1.248,1.2488,1.248,1.248,1.248,1.248,1.248,1.248,1.248,1.248,1.248,1.248,1.248,1.2488,1.2488,1.2495,1.2391,1.2126,1.1732,1.1754,1.1762,1.0443,0.6384,0.5749,0.5764,0.5764,0.3662,0.2091,0.2091,0.2091,0.2091,0.2091,0.2091,0.2091,0.2091,0.2091,0.2091,0.2091,0.2091,0.2091,0.2091,0.2091,0.2091,0.2091,0.2091,0.2091,0.2091,0.2091,-0.0131,-0.4315,-0.4315,-0.4315,0.8659,0.8756,0.9297,0.8799,0.8451,0.841,0.0,0.0,0.0,1.3315,1.3654,1.2576,1.0299,0.9739,1.0498,1.305,1.4582,1.5024,1.3713,1.587,1.7453,1.7132,1.7286,1.7046,1.5871,1.6244,1.6097,1.5186,1.6217,1.6863,1.7067,1.8467,1.9184,1.917,1.8424,1.7663,1.689,1.6377,1.6136,1.6377,1.4968,1.4776,1.5811,1.4514,1.3876,1.3772,1.3772,1.4044,1.4373,1.3459,1.3832,1.4678,1.1944,1.094,1.0728,1.0157,1.1046,1.248,1.248,1.248,1.2488,1.2398,1.2383,1.248,1.248,1.248,1.248,1.248,1.248,1.248,1.248,1.2495,1.2383,1.2406,1.2414,1.2422,1.2445,0.9778,0.7403,0.7407,0.7417,0.6514,0.3392,0.2874,0.2876,0.2876,0.2483,0.2091,0.2091,0.2091,0.2091,0.2091,0.2091,0.2091,0.2091,0.2091,0.2091,0.2091,0.2091,0.2091,0.2091,0.2091,0.2091,0.2091,0.2091,0.2091,0.2091,0.2091,-0.013,-0.4307,-0.4307,-0.4307,0.7772,0.8025,0.8188,0.7457,0.7337,0.0,0.0,0.8017,0.8858,1.314,1.4338,1.4358,1.3292,1.2929,1.3297,1.4895,1.6661,1.796,1.8313,1.8461,1.8383,1.8227,1.7029,1.6134,1.5834,1.4944,1.4366,1.4169,1.5142,1.5667,1.5681,1.6616,1.7391,1.7777,1.6775,1.6136,1.599,1.5108,1.4728,1.4592,1.341,1.3021,1.3592,1.2545,1.1954,1.1848,1.2596,1.2837,1.2823,1.2912,1.2552,1.1847,0.9908,0.9325,0.9512,0.828,0.9108,1.0782,0.963,0.9354,0.933,0.9354,1.0681,1.2406,1.2406,1.2406,1.2406,1.2391,1.2391,1.2391,1.2391,1.2406,1.1891,0.9771,0.8317,0.7666,0.9007,0.6635,0.4155,0.4166,0.4171,0.3783,0.2352,0.2091,0.2091,0.2091,0.2091,0.2091,0.2091,0.2091,0.2091,0.2091,0.2091,0.2091,0.2091,0.2091,0.2091,0.2091,0.2091,0.2091,0.2091,0.2091,0.2091,0.2091,0.0,-0.1045,-0.1045,-0.1044,-0.2216,-0.4304,-0.5746,-0.6274,0.7019,0.732,0.7165,0.618,0.6319,0.0,0.7486,0.763,0.8594,1.1856,1.4302,1.596,1.6258,1.6339,1.6325,1.634,1.8062,1.9993,2.1677,1.9727,1.8142,1.792,1.6178,1.4958,1.5059,1.3132,1.2115,1.2923,1.3334,1.3812,1.4195,1.4619,1.5224,1.6116,1.4611,1.4104,1.4592,1.3451,1.2823,1.2687,1.1722,1.1156,1.1266,1.0468,1.0045,0.9931,1.1108,1.1328,1.101,1.1752,1.0585,0.8464,0.7387,0.7662,0.8462,0.6786,0.7301,0.8457,0.6786,0.6246,0.6211,0.6219,0.8193,1.0456,1.0456,1.0456,1.0585,1.1095,1.1224,1.1224,1.1224,1.1245,1.0197,0.6372,0.3761,0.2725,0.4948,0.3643,0.2082,0.2089,0.2091,0.2091,0.2091,0.2091,0.2091,0.2091,0.2091,0.2091,0.2091,0.2091,0.2091,0.2091,0.2091,0.2091,0.2091,0.2091,0.2091,0.2091,0.2091,0.2091,0.2091,0.1306,0.0914,0.0914,-0.2483,-0.4315,-0.4315,-0.4831,-0.5088,-0.5088,-0.7324,-0.838,0.5608,0.6459,0.676,0.6984,0.6655,0.0,1.1066,1.2053,1.2673,1.4591,1.8252,2.0877,1.9989,1.9831,2.0208,2.119,2.0976,2.082,2.1556,2.0214,1.9118,1.8588,1.7073,1.5575,1.4075,1.3037,1.2136,1.1504,1.1364,1.1817,1.3096,1.3978,1.4438,1.4574,1.3832,1.2831,1.1424,1.0904,1.0519,1.0268,0.9196,0.9409,1.0563,0.9919,0.9626,0.9626,0.9732,0.9732,0.9626,0.8757,0.7283,0.5615,0.5033,0.5489,0.653,0.627,0.64,0.653,0.627,0.6246,0.6215,0.6238,0.4933,0.3237,0.3237,0.3237,0.3757,0.6231,0.6886,0.6886,0.6886,0.6894,0.6121,0.3254,0.2346,0.222,0.2481,0.2351,0.2089,0.2091,0.2091,0.2091,0.2091,0.2091,0.2091,0.2091,0.2091,0.2091,0.2091,0.2091,0.2091,0.2091,0.2091,0.2091,0.2091,0.2091,0.2091,0.2091,0.2091,0.2091,0.2091,-0.1567,-0.3531,-0.3531,-0.4046,-0.4304,-0.4304,-0.6669,-0.785,-0.7964,-0.8229,-0.8364,0.3997,0.4775,0.5026,0.5476,0.0,0.0,0.9523,1.1145,1.328,1.7182,1.9029,2.0585,2.2422,2.17,2.1209,2.2286,2.1515,2.0665,2.0161,1.9592,1.8789,1.7674,1.6678,1.5451,1.3981,1.2721,1.1608,1.0766,1.03,1.0254,1.0672,1.1117,1.1666,1.2034,1.1786,1.1025,1.0011,0.9875,0.936,0.8462,0.7632,0.7536,0.7979,0.7518,0.7179,0.684,0.8013,0.812,0.7374,0.6183,0.5002,0.3932,0.3887,0.3771,0.3808,0.5611,0.627,0.627,0.627,0.5212,0.3896,0.3781,0.3127,0.2082,0.2082,0.2082,0.2733,0.5478,0.5085,0.3778,0.3778,0.3781,0.3522,0.2349,0.2089,0.2091,0.2091,0.2091,0.2091,0.2091,0.2091,0.2091,0.2091,0.2091,0.2091,0.2091,0.2091,0.2091,0.2091,0.2091,0.2091,0.2091,0.2091,0.2091,0.2091,0.2091,0.2091,0.2091,-0.0261,-0.1568,-0.1568,-0.3264,-0.4309,-0.4309,-0.4304,-0.5088,-0.6669,-0.7845,-0.837,-0.8359,-0.8359,-0.8359,0.3238,0.0,0.0,0.0,0.0,0.0,0.931,1.1541,1.4344,1.8652,1.9551,2.0375,2.2859,2.2196,2.1427,2.2213,2.1329,2.0122,1.8789,1.8486,1.7763,1.6242,1.5647,1.4816,1.3027,1.2072,1.1102,0.9985,0.9618,0.919,0.8956,0.9155,0.9378,0.9618,0.936,0.8973,0.8327,0.8193,0.768,0.6782,0.6344,0.6167,0.6096,0.5679,0.5165,0.4789,0.6183,0.6183,0.5002,0.4137,0.3488,0.2946,0.2941,0.2504,0.1985,0.4226,0.5089,0.5094,0.5094,0.3785,0.2087,0.2089,0.2091,0.2091,0.2091,0.2091,0.2613,0.4579,0.3662,0.2091,0.2091,0.2091,0.2091,0.2091,0.2091,0.2091,0.2091,0.2091,0.2091,0.2091,0.2091,0.2091,0.2091,0.2091,0.2091,0.2091,0.2091,0.2091,0.2091,0.2091,0.2091,0.2091,0.1045,0.0392,0.0392,0.0392,0.0392,0.0391,-0.2612,-0.4312,-0.4312,-0.4307,-0.4697,-0.5352,-0.5348,-0.6396,-0.838,-0.8364,-0.8359,-0.8359,-0.8359,-0.8359,0.0,0.0,0.0,0.6278,0.5646,0.6371,1.2599,1.5511,1.727,1.846,2.0375,2.1624,2.0735,2.0949,2.123,2.123,2.062,1.9622,1.7817,1.7088,1.6139,1.4481,1.4273,1.3217,1.0683,1.0774,1.0559,0.9036,0.8953,0.8968,0.8967,0.899,0.8608,0.783,0.6921,0.627,0.5876,0.5218,0.4958,0.5352,0.5209,0.5306,0.5853,0.5102,0.4606,0.4246,0.4351,0.3703,0.2617,0.2619,0.2728,0.2837,0.2072,0.1745,0.1745,0.1861,0.2016,0.2221,0.2221,0.2221,0.2091,0.2091,0.2091,0.2091,0.2091,0.2091,0.2091,0.2221,0.2221,0.2091,0.2091,0.2091,0.2091,0.2091,0.2091,0.2091,0.2091,0.2091,0.2091,0.2091,0.2091,0.2091,0.2091,0.2091,0.2091,0.2091,0.2091,0.2091,0.2091,0.2091,0.2091,0.2091,-0.1568,-0.4056,-0.4056,-0.4056,-0.4051,-0.4044,-0.4174,-0.4304,-0.4304,-0.4304,-0.5485,-0.8125,-0.824,-0.8229,-0.8359,-0.8359,-0.8359,-0.8359,-0.8359,-0.8359,0.2229,0.3348,0.4231,0.5092,0.7583,1.0762,1.4258,1.5606,1.6112,1.6071,1.7459,1.8918,1.9522,2.0604,2.1099,2.0421,2.0122,1.9005,1.6447,1.646,1.5726,1.3112,1.2902,1.2491,1.1175,0.9926,0.876,0.7759,0.7628,0.7476,0.7167,0.7176,0.7306,0.7565,0.653,0.5485,0.4312,0.4315,0.4576,0.4967,0.4665,0.4528,0.4549,0.4266,0.3785,0.3159,0.3591,0.3048,0.2072,0.2399,0.2399,0.2072,0.1854,0.1745,0.1745,0.1745,0.1794,0.186,0.186,0.1962,0.2091,0.2091,0.2091,0.2091,0.2091,0.2091,0.2091,0.2091,0.2091,0.2091,0.2091,0.2091,0.2091,0.2091,0.2091,0.2091,0.2091,0.2091,0.2091,0.2091,0.2091,0.2091,0.2091,0.2091,0.2091,0.2091,0.2091,0.2091,0.2091,-0.0392,-0.2091,-0.2091,-0.3401,-0.4315,-0.4309,-0.4307,-0.4307,-0.4304,-0.601,-0.6934,-0.6934,-0.7055,-0.744,-0.837,-0.8364,-0.8359,-0.8359,-0.8359,-0.8348,-0.8327,-0.8327,-0.8317,0.1562,0.4388,0.7532,0.9227,1.2163,1.483,1.5353,1.608,1.6463,1.5735,1.6595,1.7817,1.9221,2.0191,2.0489,1.9507,1.9507,1.8587,1.5611,1.5404,1.447,1.1761,1.177,1.1521,0.9962,0.8066,0.6561,0.5822,0.5242,0.4602,0.4169,0.4174,0.4431,0.4689,0.4041,0.3262,0.2221,0.3139,0.3795,0.4318,0.3396,0.3169,0.3354,0.2513,0.1968,0.1636,0.1414,0.1087,0.0763,0.109,0.1417,0.1745,0.1745,0.1745,0.1748,0.1775,0.1769,0.1757,0.1842,0.1968,0.2091,0.2091,0.2091,0.2091,0.2091,0.2091,0.2091,0.2091,0.2091,0.2091,0.2091,0.2091,0.2091,0.2091,0.2091,0.2091,0.2091,0.2091,0.2091,0.2091,0.2091,0.2091,0.2091,0.2091,0.1568,0.0131,-0.0131,-0.0131,-0.0131,-0.2613,-0.4318,-0.4318,-0.4315,-0.4309,-0.4304,-0.5221,-0.5746,-0.5742,-0.745,-0.8375,-0.8375,-0.8364,-0.8359,-0.8359,-0.8359,-0.8359,-0.8359,-0.8348,-0.8327,-0.8435,-0.9882,-1.0532,0.1998,0.779,1.4606,1.7699,1.8385,1.7878,1.5969,1.7178,1.8385,1.7319,1.7511,1.8311,1.9522,1.9792,1.9563,1.889,1.899,1.8155,1.5186,1.3939,1.2472,1.0175,1.0435,0.9707,0.6621,0.5036,0.3856,0.3109,0.1533,0.0519,0.026,0.039,0.026,-0.013,-0.013,-0.013,-0.0131,0.1178,0.2226,0.3137,0.1304,0.1013,0.228,-0.0,-0.0811,-0.0437,-0.1959,-0.2067,-0.1199,-0.1199,-0.0109,0.1635,0.1635,0.1636,0.1643,0.1598,0.1584,0.1671,0.2007,0.2088,0.2091,0.2091,0.2091,0.2091,0.2091,0.2091,0.2091,0.2091,0.2091,0.2091,0.2091,0.2091,0.2091,0.2091,0.2091,0.2091,0.2091,0.2091,0.2091,0.2091,0.2091,0.2091,0.183,0.183,0.0392,-0.3662,-0.4318,-0.4318,-0.4318,-0.4318,-0.4318,-0.4318,-0.4309,-0.4304,-0.4434,-0.6929,-0.838,-0.8359,-0.8359,-0.8359,-0.8359,-0.8359,-0.8359,-0.8359,-0.8359,-0.8359,-0.8354,-0.8322,-0.8435,-0.8827,-1.2792,-1.4549,0.4304,1.0977,1.7005,1.5389,1.5001,1.5519,1.7369,1.8284,1.85,1.7803,1.7905,1.8297,1.8601,1.899,1.9277,1.9507,2.0122,1.8674,1.3181,1.214,0.9958,0.4609,0.3629,0.1902,-0.1687,-0.249,-0.3435,-0.5169,-0.433,-0.3634,-0.3364,-0.2334,-0.1559,-0.117,-0.1689,-0.1949,-0.182,-0.2737,-0.2481,-0.1437,-0.1955,-0.1535,-0.0618,-0.181,-0.3277,-0.4629,-0.3849,-0.3046,-0.2174,-0.174,-0.1087,-0.0435,-0.0435,-0.0435,-0.0437,-0.0773,-0.0337,0.0574,0.178,0.2121,0.2096,0.2096,0.2093,0.2091,0.2091,0.2091,0.2091,0.2091,0.2091,0.2091,0.2091,0.2091,0.2091,0.2091,0.2091,0.2091,0.2091,0.2091,0.2091,0.2091,0.2091,0.1176,-0.2091,-0.2613,-0.3007,-0.4056,-0.4318,-0.4318,-0.4318,-0.4318,-0.4315,-0.4307,-0.4304,-0.5088,-0.7181,-0.797,-0.8364,-0.8359,-0.8359,-0.8359,-0.8359,-0.8359,-0.8359,-0.8359,-0.8333,-0.8311,-0.8301,-0.8419,-0.9979,-1.3008,-1.4074,-1.4585,0.5404,1.1441,1.6344,1.4284,1.3772,1.4388,1.6665,1.8486,1.9507,1.8399,1.8297,1.8196,1.8095,1.8399,1.7212,1.2662,1.2346,1.0364,0.4229,0.3461,0.2424,-0.0743,-0.1544,-0.351,-0.7697,-0.9035,-0.9708,-1.0185,-0.9713,-0.9027,-0.8125,-0.7607,-0.6713,-0.544,-0.5702,-0.5709,-0.5072,-0.5998,-0.5612,-0.4182,-0.4176,-0.3725,-0.2874,-0.3875,-0.5485,-0.7367,-0.6102,-0.5289,-0.5001,-0.4444,-0.3522,-0.2498,-0.2498,-0.25,-0.2508,-0.2659,-0.192,-0.0694,-0.0473,-0.0493,-0.0643,-0.0261,-0.0131,-0.0522,-0.1959,-0.2483,-0.183,0.1308,0.2092,0.2091,0.2091,0.2091,0.2091,0.2091,0.2091,0.1568,-0.0261,-0.0653,-0.0653,-0.0653,-0.0653,-0.1437,-0.3923,-0.4318,-0.4318,-0.4318,-0.4318,-0.4318,-0.4318,-0.4312,-0.4309,-0.4304,-0.5348,-0.6656,-0.8229,-0.8359,-0.8359,-0.8359,-0.8359,-0.8359,-0.8359,-0.8359,-0.8354,-0.8338,-1.0159,-1.1067,-1.1053,-1.1032,-1.2328,-1.4585,-1.4558,-1.453,0.6257,1.0799,1.4286,1.4021,1.3981,1.4295,1.5151,1.8095,2.0207,1.9191,1.8688,1.8399,1.8007,1.7118,1.3241,0.3835,0.0983,-0.1876,-0.7442,-0.7917,-0.7452,-0.6825,-0.67,-0.8333,-1.2466,-1.4461,-1.499,-1.3679,-1.4266,-1.4374,-1.3282,-1.3518,-1.2885,-1.1018,-1.089,-1.0261,-0.9125,-0.8872,-0.7959,-0.6388,-0.6266,-0.5669,-0.4769,-0.6101,-0.7425,-0.8798,-0.8062,-0.783,-0.8077,-0.7614,-0.6255,-0.4568,-0.446,-0.446,-0.4477,-0.4494,-0.3528,-0.2412,-0.3605,-0.4192,-0.4391,-0.3866,-0.3514,-0.3913,-0.7343,-0.8412,-0.7086,-0.0916,0.1439,0.2091,0.2091,0.1699,0.1437,0.196,0.1698,0.0261,-0.3529,-0.4315,-0.4318,-0.4318,-0.4318,-0.4318,-0.4318,-0.4318,-0.4318,-0.4318,-0.4318,-0.4318,-0.4318,-0.4309,-0.4434,-0.4828,-0.6916,-0.8359,-0.8359,-0.8359,-0.8359,-0.8359,-0.8359,-0.8359,-0.8354,-0.8354,-0.8602,-0.9214,-1.2784,-1.4531,-1.4531,-1.4604,-1.4576,-1.4576,-1.4521,-1.462,0.8923,1.2289,1.3191,1.4726,1.5036,1.5151,1.5359,1.6357,1.7952,2.0145,2.0061,1.9277,1.8385,1.1848,0.6003,0.4278,-0.2734,-0.9449,-1.3746,-1.3609,-1.4144,-1.7192,-1.6086,-1.5795,-1.797,-1.749,-1.7619,-1.9121,-1.7811,-1.6918,-1.694,-1.5668,-1.4789,-1.4177,-1.3806,-1.3434,-1.307,-1.1673,-1.0775,-1.0512,-0.9525,-0.7949,-0.5941,-0.7927,-0.8722,-0.8641,-0.8276,-0.8137,-0.8117,-0.7784,-0.7424,-0.6948,-0.6619,-0.6516,-0.6536,-0.6462,-0.626,-0.608,-0.6372,-0.5519,-0.4754,-0.6299,-0.5768,-0.5088,-0.7594,-0.8391,-0.8125,-0.6938,-0.2351,0.2091,0.2091,-0.0522,-0.2221,0.1306,-0.0522,-0.339,-0.4176,-0.4312,-0.4318,-0.4318,-0.4318,-0.4318,-0.4318,-0.4318,-0.4318,-0.4318,-0.4318,-0.4318,-0.4318,-0.4309,-0.5091,-0.7459,-0.8104,-0.8359,-0.8359,-0.8359,-0.8359,-0.8359,-0.8359,-0.8348,-0.8317,-0.8311,-1.0004,-1.34,-1.4202,-1.4576,-1.453,-1.4521,-1.4639,-1.4639,-1.463,-1.462,0.5027,0.9213,1.2381,1.3657,1.4952,1.606,1.6175,1.7369,1.6439,0.9449,0.5219,0.2807,0.3169,-0.1023,-0.6215,-1.1067,-1.5684,-2.0042,-2.4245,-2.3803,-2.2836,-2.2134,-2.0384,-1.9592,-2.0524,-2.0075,-2.0193,-2.1212,-2.0696,-2.018,-2.0045,-1.8949,-1.7822,-1.6576,-1.621,-1.5582,-1.4836,-1.395,-1.3188,-1.2305,-1.1567,-1.0159,-0.8473,-1.0392,-1.0537,-0.9274,-0.9035,-0.8745,-0.8466,-0.8134,-0.7837,-0.7601,-0.7158,-0.7056,-0.7175,-0.7072,-0.7043,-0.7069,-0.7188,-0.6729,-0.6249,-0.7572,-0.729,-0.6657,-0.7939,-0.8375,-0.8375,-0.8385,-0.5883,-0.3001,-0.1565,-0.274,-0.3788,-0.1696,-0.3913,-0.601,-0.4564,-0.4307,-0.4312,-0.4315,-0.4318,-0.4318,-0.4318,-0.4318,-0.4318,-0.4318,-0.4318,-0.4315,-0.4309,-0.4307,-0.5352,-0.811,-0.8364,-0.8359,-0.8359,-0.8359,-0.8359,-0.8359,-0.8343,-0.8327,-0.8306,-1.039,-1.26,-1.4539,-1.4539,-1.4521,-1.462,-1.462,-1.462,-1.462,-1.462,-1.462,0.1425,0.5679,1.0048,1.2488,1.4577,1.5447,1.3001,1.4527,1.2253,-0.2476,-0.9278,-1.223,-1.1358,-1.3497,-1.7931,-2.5756,-2.8706,-3.1092,-3.4216,-3.352,-3.1169,-2.6983,-2.427,-2.2875,-2.2981,-2.2726,-2.2564,-2.2535,-2.2926,-2.2926,-2.2414,-2.1592,-2.049,-1.885,-1.8478,-1.7732,-1.6607,-1.6346,-1.5457,-1.4068,-1.3443,-1.2576,-1.1589,-1.295,-1.2534,-1.0551,-0.9825,-0.9211,-0.8789,-0.8466,-0.8116,-0.7822,-0.7379,-0.7266,-0.7379,-0.7175,-0.7072,-0.7017,-0.7376,-0.7445,-0.7455,-0.7963,-0.8111,-0.8105,-0.8243,-0.8317,-0.8364,-0.8375,-0.838,-0.785,-0.5742,-0.5218,-0.5091,-0.5218,-0.6795,-0.7719,-0.5612,-0.4695,-0.4307,-0.4312,-0.4315,-0.4318,-0.4318,-0.4318,-0.4318,-0.4318,-0.4315,-0.4312,-0.4304,-0.4825,-0.6002,-0.8099,-0.8359,-0.8359,-0.8359,-0.8354,-0.8348,-0.8348,-0.8317,-0.8822,-0.9606,-1.2864,-1.4549,-1.462,-1.462,-1.462,-1.462,-1.462,-1.462,-1.462,-1.462,-1.4611,0.3034,0.4257,0.3758,1.2504,1.4661,1.1556,0.0084,0.0838,0.1158,-0.8719,-1.0819,-1.1446,-1.3155,-1.9299,-2.4867,-2.7142,-3.5166,-4.0791,-3.99,-3.8863,-3.745,-3.5432,-3.0892,-2.7812,-2.7823,-2.5844,-2.4518,-2.4144,-2.4144,-2.4024,-2.3784,-2.2578,-2.1727,-2.1239,-2.0872,-2.0503,-2.0147,-1.8838,-1.7958,-1.7596,-1.621,-1.5466,-1.5098,-1.5224,-1.4438,-1.2599,-1.0423,-0.9384,-0.9046,-0.883,-0.8487,-0.8151,-0.7822,-0.7601,-0.7379,-0.7379,-0.7175,-0.6975,-0.7012,-0.7286,-0.7593,-0.7445,-0.7815,-0.829,-0.8095,-0.8185,-0.8359,-0.8364,-0.8364,-0.8359,-0.8099,-0.7975,-0.7985,-0.797,-0.8229,-0.8229,-0.8094,-0.6002,-0.4304,-0.4304,-0.4312,-0.4318,-0.4318,-0.4318,-0.4318,-0.4318,-0.4309,-0.4304,-0.4304,-0.6392,-0.8099,-0.8359,-0.8359,-0.8359,-0.8359,-0.8333,-0.8311,-0.8311,-0.8419,-1.0101,-1.3792,-1.4394,-1.463,-1.462,-1.462,-1.462,-1.462,-1.462,-1.462,-1.462,-1.4592,-1.4583,-0.5408,0.0414,0.4529,0.3445,0.6946,0.9102,0.2782,-0.7018,-1.7848,-2.8716,-3.1987,-3.2251,-2.9935,-3.2439,-3.4835,-3.4644,-3.7721,-4.0062,-3.9843,-3.897,-3.7922,-3.6486,-3.2958,-3.0438,-2.9897,-2.7495,-2.6145,-2.6615,-2.5792,-2.52,-2.5098,-2.3904,-2.2835,-2.2228,-2.1727,-2.1497,-2.113,-2.0613,-1.9727,-1.8614,-1.7857,-1.7981,-1.8862,-1.7981,-1.6573,-1.4667,-1.2563,-1.1031,-0.9933,-0.9411,-0.8904,-0.8461,-0.7595,-0.7493,-0.7822,-0.7601,-0.7493,-0.7521,-0.7675,-0.7744,-0.7703,-0.7905,-0.8038,-0.8153,-0.8206,-0.8285,-0.8359,-0.8359,-0.8359,-0.8359,-0.8359,-0.8364,-0.837,-0.8364,-0.8359,-0.8359,-0.8359,-0.744,-0.6262,-0.4564,-0.4307,-0.4309,-0.4309,-0.4312,-0.4315,-0.4309,-0.4307,-0.4828,-0.6522,-0.7705,-0.8354,-0.8333,-0.8327,-0.8322,-0.8311,-0.8296,-0.9471,-1.1997,-1.2095,-1.2847,-1.453,-1.4639,-1.462,-1.462,-1.462,-1.462,-1.462,-1.462,-1.4611,-1.4592,-1.4583,-1.5379,-1.1024,-0.5151,-0.0551,-0.2876,0.0392,0.3697,0.1963,-1.3823,-3.0343,-3.8135,-4.2802,-4.4537,-4.1504,-4.036,-3.9876,-4.0137,-3.9485,-3.9191,-3.9938,-3.9208,-3.8154,-3.6803,-3.409,-3.2067,-3.1164,-2.8971,-2.7877,-2.8701,-2.7646,-2.6831,-2.6615,-2.52,-2.4024,-2.3062,-2.2592,-2.2335,-2.2107,-2.2107,-2.1483,-2.0109,-1.9862,-2.0245,-2.1252,-2.0245,-1.8574,-1.6489,-1.4727,-1.2814,-1.0885,-1.0004,-0.9326,-0.8783,-0.7911,-0.7816,-0.8151,-0.7822,-0.7708,-0.7846,-0.8036,-0.8083,-0.8028,-0.8193,-0.8139,-0.8161,-0.8206,-0.8253,-0.8269,-0.8338,-0.8359,-0.8359,-0.8359,-0.8359,-0.8359,-0.8359,-0.8359,-0.8359,-0.8359,-0.8359,-0.7835,-0.5868,-0.5482,-0.5221,-0.4434,-0.4309,-0.4309,-0.4304,-0.4955,-0.6132,-0.8099,-0.8354,-0.8333,-0.8301,-0.9483,-1.0139,-1.0248,-1.0235,-1.1424,-1.4384,-1.4595,-1.4539,-1.462,-1.462,-1.462,-1.462,-1.462,-1.462,-1.462,-1.4611,-1.4602,-1.4574,-1.536,-1.6692,-1.0828,-1.2611,-1.4917,-0.3451,-0.3182,-0.5929,-0.6856,-2.0483,-3.2476,-3.0785,-3.5802,-4.1111,-4.3138,-3.9734,-3.7815,-4.155,-4.0956,-4.0381,-4.1286,-4.0588,-3.9353,-3.7577,-3.4786,-3.2744,-3.2177,-3.0797,-2.9955,-2.9955,-2.9577,-2.9008,-2.8241,-2.6581,-2.5184,-2.4279,-2.3799,-2.3438,-2.3438,-2.3438,-2.3197,-2.2471,-2.2471,-2.235,-2.1971,-2.1619,-2.03,-1.7929,-1.6598,-1.4397,-1.1965,-1.053,-0.9648,-0.9112,-0.8783,-0.8468,-0.8151,-0.8151,-0.8037,-0.7822,-0.7822,-0.816,-0.8429,-0.7954,-0.8103,-0.8513,-0.8135,-0.8005,-0.8058,-0.8296,-0.8359,-0.8359,-0.8359,-0.8359,-0.8359,-0.8359,-0.8359,-0.8359,-0.8359,-0.8359,-0.8359,-0.8359,-0.8375,-0.7459,-0.4697,-0.4304,-0.4304,-0.4304,-0.6522,-0.8359,-0.8359,-0.8327,-0.8301,-0.8408,-1.2118,-1.4549,-1.4549,-1.4494,-1.4585,-1.4585,-1.453,-1.462,-1.462,-1.462,-1.462,-1.462,-1.462,-1.462,-1.462,-1.4592,-1.4574,-1.4583,-1.7184,-1.8494,-1.1807,-0.9973,-1.0333,-1.5517,-1.347,-1.335,-2.537,-3.3961,-3.8876,-3.6995,-3.8271,-3.9487,-3.8558,-3.9186,-3.9996,-4.0377,-4.0433,-4.0571,-4.0971,-4.0904,-4.0108,-3.8284,-3.609,-3.4448,-3.3718,-3.2499,-3.1727,-3.1525,-3.1152,-3.048,-2.9387,-2.8683,-2.7842,-2.688,-2.5759,-2.4963,-2.471,-2.3919,-2.3318,-2.2835,-2.3318,-2.3529,-2.3484,-2.2358,-2.0414,-1.7993,-1.7082,-1.5218,-1.2837,-1.2423,-1.1417,-0.9824,-0.9098,-0.8676,-0.8569,-0.8569,-0.8461,-0.8461,-0.8461,-0.8478,-0.8568,-0.8556,-0.8476,-0.8317,-0.8521,-0.8379,-0.8053,-0.829,-0.8359,-0.8359,-0.8359,-0.8359,-0.8359,-0.8359,-0.8359,-0.8359,-0.8359,-0.8359,-0.8359,-0.8359,-0.8364,-0.8104,-0.7181,-0.7037,-0.7037,-0.7046,-0.7825,-0.8338,-0.8327,-0.8311,-0.9483,-1.2254,-1.3827,-1.4604,-1.4558,-1.4539,-1.4521,-1.4521,-1.463,-1.462,-1.462,-1.462,-1.462,-1.462,-1.4602,-1.4592,-1.4592,-1.6324,-1.7227,-1.731,-1.8095,-1.8482,-1.3913,-1.2778,-1.3659,-2.2875,-2.0448,-1.9485,-3.3605,-3.6918,-3.696,-3.691,-3.7337,-3.7421,-3.6163,-3.8739,-4.085,-4.0412,-4.0885,-4.1257,-4.1058,-4.1047,-4.0301,-3.8485,-3.7169,-3.5927,-3.4727,-3.4127,-3.3675,-3.3108,-3.3045,-3.2499,-3.1171,-3.0705,-2.9992,-2.8743,-2.7611,-2.6914,-2.6664,-2.5405,-2.4828,-2.5034,-2.5184,-2.5041,-2.4388,-2.3172,-2.1134,-1.8426,-1.724,-1.5461,-1.3407,-1.3479,-1.3322,-1.2615,-0.9999,-0.9256,-0.9596,-1.0037,-0.9839,-0.9305,-0.9305,-0.908,-0.8798,-0.8739,-0.8568,-0.8417,-0.8704,-0.8479,-0.8043,-0.8285,-0.8419,-0.8489,-0.939,-0.939,-0.9131,-0.9131,-0.8748,-0.8359,-0.8359,-0.8348,-0.8338,-0.8338,-0.8333,-0.8333,-0.8333,-0.8322,-0.8844,-1.0449,-0.9372,-0.8306,-0.8296,-0.9728,-1.1703,-1.4247,-1.4585,-1.4539,-1.463,-1.462,-1.462,-1.462,-1.462,-1.462,-1.462,-1.462,-1.462,-1.4602,-1.4583,-1.5108,-1.6041,-1.7638,-1.8415,-1.8494,-1.847,-1.8459,-1.6169,-1.8959,-2.2247,-2.5611,-2.4268,-2.4363,-3.2942,-3.1422,-2.8862,-3.1174,-3.29,-3.418,-3.4889,-3.7389,-3.9763,-4.0974,-4.182,-4.2084,-4.1511,-4.1188,-4.0199,-3.8135,-3.7833,-3.7145,-3.5108,-3.5613,-3.5718,-3.4727,-3.5153,-3.4812,-3.3372,-3.2656,-3.1667,-3.0294,-2.9445,-2.9085,-2.9085,-2.7576,-2.746,-2.8857,-2.8072,-2.6636,-2.4889,-2.4261,-2.2263,-1.9238,-1.7073,-1.5346,-1.4136,-1.4143,-1.5359,-1.6698,-1.1913,-1.0408,-1.1128,-1.2128,-1.1628,-1.0471,-1.0471,-0.994,-0.9316,-0.9005,-0.8879,-0.8905,-0.8875,-0.873,-0.8421,-0.8557,-0.8687,-0.9131,-1.106,-1.106,-1.0552,-1.0681,-0.9654,-0.8618,-0.8618,-0.872,-0.8827,-0.8827,-0.8816,-0.8805,-0.8805,-0.8799,-1.012,-1.4008,-1.131,-0.8799,-0.8799,-1.22,-1.4585,-1.4585,-1.453,-1.462,-1.462,-1.462,-1.462,-1.462,-1.462,-1.462,-1.462,-1.462,-1.4611,-1.471,-1.471,-1.5904,-1.8335,-1.8403,-1.8482,-1.8482,-1.8447,-1.8435,-1.1375,-1.384,-1.7628,-2.3166,-2.5886,-2.7751,-2.9722,-2.9214,-2.7112,-2.281,-2.318,-2.4557,-2.5497,-2.7559,-3.137,-3.8208,-4.046,-4.1516,-4.19,-4.2345,-4.1894,-3.9879,-3.9546,-3.8586,-3.6344,-3.7066,-3.7295,-3.6678,-3.7271,-3.7043,-3.565,-3.483,-3.3976,-3.3066,-3.1394,-3.05,-3.05,-2.8875,-2.9313,-3.1636,-2.9255,-2.7812,-2.7318,-2.4909,-2.2688,-2.078,-1.8381,-1.7513,-1.7446,-1.7086,-1.7488,-1.8074,-1.6084,-1.4093,-1.2396,-1.2443,-1.2252,-1.1945,-1.1743,-1.1486,-1.1444,-1.1911,-1.1588,-1.1077,-1.1879,-1.173,-1.1241,-1.0981,-1.1178,-1.1552,-1.2064,-1.1688,-1.1324,-1.1861,-1.1732,-1.1339,-1.081,-1.2005,-1.3065,-1.3065,-1.3065,-1.3057,-1.3057,-1.3153,-1.3409,-1.4402,-1.3699,-1.3128,-1.3128,-1.392,-1.4567,-1.4521,-1.463,-1.462,-1.462,-1.462,-1.462,-1.462,-1.462,-1.462,-1.462,-1.462,-1.4874,-1.5253,-1.5768,-1.6671,-1.7697,-1.8197,-1.8447,-1.8447,-1.8435,-1.8435,-1.1575,-1.4317,-1.7258,-1.9062,-2.0914,-2.2403,-2.292,-2.2378,-2.0793,-1.7325,-1.7845,-1.987,-2.288,-2.4977,-2.8443,-3.5351,-3.8159,-3.9421,-3.9431,-4.1268,-4.2149,-4.0706,-4.0444,-3.9792,-3.8135,-3.8385,-3.8409,-3.7905,-3.8509,-3.8385,-3.7428,-3.6298,-3.538,-3.4768,-3.3066,-3.21,-3.21,-3.1152,-3.1374,-3.2759,-3.0556,-2.893,-2.7969,-2.5729,-2.4007,-2.2734,-2.1805,-2.1788,-2.1986,-1.9365,-1.8381,-1.8595,-1.8028,-1.6691,-1.5048,-1.4552,-1.4498,-1.4621,-1.3968,-1.3146,-1.2517,-1.2849,-1.2693,-1.2345,-1.2886,-1.2958,-1.2887,-1.261,-1.3667,-1.4602,-1.3977,-1.3222,-1.26,-1.2744,-1.2367,-1.1982,-1.1982,-1.2768,-1.3827,-1.4503,-1.4613,-1.4595,-1.4595,-1.4567,-1.4558,-1.4595,-1.4567,-1.4549,-1.4549,-1.4549,-1.453,-1.463,-1.462,-1.462,-1.462,-1.462,-1.462,-1.462,-1.5136,-1.5525,-1.5525,-1.5525,-1.5768,-1.6398,-1.6786,-1.7299,-1.7913,-1.8311,-1.8435,-1.8435,-1.8934,-1.917,-1.3153,-1.6429,-1.8422,-1.5557,-1.4621,-1.4742,-1.5906,-1.4693,-1.3343,-1.3441,-1.4505,-1.6849,-2.1612,-2.3852,-2.6482,-3.1191,-3.3888,-3.5571,-3.6027,-3.9648,-4.193,-4.1119,-4.1246,-4.0945,-4.0179,-3.9868,-3.9599,-3.9156,-3.9403,-3.9304,-3.8784,-3.7326,-3.6275,-3.5755,-3.4385,-3.3586,-3.3586,-3.3196,-3.2983,-3.2836,-3.1551,-2.9896,-2.7958,-2.6562,-2.5486,-2.4846,-2.5448,-2.5674,-2.5186,-2.0576,-1.8702,-1.8644,-1.8584,-1.8116,-1.7527,-1.6999,-1.7159,-1.7524,-1.6473,-1.4973,-1.3547,-1.3606,-1.3586,-1.3436,-1.3504,-1.3919,-1.427,-1.4336,-1.584,-1.7277,-1.6146,-1.5136,-1.4258,-1.3613,-1.272,-1.2223,-1.2632,-1.2728,-1.3094,-1.4303,-1.453,-1.462,-1.462,-1.462,-1.462,-1.462,-1.462,-1.462,-1.462,-1.462,-1.462,-1.462,-1.462,-1.462,-1.462,-1.4611,-1.462,-1.4747,-1.5904,-1.6419,-1.6419,-1.6429,-1.6796,-1.7527,-1.7527,-1.7788,-1.8435,-1.8435,-1.856,-1.8685,-1.9666,-2.0147,-1.0512,-1.4057,-1.7509,-1.6994,-1.5679,-1.4592,-1.4671,-1.2369,-1.0168,-1.0104,-1.0258,-1.1066,-1.3098,-1.5199,-1.8085,-2.2555,-2.4799,-2.8192,-3.4615,-3.9532,-4.2359,-4.2014,-4.2922,-4.3194,-4.2255,-4.1938,-4.1991,-4.2058,-4.1334,-4.0667,-4.0134,-3.826,-3.6837,-3.6275,-3.4599,-3.3586,-3.3586,-3.3196,-3.2689,-3.183,-3.1242,-2.9884,-2.8103,-2.6867,-2.6302,-2.6131,-2.6243,-2.4378,-2.12,-1.9448,-1.8688,-1.8601,-1.821,-1.7633,-1.7248,-1.7802,-1.8109,-1.8275,-1.8112,-1.7509,-1.6816,-1.7352,-1.698,-1.6371,-1.6779,-1.7018,-1.7113,-1.7563,-1.7607,-1.7402,-1.7277,-1.666,-1.5914,-1.5272,-1.501,-1.4756,-1.4376,-1.424,-1.4367,-1.4512,-1.463,-1.462,-1.462,-1.462,-1.462,-1.462,-1.462,-1.462,-1.462,-1.462,-1.462,-1.462,-1.462,-1.4611,-1.4583,-1.4583,-1.4855,-1.5399,-1.6167,-1.6293,-1.5778,-1.6167,-1.6796,-1.7527,-1.7527,-1.7788,-1.8435,-1.8435,-1.8922,-1.9789,-1.99,-2.0393,-1.1275,-1.4228,-1.7099,-1.6152,-1.519,-1.4257,-1.3309,-1.1917,-1.0521,-0.962,-0.939,-1.0005,-1.2221,-1.3396,-1.5734,-2.0935,-2.2766,-2.5703,-3.2107,-3.7669,-4.1591,-4.2683,-4.3386,-4.3671,-4.3374,-4.295,-4.2612,-4.2574,-4.2111,-4.1523,-4.0667,-3.9082,-3.7756,-3.694,-3.5297,-3.4039,-3.3245,-3.2779,-3.2186,-3.1602,-3.0246,-2.9165,-2.8364,-2.7085,-2.6383,-2.6444,-2.6471,-2.4154,-2.0294,-1.9174,-1.8655,-1.8611,-1.8118,-1.7909,-1.8064,-1.84,-1.8802,-1.9051,-1.8948,-1.8893,-1.8775,-1.8358,-1.794,-1.7668,-1.7668,-1.7829,-1.8121,-1.8365,-1.8299,-1.7913,-1.7527,-1.7288,-1.6911,-1.6293,-1.6041,-1.5904,-1.5263,-1.5399,-1.5389,-1.4756,-1.4883,-1.501,-1.462,-1.462,-1.462,-1.462,-1.462,-1.462,-1.462,-1.4611,-1.4602,-1.4602,-1.4583,-1.4836,-1.5224,-1.5864,-1.6377,-1.7037,-1.7424,-1.7424,-1.7162,-1.7424,-1.7674,-1.8049,-1.8049,-1.8174,-1.8435,-1.8435,-1.9046,-2.0036,-2.0516,-2.1239,-1.5447,0.0,-2.0385,-1.9413,-1.79,-1.6209,0.0,-1.2989,-1.1415,-0.9843,-0.9427,-1.0128,-1.2674,-1.3033,-1.4712,-2.0136,-2.111,-2.3303,-2.9411,-3.3629,-3.7369,-4.0793,-4.1677,-4.246,-4.3477,-4.3426,-4.3131,-4.2639,-4.2363,-4.1792,-4.0522,-3.9449,-3.8263,-3.6917,-3.5722,-3.4348,-3.2766,-3.2213,-3.1639,-3.1011,-2.937,-2.8432,-2.8204,-2.6965,-2.6444,-2.6437,-2.6456,-2.4026,-2.0022,-1.9947,-1.9479,-1.8601,-1.8603,-1.8787,-1.9319,-1.9338,-1.9619,-1.9867,-1.9761,-1.9924,-1.996,-1.9023,-1.8527,-1.8419,-1.7938,-1.8109,-1.8435,-1.8435,-1.8435,-1.8299,-1.7913,-1.7663,-1.7538,-1.6922,-1.6796,-1.6545,-1.5904,-1.6167,-1.6167,-1.501,-1.5263,-1.5389,-1.4756,-1.462,-1.462,-1.462,-1.462,-1.4611,-1.4611,-1.4583,-1.4836,-1.5379,-1.5214,-1.5466,-1.6398,-1.7277,-1.7913,-1.8174,-1.8435,-1.8435,-1.8299,-1.8435,-1.8435,-1.8435,-1.8435,-1.8435,-1.8435,-1.8673,-1.9542,-2.0762,-2.1483,-2.2335,0.0,-2.8171,-3.0763,-3.1829,-2.7648,-2.2755,-2.0969,-1.6034,0.0,-0.9836,-0.9412,-0.9839,-1.1496,-1.1697,-1.2939,-1.6988,-1.6358,-1.8404,-2.7133,-2.6131,-2.7069,-3.4002,-3.679,-3.9123,-4.1704,-4.3421,-4.4114,-4.3284,-4.252,-4.1261,-3.9475,-3.8854,-3.7624,-3.5707,-3.5123,-3.4057,-3.25,-3.1838,-3.087,-2.9467,-2.8864,-2.8121,-2.7336,-2.6701,-2.6423,-2.6419,-2.6493,-2.3478,-1.9006,-2.247,-2.1789,-1.8764,-1.9987,-2.0399,-2.0489,-2.0853,-2.0953,-2.0941,-2.0954,-2.0872,-2.0516,-1.985,-1.9357,-1.8874,-1.8501,-1.84,-1.8435,-1.8435,-1.8435,-1.8435,-1.8435,-1.8435,-1.8174,-1.7538,-1.7402,-1.7288,-1.6545,-1.6545,-1.6293,-1.5652,-1.5525,-1.5389,-1.4756,-1.462,-1.462,-1.462,-1.4602,-1.4583,-1.4583,-1.4555,-1.5476,-1.7935,-1.7102,-1.6933,-1.822,-1.8322,-1.8174,-1.7652,-1.8174,-1.8174,-1.7527,-1.8174,-1.8435,-1.8435,-1.8435,-1.8435,-1.8435,-1.9418,-2.0885,-2.2699,-2.282,-2.3438,-2.7851,-3.1179,-3.4129,-3.3014,-2.9687,-2.5633,-2.1529,-1.7559,-1.3723,-1.0128,-0.9355,-0.9799,-1.128,-1.0644,-1.1888,-1.8017,-1.716,-1.8484,-2.6376,-2.7849,-2.9988,-3.4952,-3.906,-4.2186,-4.4026,-4.4232,-4.3932,-4.314,-4.2179,-4.0778,-3.8859,-3.8022,-3.6671,-3.4533,-3.5117,-3.4557,-3.284,-3.1729,-3.0792,-2.9835,-2.9137,-2.8676,-2.8269,-2.8054,-2.8305,-2.8949,-2.7981,-2.7316,0.0,-2.7575,-2.6974,-2.5547,-2.4737,-2.3872,-2.3005,-2.3568,-2.3067,-2.2172,-2.2307,-2.1592,-2.0529,-2.0393,-2.0024,-1.9542,-1.917,-1.9058,-1.8945,-1.856,-1.8435,-1.8435,-1.8435,-1.8435,-1.8435,-1.8174,-1.8049,-1.7913,-1.7288,-1.7424,-1.7299,-1.5778,-1.5914,-1.5778,-1.4747,-1.462,-1.4756,-1.5399,-1.4991,-1.5108,-1.6849,-1.7058,-1.7435,-1.8403,-1.797,-1.7936,-1.8459,-1.8435,-1.8311,-1.8174,-1.8299,-1.8311,-1.8049,-1.8299,-1.8435,-1.8435,-1.9046,-1.9418,-1.9418,-2.038,-2.1605,-2.2941,-2.2941,-2.3559,-3.2584,-3.5687,-3.858,-3.7043,-3.4267,-3.0167,-2.3816,-1.9937,-1.6092,-1.0482,-0.9317,-0.9916,-1.1834,-1.1181,-1.2332,-1.8381,-1.774,-1.9077,-2.6361,-2.8455,-3.0925,-3.529,-3.9133,-4.1881,-4.3073,-4.4044,-4.4129,-4.2986,-4.2009,-4.0403,-3.8045,-3.7422,-3.6124,-3.3864,-3.451,-3.4273,-3.2905,-3.2092,-3.1458,-3.0901,-3.0238,-2.9861,-2.9786,-2.9209,-2.9518,-3.0294,-2.9463,-3.0093,-3.1485,-3.043,-3.0107,-3.0085,-2.7889,-2.6291,-2.5329,-2.5475,-2.4813,-2.3724,-2.3469,-2.2414,-2.1239,-2.0762,-2.0283,-1.99,-1.9666,-1.9282,-1.8898,-1.8537,-1.8424,-1.8435,-1.8435,-1.8435,-1.8435,-1.8435,-1.8435,-1.8299,-1.7913,-1.8174,-1.8049,-1.6408,-1.6534,-1.6534,-1.5389,-1.5136,-1.5399,-1.6051,-1.5748,-1.6136,-1.8164,-1.8517,-1.847,-1.847,-1.8447,-1.8435,-1.8435,-1.8435,-1.8435,-1.8435,-1.8435,-1.8435,-1.8435,-1.8435,-1.8435,-1.8435,-1.9542,-2.0024,-2.0024,-2.1239,-2.2214,-2.2941,-2.3303,-2.3799,-3.9475,-4.2793,-4.5126,-4.6027,-4.2696,-3.7145,-2.8916,-2.3497,-1.8184,-1.0851,-0.9345,-1.0261,-1.3235,-1.3591,-1.4362,-1.7403,-1.7369,-1.959,-2.7084,-2.6552,-2.7685,-3.3924,-3.5663,-3.6839,-3.7877,-4.2611,-4.487,-4.2941,-4.1948,-4.0,-3.6899,-3.6963,-3.614,-3.3908,-3.332,-3.2886,-3.2506,-3.2881,-3.2907,-3.2506,-3.2181,-3.1999,-3.163,-3.0221,-2.9781,-3.0041,-3.0748,-3.0995,-3.0889,-3.0217,-3.0313,-3.0654,-2.8381,-2.7373,-2.7408,-2.6581,-2.6011,-2.5523,-2.4678,-2.3709,-2.2642,-2.1117,-2.0406,-2.0036,-1.9814,-1.9233,-1.8531,-1.8478,-1.84,-1.8435,-1.8435,-1.8435,-1.8435,-1.8435,-1.8435,-1.8435,-1.8435,-1.8435,-1.8299,-1.7663,-1.7527,-1.7288,-1.6681,-1.6555,-1.6555,-1.6555,-1.689,-1.7402,-1.8357,-1.8459,-1.8435,-1.8435,-1.8435,-1.8435,-1.8435,-1.8435,-1.8435,-1.8435,-1.8435,-1.8435,-1.8435,-1.8435,-1.8435,-1.8435,-1.9542,-2.0024,-2.0024,-2.1971,-2.2956,-2.2941,-2.4039,-2.4533,-3.8367,-4.2169,-4.605,-4.5121,-4.2554,-3.8102,-2.997,-2.4944,-1.9889,-1.2509,-1.0111,-1.0225,-1.3119,-1.2639,-1.3033,-1.6829,-1.9163,-2.1904,-2.5948,-2.9623,-3.3541,-3.8122,-3.9742,-4.0949,-4.2152,-4.4416,-4.4985,-4.3041,-4.1243,-3.9141,-3.6849,-3.6197,-3.5293,-3.3883,-3.4575,-3.4793,-3.4491,-3.4795,-3.48,-3.4461,-3.3707,-3.3117,-3.2938,-3.2124,-3.1578,-3.1285,-3.1056,-3.1164,-3.1514,-3.067,-3.0464,-3.0503,-2.9596,-2.9218,-2.9104,-2.8912,-2.7512,-2.5641,-2.5153,-2.3499,-2.147,-2.0762,-2.0529,-2.0406,-2.0445,-2.0185,-1.9777,-1.875,-1.8513,-1.8525,-1.8424,-1.8435,-1.8435,-1.8435,-1.8435,-1.8435,-1.8435,-1.8435,-1.8299,-1.7663,-1.7527,-1.7288,-1.6681,-1.6555,-1.6671,-1.7162,-1.8015,-1.8898,-1.9703,-2.0236,-2.0373,-1.9951,-1.907,-1.8435,-1.8435,-1.8435,-1.8435,-1.8435,-1.8435,-1.8435,-1.8435,-1.917,-1.9542,-1.9542,-2.1239,-2.2093,-2.2093,-2.3438,-2.4054,-2.4054,-2.4294,-2.4533,-4.0606,-4.3313,-4.5955,-4.4701,-4.2783,-3.8907,-3.014,-2.5863,-2.1423,-1.321,-1.0294,-1.0325,-1.3747,-1.3052,-1.3879,-1.9835,-2.1529,-2.4118,-2.9854,-3.3398,-3.7187,-4.2015,-4.3268,-4.3945,-4.473,-4.5457,-4.5243,-4.3671,-4.1151,-3.919,-3.7876,-3.6607,-3.553,-3.4881,-3.5306,-3.5678,-3.5916,-3.6592,-3.6781,-3.6622,-3.5557,-3.4755,-3.4137,-3.3094,-3.2382,-3.1858,-3.1434,-3.1494,-3.1777,-3.0954,-3.0577,-3.0445,-3.0068,-2.9955,-2.9955,-2.9955,-2.8568,-2.6581,-2.5759,-2.3559,-2.0996,-2.0872,-2.0775,-2.0652,-2.0555,-2.0568,-2.0309,-1.8862,-1.8478,-1.849,-1.8424,-1.8435,-1.8435,-1.8435,-1.8435,-1.8435,-1.8435,-1.8809,-1.8922,-1.8525,-1.8773,-1.8886,-1.8525,-1.84,-1.8525,-1.8525,-1.9146,-1.9529,-1.9678,-1.9976,-2.0112,-1.969,-1.8934,-1.8435,-1.8435,-1.8435,-1.8435,-1.8435,-1.8797,-1.9046,-1.9046,-2.0024,-2.0516,-2.0516,-2.2093,-2.2941,-2.2941,-2.3934,-2.4533,-2.4533,-2.4533,-2.4533,-4.4159,-4.5059,-4.5025,-4.4054,-4.2957,-3.958,-2.9724,-2.6425,-2.2789,-1.3388,-1.0391,-1.0667,-1.4614,-1.4532,-1.645,-2.4402,-2.4532,-2.6961,-3.6385,-3.755,-3.948,-4.5196,-4.5894,-4.5864,-4.5894,-4.5894,-4.5527,-4.4668,-4.1914,-4.0127,-3.9818,-3.7823,-3.6636,-3.6361,-3.5711,-3.5845,-3.6912,-3.8055,-3.8639,-3.8665,-3.7473,-3.6263,-3.5169,-3.3326,-3.2271,-3.1848,-3.1848,-3.1848,-3.1848,-3.1158,-3.067,-3.0387,-3.0068,-2.9955,-2.9955,-2.9728,-2.893,-2.7646,-2.5962,-2.3573,-2.1198,-2.1185,-2.0898,-2.0652,-2.0652,-2.0652,-2.0393,-1.9085,-1.8578,-1.8466,-1.8537,-1.856,-1.8435,-1.8435,-1.856,-1.8685,-1.8685,-1.9542,-2.0147,-2.0147,-2.0872,-2.1348,-2.1348,-2.1361,-2.0994,-2.0147,-2.0024,-1.9666,-1.8685,-1.856,-1.856,-1.8435,-1.8435,-1.856,-1.856,-1.856,-1.8673,-1.8685,-1.9653,-2.0147,-2.0147,-2.0994,-2.147,-2.147,-2.2578,-2.3062,-2.3062,-2.4054,-2.4533,-2.4533,-2.4533,-2.4533,-3.9596,-4.1857,-4.3946,-3.9531,-4.0058,-3.9282,-2.9978,-2.7297,-2.4115,-1.461,-1.2326,-1.2382,-1.3511,-1.6517,-1.9741,-2.2416,-2.8848,-3.4163,-3.61,-4.0642,-4.4165,-4.5242,-4.5725,-4.5809,-4.5754,-4.5809,-4.578,-4.5612,-4.4298,-4.3172,-4.2276,-3.9511,-3.7536,-3.6642,-3.6492,-3.6963,-3.8106,-3.9249,-3.9904,-3.9808,-3.7809,-3.6263,-3.5169,-3.3414,-3.2361,-3.1848,-3.1848,-3.1848,-3.1848,-3.1158,-3.0558,-3.0068,-2.9955,-2.9955,-2.9728,-2.8453,-2.7082,-2.5405,-2.329,-2.2152,-2.1564,-2.0968,-2.0626,-2.0652,-2.0652,-2.0652,-2.0529,-2.0172,-1.9369,-1.859,-1.8922,-1.8809,-1.8435,-1.8435,-1.9046,-1.99,-2.0626,-2.0994,-2.1117,-2.1117,-2.1239,-2.1348,-2.1348,-2.0749,-2.027,-2.0024,-2.0024,-1.9913,-1.9666,-1.9666,-1.9418,-1.856,-1.8435,-1.8809,-1.9666,-1.9666,-2.0024,-2.0749,-2.0994,-2.1117,-2.1117,-2.2093,-2.2578,-2.2578,-2.3679,-2.4174,-2.4174,-2.4414,-2.4533,-2.4533,-2.4533,-2.4533,-3.862,-4.1054,-4.2418,-3.7865,-3.7956,-3.7512,-3.1419,-2.8921,-2.5708,-1.7967,-1.5466,-1.4761,-1.4944,-1.7893,-2.179,-2.6292,-3.1792,-3.6537,-3.9582,-4.2582,-4.4753,-4.5243,-4.5471,-4.5641,-4.5698,-4.5754,-4.5641,-4.5271,-4.4755,-4.423,-4.3581,-4.1407,-3.9565,-3.8154,-3.7729,-3.8131,-3.93,-3.9955,-4.0235,-4.0261,-3.803,-3.6598,-3.5927,-3.3739,-3.2361,-3.1848,-3.1848,-3.1848,-3.1828,-3.0856,-3.0275,-2.9955,-2.9955,-2.9955,-2.9842,-2.8912,-2.7298,-2.5405,-2.3899,-2.281,-2.1918,-2.0954,-2.06,-2.0652,-2.0652,-2.0652,-2.0652,-2.0581,-1.9925,-1.9121,-1.9245,-1.927,-1.9294,-1.9777,-2.0257,-2.0749,-2.1239,-2.1714,-2.1957,-2.147,-2.2214,-2.2699,-2.2214,-2.2093,-2.1849,-2.0872,-2.0639,-2.0393,-1.9418,-2.0147,-2.0516,-1.99,-1.99,-2.0147,-2.0639,-2.0639,-2.0872,-2.1361,-2.1849,-2.2093,-2.2093,-2.3182,-2.3679,-2.3679,-2.4174,-2.4533,-2.4533,-2.4533,-2.4533,-2.4533,-2.4533,-2.4533,-3.6883,-3.9536,-4.017,-3.6916,-3.6209,-3.5574,-3.2535,-3.0429,-2.7584,-2.2041,-1.9288,-1.7856,-1.7741,-1.9936,-2.3957,-3.0835,-3.3931,-3.7415,-4.2972,-4.3578,-4.3817,-4.4957,-4.5157,-4.5243,-4.5613,-4.5698,-4.5414,-4.4755,-4.4493,-4.4318,-4.4026,-4.2816,-4.1282,-3.9643,-3.9105,-3.9224,-4.0235,-4.0235,-4.0235,-4.0261,-3.8131,-3.7113,-3.6804,-3.4256,-3.2691,-3.1848,-3.1848,-3.1848,-3.1828,-3.0666,-3.0104,-2.9955,-2.9955,-2.9955,-2.9842,-2.9501,-2.7975,-2.6095,-2.5442,-2.4128,-2.2341,-2.1063,-2.0587,-2.0652,-2.0652,-2.0652,-2.0652,-2.0568,-2.0198,-1.9802,-1.9566,-1.985,-2.027,-2.1117,-2.147,-2.1605,-2.1605,-2.2457,-2.2956,-2.2079,-2.3318,-2.4174,-2.3318,-2.3799,-2.3679,-2.1971,-2.1483,-2.0749,-1.917,-2.038,-2.1348,-2.1348,-2.1348,-2.147,-2.1686,-2.1686,-2.17,-2.1971,-2.2699,-2.3197,-2.3197,-2.4054,-2.4533,-2.4533,-2.4533,-2.4533,-2.4533,-2.4533,-2.4533,-2.4533,-2.4533,-2.4533,-2.8236,-3.2538,-3.6343,-3.3971,-3.4854,-3.5313,-3.1177,-3.0834,-3.0085,-2.5415,-2.3443,-2.2266,-2.1174,-2.4734,-2.827,-2.9685,-3.5409,-4.0062,-4.1392,-4.2752,-4.3649,-4.411,-4.4434,-4.4783,-4.5329,-4.5528,-4.5669,-4.5696,-4.4552,-4.3849,-4.376,-4.2213,-4.076,-3.9488,-3.9851,-4.0108,-4.0235,-4.0235,-4.0235,-4.0261,-3.8634,-3.7625,-3.6931,-3.5508,-3.3718,-3.1848,-3.1848,-3.1848,-3.1828,-3.1697,-3.0987,-2.9955,-2.9955,-2.9955,-2.9728,-2.753,-2.6513,-2.6213,-2.6159,-2.4553,-2.2341,-2.1063,-2.0587,-2.0652,-2.0652,-2.0652,-2.0652,-2.0652,-2.0172,-1.9938,-2.0626,-2.038,-2.027,-2.1117,-2.2093,-2.2699,-2.2699,-2.3559,-2.4294,-2.4054,-2.4294,-2.4414,-2.4294,-2.3679,-2.3076,-2.282,-2.1971,-2.1239,-2.0994,-2.1225,-2.1348,-2.1348,-2.1348,-2.1794,-2.2647,-2.2767,-2.3065,-2.4039,-2.4174,-2.4294,-2.4294,-2.4414,-2.4533,-2.4533,-2.4533,-2.4533,-2.4533,-2.4533,-2.4533,-2.4533,-2.4533,-2.4533,-2.5655,-2.9784,-3.2061,-2.9707,-3.1299,-3.3057,-3.1728,-3.2163,-3.1912,-2.8488,-2.7521,-2.6514,-2.4154,-2.7236,-3.0333,-3.1259,-3.6217,-4.0179,-4.1156,-4.2447,-4.3485,-4.3843,-4.411,-4.4462,-4.5013,-4.5214,-4.5358,-4.5556,-4.429,-4.3014,-4.1911,-4.1161,-4.0314,-3.916,-3.9471,-3.9723,-3.9723,-3.9943,-4.0066,-4.0261,-3.8083,-3.7145,-3.7043,-3.4555,-3.278,-3.1848,-3.1848,-3.1848,-3.1848,-3.1848,-3.1139,-2.9955,-2.9955,-2.9955,-2.9842,-2.8683,-2.7477,-2.6297,-2.6211,-2.4626,-2.2477,-2.1905,-2.1266,-2.0652,-2.0652,-2.0587,-2.0657,-2.0652,-2.1034,-2.1619,-2.1483,-2.1619,-2.1849,-2.2941,-2.3438,-2.3799,-2.3799,-2.4174,-2.4533,-2.4533,-2.4533,-2.4294,-2.3679,-2.3679,-2.3559,-2.3062,-2.2578,-2.2457,-2.3076,-2.3182,-2.3182,-2.3182,-2.3182,-2.3288,-2.3724,-2.3828,-2.3978,-2.4414,-2.4533,-2.4533,-2.4533,-2.4533,-2.4533,-2.4533,-2.4533,-2.4533,-2.4533,-2.4533,-2.4533,-2.4533,-2.4533,-2.4533,-2.2016,-2.6125,-2.7749,-2.6733,-2.8683,-3.1055,-3.1778,-3.2698,-3.2835,-3.1138,-3.0393,-2.9428,-2.7372,-2.9119,-3.1363,-3.265,-3.6464,-3.9647,-4.0808,-4.1909,-4.2849,-4.3485,-4.3574,-4.3754,-4.449,-4.4666,-4.4666,-4.4522,-4.3284,-4.1911,-4.0423,-4.0159,-3.9697,-3.8858,-3.9131,-3.923,-3.923,-3.9551,-3.965,-3.9625,-3.7529,-3.6401,-3.5859,-3.3087,-3.1848,-3.1848,-3.1848,-3.1848,-3.1848,-3.1848,-3.1362,-3.0426,-3.0087,-2.9955,-2.9955,-2.9955,-2.8374,-2.6195,-2.5808,-2.4294,-2.2327,-2.2068,-2.1415,-2.0652,-2.0652,-2.0657,-2.07,-2.132,-2.2176,-2.282,-2.2457,-2.2699,-2.3197,-2.4294,-2.4533,-2.4533,-2.4533,-2.4533,-2.4533,-2.4533,-2.4533,-2.4294,-2.3438,-2.3934,-2.4174,-2.3438,-2.3303,-2.3559,-2.4294,-2.4294,-2.4414,-2.4414,-2.4414,-2.4414,-2.4533,-2.4398,-2.4398,-2.4533,-2.4398,-2.4398,-2.4398,-2.4414,-2.4414,-2.4398,-2.4414,-2.4533,-2.4533,-2.4533,-2.4533,-2.4533,-2.4533,-2.4533,-1.4107,-1.9003,-2.3735,-2.6429,-2.8573,-3.0064,-3.0231,-3.1347,-3.2455,-3.292,-3.1424,-3.0249,-3.0985,-3.0996,-3.1358,-3.2797,-3.611,-3.8845,-3.9654,-4.0627,-4.1643,-4.2363,-4.2455,-4.2758,-4.3574,-4.3965,-4.3698,-4.2639,-4.1118,-4.0159,-4.0062,-3.9329,-3.8958,-3.8858,-3.9131,-3.923,-3.923,-3.9329,-3.8809,-3.7857,-3.7475,-3.5508,-3.216,-3.1939,-3.1848,-3.1848,-3.1848,-3.1848,-3.1848,-3.1848,-3.1828,-3.1717,-3.0426,-2.9955,-2.9955,-2.9955,-2.8331,-2.6107,-2.4788,-2.3318,-2.1646,-2.0981,-2.0626,-2.0652,-2.0652,-2.0657,-2.1091,-2.3447,-2.351,-2.3076,-2.3318,-2.3197,-2.3197,-2.4294,-2.4533,-2.4533,-2.4533,-2.4533,-2.4533,-2.4533,-2.4533,-2.4414,-2.4414,-2.4414,-2.4414,-2.4414,-2.4429,-2.4294,-2.4039,-2.3919,-2.4039,-2.4414,-2.4174,-2.4039,-2.4414,-2.4128,-2.4113,-2.4414,-2.4128,-2.3978,-2.3978,-2.4263,-2.4279,-2.3978,-2.4263,-2.4533,-2.4533,-2.4533,-2.4533,-2.4533,-2.4533,-2.4533,-1.2106,-1.5665,-1.8805,-2.2898,-2.5551,-2.743,-2.8281,-3.0081,-3.1552,-3.1215,-3.1416,-3.1773,-3.1955,-3.2111,-3.2574,-3.3505,-3.5519,-3.7248,-3.8136,-3.9371,-4.0615,-4.1725,-4.2018,-4.2363,-4.3032,-4.2547,-4.1684,-4.0184,-4.0087,-3.977,-3.9082,-3.8809,-3.8609,-3.8609,-3.8709,-3.8809,-3.8809,-3.8933,-3.8833,-3.8433,-3.694,-3.5147,-3.3263,-3.2361,-3.1848,-3.1848,-3.1848,-3.1848,-3.1848,-3.1848,-3.1848,-3.1717,-3.0426,-2.9955,-2.9955,-2.9955,-2.8374,-2.5975,-2.4606,-2.2926,-2.1388,-2.113,-2.0762,-2.0652,-2.0652,-2.1361,-2.2214,-2.2204,-2.3014,-2.3664,-2.3318,-2.3559,-2.4054,-2.4414,-2.4533,-2.4533,-2.4533,-2.4533,-2.4533,-2.4533,-2.4533,-2.4533,-2.4533,-2.4533,-2.4414,-2.4174,-2.4054,-2.395,-2.3814,-2.3694,-2.3694,-2.3814,-2.3679,-2.3679,-2.3814,-2.3784,-2.3679,-2.3859,-2.3754,-2.3694,-2.3604,-2.3814,-2.3829,-2.3889,-2.4024,-2.4159,-2.4159,-2.4414,-2.4294,-2.3814,-2.4294,-2.4414,-0.8688,-1.2343,-1.5423,-1.8881,-2.2176,-2.473,-2.5689,-2.7499,-2.8925,-2.8704,-2.9735,-3.0913,-3.1576,-3.2101,-3.2646,-3.3568,-3.4666,-3.57,-3.6733,-3.7935,-3.9332,-4.0651,-4.1239,-4.1617,-4.1804,-4.0641,-3.9599,-3.8833,-3.9107,-3.9082,-3.8409,-3.8485,-3.8485,-3.8485,-3.8485,-3.8485,-3.8485,-3.8634,-3.8734,-3.8734,-3.6505,-3.5042,-3.4297,-3.2671,-3.1848,-3.1848,-3.1848,-3.1848,-3.1848,-3.1848,-3.1848,-3.1717,-3.0426,-2.9955,-2.9955,-2.9955,-2.7975,-2.5168,-2.3499,-2.2079,-2.1143,-2.1021,-2.0775,-2.0652,-2.0652,-2.1755,-2.2863,-2.1592,-2.2926,-2.4518,-2.3679,-2.3934,-2.4533,-2.4533,-2.4533,-2.4533,-2.4533,-2.4533,-2.4533,-2.4533,-2.4533,-2.4533,-2.4533,-2.4429,-2.4445,-2.419,-2.398,-2.3859,-2.3709,-2.3453,-2.3318,-2.3438,-2.3438,-2.3333,-2.3468,-2.3468,-2.3347,-2.3498,-2.3409,-2.3379,-2.3303,-2.3483,-2.3498,-2.3559,-2.3679,-2.3799,-2.3799,-2.4054,-2.3934,-2.3679,-2.4054,-2.4174,-0.3578,-0.8916,-1.3609,-1.4875,-1.8635,-2.2111,-2.2407,-2.3505,-2.4736,-2.5781,-2.6468,-2.7583,-3.015,-3.0885,-3.1503,-3.2803,-3.3401,-3.4136,-3.5259,-3.6326,-3.7522,-3.8978,-4.0037,-4.05,-3.9965,-3.8385,-3.7601,-3.8409,-3.8208,-3.8131,-3.8131,-3.8309,-3.8485,-3.8485,-3.8485,-3.8485,-3.8385,-3.8485,-3.8485,-3.8385,-3.6321,-3.5169,-3.4958,-3.289,-3.1848,-3.1848,-3.1848,-3.1848,-3.1848,-3.1848,-3.1848,-3.1717,-3.0426,-2.9955,-2.9955,-2.9842,-2.7246,-2.3499,-2.1592,-2.1007,-2.0885,-2.0652,-2.0652,-2.0652,-2.0652,-2.1714,-2.2897,-2.2144,-2.3499,-2.5129,-2.4653,-2.4533,-2.4533,-2.4533,-2.4533,-2.4533,-2.4533,-2.4533,-2.4533,-2.4414,-2.4414,-2.4414,-2.4429,-2.446,-2.4491,-2.4491,-2.4402,-2.4161,-2.3589,-2.3197,-2.3076,-2.3438,-2.3197,-2.3091,-2.3512,-2.3135,-2.312,-2.3438,-2.312,-2.2892,-2.2892,-2.3271,-2.3362,-2.2941,-2.3318,-2.3438,-2.3438,-2.3574,-2.3679,-2.3919,-2.3919,-2.4054,-0.6454,-1.008,-1.1196,-1.4927,-1.7026,-1.8707,-2.054,-2.1851,-2.3121,-2.4621,-2.5914,-2.7402,-2.9323,-2.9936,-3.0565,-3.172,-3.1864,-3.1973,-3.2159,-3.384,-3.502,-3.5194,-3.7019,-3.8208,-3.7804,-3.7625,-3.7546,-3.775,-3.7977,-3.8079,-3.8079,-3.8131,-3.8208,-3.8208,-3.8208,-3.778,-3.6917,-3.7828,-3.7625,-3.6528,-3.7247,-3.5905,-3.278,-3.216,-3.1848,-3.1848,-3.1848,-3.1848,-3.1848,-3.1848,-3.1362,-3.0426,-3.0068,-2.9955,-2.9615,-2.7298,-2.4337,-2.1483,-2.1117,-2.0885,-2.0652,-2.0652,-2.0652,-2.0652,-2.113,-2.1334,-2.1659,-2.3241,-2.3709,-2.3889,-2.4414,-2.4533,-2.4533,-2.4533,-2.4533,-2.4533,-2.4533,-2.4533,-2.4414,-2.4159,-2.4039,-2.4039,-2.3814,-2.3814,-2.3829,-2.3829,-2.3347,-2.2999,-2.2892,-2.2728,-2.2713,-2.2835,-2.2713,-2.2713,-2.2849,-2.2457,-2.2307,-2.2414,-2.2307,-2.2186,-2.2186,-2.2592,-2.2849,-2.2941,-2.3062,-2.3062,-2.3062,-2.3438,-2.3438,-2.3182,-2.3438,-2.3814,-0.4109,-0.788,-0.9314,-1.2397,-1.3612,-1.4907,-1.7938,-1.8891,-1.9862,-2.2624,-2.4282,-2.5933,-2.8081,-2.908,-2.9958,-3.0994,-3.0809,-3.064,-3.1053,-3.2224,-3.3212,-3.3615,-3.4583,-3.5209,-3.5438,-3.624,-3.6908,-3.7239,-3.7672,-3.8001,-3.8001,-3.7953,-3.803,-3.8208,-3.8208,-3.778,-3.6964,-3.6655,-3.6136,-3.5508,-3.5695,-3.4341,-3.1848,-3.1848,-3.1848,-3.1828,-3.1251,-3.1007,-3.1007,-3.1007,-3.0651,-2.9955,-2.9955,-2.9955,-2.9482,-2.5995,-2.3047,-2.0652,-2.0775,-2.0775,-2.0529,-2.0393,-2.0406,-2.0678,-2.0788,-2.1456,-2.2505,-2.4025,-2.4086,-2.3859,-2.4309,-2.4533,-2.4533,-2.4533,-2.4533,-2.4414,-2.4294,-2.4429,-2.4325,-2.3934,-2.3814,-2.3814,-2.3574,-2.3453,-2.3212,-2.2956,-2.2335,-2.2107,-2.2256,-2.2107,-2.1971,-2.2107,-2.2107,-2.2228,-2.2242,-2.2051,-2.1887,-2.1901,-2.1901,-2.1901,-2.1901,-2.2321,-2.2592,-2.2699,-2.2835,-2.2835,-2.2835,-2.3076,-2.3197,-2.2956,-2.3438,-2.3799,0.061,-0.427,-0.8121,-0.8633,-0.9602,-1.1353,0.0,-1.5176,-1.5872,-1.9784,-2.153,-2.3208,-2.6166,-2.7807,-2.9094,-3.0332,-2.9955,-2.9965,-3.0915,-3.1216,-3.1886,-3.3337,-3.2708,-3.2509,-3.3437,-3.4923,-3.6159,-3.6908,-3.7318,-3.7648,-3.7648,-3.7648,-3.7929,-3.8409,-3.8409,-3.8006,-3.7216,-3.5463,-3.4511,-3.4639,-3.254,-3.1717,-3.1717,-3.1717,-3.1717,-3.1605,-3.0426,-2.9955,-2.9955,-2.9955,-2.9955,-2.9955,-2.9955,-2.9955,-2.9482,-2.5373,-2.2549,-2.0652,-2.0652,-2.0652,-2.0516,-2.0011,-2.0036,-2.0445,-2.0074,-2.1838,-2.3746,-2.3857,-2.4161,-2.4479,-2.446,-2.4533,-2.4533,-2.4533,-2.4549,-2.4429,-2.4054,-2.4205,-2.4235,-2.3724,-2.3603,-2.3603,-2.3468,-2.3212,-2.2713,-2.1971,-2.147,-2.1334,-2.1849,-2.147,-2.1348,-2.1497,-2.1497,-2.1633,-2.1918,-2.1686,-2.1645,-2.1794,-2.1929,-2.1929,-2.1901,-2.2321,-2.2592,-2.2592,-2.2592,-2.2592,-2.2592,-2.2835,-2.2941,-2.3076,-2.3559,-2.4039,0.0,0.0,0.0,0.0,0.0,0.0,0.0,-1.254,-1.3174,-1.5466,-1.673,-1.8732,-2.2706,-2.4166,-2.5754,-2.85,-2.8848,-2.8682,-2.809,-2.9412,-3.0588,-3.1259,-3.1919,-3.2871,-3.4301,-3.5791,-3.6804,-3.6908,-3.701,-3.7113,-3.7113,-3.7444,-3.775,-3.7828,-3.7421,-3.624,-3.4297,-3.5718,-3.4511,-3.0929,-3.0519,-3.0313,-3.0313,-3.0313,-3.0313,-3.0313,-3.0068,-2.9955,-2.9955,-2.9955,-2.9955,-2.9955,-2.9955,-2.9955,-2.9255,-2.3484,-2.1007,-2.0652,-2.0652,-2.0652,-2.0516,-1.9739,-1.9616,-1.9875,-2.0828,-2.0393,-1.9639,-1.9573,-2.1981,-2.4479,-2.446,-2.4533,-2.4533,-2.4533,-2.4445,-2.4476,-2.4356,-2.3995,-2.3498,-2.2849,-2.2757,-2.265,-2.2256,-2.1999,-2.1863,-2.1619,-2.1619,-2.1361,-2.1252,-2.1375,-2.1375,-2.1117,-2.1375,-2.1633,-2.1687,-2.1348,-2.109,-2.1157,-2.1442,-2.1646,-2.1631,-2.2186,-2.2592,-2.2592,-2.2592,-2.2592,-2.2592,-2.2592,-2.2835,-2.3438,-2.3197,-2.3438,0.0,0.0,0.0,0.0,0.0,0.0,0.0,0.0,0.0,0.0,0.0,-1.5858,-1.9162,0.0,-2.3934,-2.5861,-2.7904,-2.9013,-2.807,-2.8923,-2.965,-2.9171,-3.0391,-3.1755,-3.3016,-3.4494,-3.5361,-3.5412,-3.6347,-3.6908,-3.6908,-3.7216,-3.624,-3.3847,-3.3545,-3.2895,-3.1707,-3.2238,-3.1374,-2.9082,-2.9633,-2.9955,-2.9955,-2.9955,-2.9955,-2.9955,-2.9955,-2.9955,-2.9955,-2.9955,-2.9955,-2.9955,-2.9955,-2.8072,-2.49,-2.1714,-2.016,-1.9542,-1.9542,-1.9542,-1.9418,-1.9022,-1.8898,-1.9022,-1.969,-1.9282,-1.8443,-1.8413,-2.1348,-2.4541,-2.4509,-2.4553,-2.4491,-2.4491,-2.4506,-2.4266,-2.3618,-2.3241,-2.2742,-2.1714,-2.1863,-2.2027,-2.166,-2.1021,-2.0516,-2.0762,-2.0762,-2.0762,-2.0762,-2.1007,-2.0901,-2.0355,-2.0835,-2.0996,-2.0622,-2.0795,-2.0898,-2.0801,-2.1074,-2.1402,-2.1617,-2.2037,-2.2321,-2.2592,-2.2592,-2.2592,-2.2592,-2.2835,-2.3076,-2.3197,-2.3318,-2.3679,0.0,0.0,0.0,0.0,0.0,0.0,0.0,0.0,0.0,0.0,0.0,0.0,0.0,0.0,0.0,-2.3119,-2.6677,-2.9012,-2.837,-2.8614,-2.8636,-2.7918,-2.9116,-3.0562,-3.1645,-3.2993,-3.3776,-3.3798,-3.5167,-3.6078,-3.6263,-3.5845,-3.3869,-3.0068,-2.9747,-2.9633,-2.9633,-2.8162,-2.7733,-2.8215,-2.9196,0.0,-2.9633,-2.9633,-2.9728,-2.9955,-2.9955,-2.9842,-2.9633,-2.9633,-2.9159,-2.8435,-2.8188,-2.5018,-2.0652,-2.0652,-1.9666,-1.8435,-1.8435,-1.8435,-1.8435,-1.8435,-1.8435,-1.8435,-1.8459,-1.8494,0.0,-1.7822,-2.0074,-2.2798,-2.3887,-2.4177,-2.4086,-2.4176,-2.4176,-2.3799,-2.2757,-2.2364,-2.1863,-2.0845,-2.0872,-2.1266,-2.132,-2.0219,-1.9344,-1.9598,-1.9707,-1.9841,-2.0205,-2.0296,-2.0179,-1.9711,-2.0179,-2.0404,-1.9921,-2.0166,-2.0503,-2.0652,-2.0516,-2.0451,-2.0821,-2.1091,-2.1356,-2.1575,-2.1691,-2.1935,-2.2406,-2.3006,-2.32,-2.3153,-2.236,-2.2569,0.0,0.0,0.0,0.0,0.0,0.0,0.0,0.0,0.0,0.0,0.0,0.0,0.0,0.0,0.0,0.0,-2.4344,-2.6483,-2.6935,-2.7058,-2.7513,-2.8703,-2.9393,-3.0447,-3.2032,-3.3215,-3.3844,-3.3869,-3.3074,-3.3083,-3.3912,-3.1948,0.0,0.0,0.0,-2.8428,-2.8428,-2.6077,-2.5959,-2.8215,-2.8313,-2.8428,-2.8428,-2.8428,-2.8967,-2.9955,-2.9955,-2.9292,-2.8428,-2.8428,-2.6397,-2.3288,-2.2079,-2.1239,-2.0652,-2.0652,-1.9666,-1.8435,-1.8435,0.0,0.0,-1.8435,-1.8435,-1.8447,-1.8426,-1.8461,-1.8027,-1.5723,-1.5299,-1.6854,-2.1551,-2.2778,-2.2764,-2.2757,-2.2757,-2.2664,-2.2542,-2.1646,-2.0775,-2.0639,-2.0147,-1.9925,-2.062,-1.9681,-1.8782,-1.8387,-1.8439,-1.8693,-1.8693,-1.9348,-1.9737,-1.9672,-2.0179,0.0,-2.0535,-1.9087,-1.8865,-2.0516,-1.9135,-1.8132,-1.7917,-1.8417,-1.8592,-1.829,-1.8347,-1.9651,-2.1967,-2.2084,-2.2742,-2.3649,-1.7953,-1.6934,0.0,0.0,0.0,0.0,0.0,0.0,0.0,0.0,0.0,0.0,0.0,0.0,0.0,0.0,0.0,0.0,-2.1738,-2.3925,-2.287,-2.4166,-2.5652,-2.6905,-2.7665,-2.847,-2.9405,-3.1112,-3.1586,-3.0433,-3.2023,-3.227,-3.0519,-2.9538,-2.8985,-2.8985,-2.8428,-2.7501,-2.6077,-2.5011,-2.5011,-2.6077,-2.6077,-2.6077,-2.6077,-2.6077,-2.6296,-2.6849,-2.8277,-2.6965,-2.3769,-2.3769,-2.2806,-2.1252,0.0,0.0,0.0,0.0,-1.8038,-1.6398,-1.7925,-1.7413,-1.6262,-1.6221,-1.621,-1.6221,-1.6262,-1.6167,-1.603,-1.4905,-1.4607,-1.4964,-1.6294,-1.9049,-2.1469,-2.1361,-2.1483,-2.1388,-2.1442,-2.0938,-2.0296,-1.9517,-1.9393,0.0,-1.9331,-1.8889,-1.8527,-1.8287,-1.8635,-1.8874,-1.8981,-1.9542,-1.9795,-1.9698,-2.0179,-2.0386,-2.0049,-1.9648,0.0,0.0,0.0,-1.9393,-1.9356,-1.9859,0.0,0.0,0.0,-1.906,-2.1448,-1.8582,0.0,0.0,-1.8993,-1.8268,0.0,0.0,0.0,0.0,0.0,0.0,0.0,0.0,0.0,0.0,0.0,0.0,0.0,0.0,0.0,0.0,-1.9404,-2.2133,-2.0426,-2.1925,-2.3508,-2.4227,-2.5541,-2.6489,-2.6733,-2.8589,-2.8966,-2.7324,-2.9452,-3.0095,-2.8277,-2.8215,-2.7805,-2.6932,-2.7049,-2.6313,-2.4549,-2.4174,-2.3934,-2.3934,-2.3934,-2.3934,-2.3934,-2.3934,-2.4174,-2.4533,-2.5216,-2.3394,-2.0036,-2.0036,-2.0036,-1.9913,-1.8922,-1.8049,-1.7413,-1.7413,-1.6146,-1.4883,-1.6775,-1.6146,-1.4611,-1.4574,-1.4555,-1.4555,-1.4555,-1.4574,-1.4592,-1.4602,-1.4592,-1.4294,-1.2753,-1.6523,-2.0548,-2.0568,-2.0257,-1.9973,-2.0036,-2.0049,-1.9678,-1.8637,-1.8886,-1.9109,-1.8619,-1.8472,-1.8413,-1.8271,-1.8491,-1.8733,-1.8842,-1.9464,-1.9764,-1.9606,-2.0179,-2.036,-1.9932,-1.9866,-2.0096,-2.0529,-2.0109,-2.0096,-2.0529,-2.0486,-2.0585,-2.1201,-1.9029,-1.8617,0.0,0.0,0.0,0.0,0.0,0.0,0.0,0.0,0.0,0.0,0.0,0.0,0.0,0.0,0.0,0.0,0.0,0.0,0.0,0.0,0.0,0.0,0.0,0.0,-2.1166,-2.1126,-2.1093,-2.0936,-2.3555,-2.5171,-2.4792,-2.5893,-2.6311,-2.5787,-2.4582,-2.5074,-2.8055,-2.8215,-2.6807,-2.3723,-2.4258,-2.4533,-2.4533,-2.3212,-2.2592,-2.2592,-2.2592,-2.2592,-2.2592,-2.2592,-2.3333,-2.4294,-2.038,-1.8673,-1.856,-1.856,-1.856,-1.856,-1.8435,-1.6911,-1.4747,-1.4747,-1.462,-1.462,-1.462,-1.462,-1.462,-1.462,-1.462,-1.462,-1.462,-1.462,-1.463,-1.453,-1.4558,-1.4294,-1.2766,-1.646,-2.0542,-2.0552,-1.9591,-1.8567,-1.8578,-1.8478,-1.8501,-1.8501,-1.9022,-1.9246,-1.8862,-1.8501,-1.807,-1.7564,-1.7492,0.0,-1.7606,-1.8534,-1.9225,-1.9213,-2.0071,-2.0639,-2.0626,-1.8988,-1.873,-2.0516,-1.8988,-1.873,-2.0516,-1.8428,-1.7432,-1.7884,-1.7867,-1.7834,-1.7606,0.0,0.0,0.0,0.0,0.0,0.0,0.0,0.0,0.0,0.0,0.0,0.0,0.0,0.0,0.0,0.0,0.0,0.0,0.0,0.0,0.0,0.0,0.0,0.0,-1.8352,-1.9306,-1.9742,-2.0799,-2.1694,-2.2052,-2.0808,-2.1132,-2.4059,-2.3744,-2.4401,-2.654,-2.5648,-2.4648,-2.3801,-2.2454,-2.2702,-2.4518,-2.3212,-2.2592,-2.2471,-2.1619,-2.1266,-2.1266,-2.1266,-1.9492,-1.6461,-1.5117,-1.4503,-1.4503,-1.5516,-1.5894,-1.5894,-1.5894,-1.5379,-1.462,-1.462,-1.462,-1.462,-1.462,-1.462,-1.462,-1.462,-1.462,-1.462,-1.462,-1.462,-1.462,-1.4639,-1.3867,-1.3086,-1.2607,-1.3222,-1.4779,-1.8357,-1.8821,-1.849,-1.8513,-1.8513,-1.8501,-1.8501,-1.8745,-1.8602,-1.7451,-1.8306,-1.8452,-1.6504,-1.7473,-1.8516,-1.8516,-1.9025,-1.9501,-1.9757,-2.029,-2.0652,-2.0652,-2.0096,-1.996,-2.0529,-1.9973,-1.996,-2.0529,-2.0037,-1.9813,-2.0272,-2.0438,-1.9308,-1.6678,0.0,0.0,0.0,0.0,0.0,0.0,0.0,0.0,0.0,0.0,0.0,0.0,0.0,0.0,0.0,0.0,0.0,0.0,0.0,0.0,0.0,0.0,0.0,0.0,0.0,0.0,-1.8638,-1.888,0.0,-1.9334,-1.6271,-1.6829,-2.3087,-2.3474,-2.392,-2.4935,-2.4268,-2.3643,-2.3229,-2.141,-2.129,-2.3059,-2.1817,-2.0191,-1.8202,-1.7894,-1.763,-1.763,-1.763,-1.5748,-1.248,-1.248,-1.248,-1.244,-1.2913,-1.329,-1.3648,-1.3648,-1.3648,-1.3768,-1.4592,-1.4354,-1.3731,-1.4426,-1.462,-1.462,-1.462,-1.462,-1.4616,-1.4532,-1.459,-1.4562,-1.456,-1.394,-1.3035,-1.2614,-1.1843,-1.2416,-1.732,-1.847,-1.8412,-1.8525,-1.8496,-1.8658,-1.9085,-1.9464,-1.8936,-1.696,-1.7755,-1.7949,-1.5793,-1.6791,-1.8072,-1.8714,-1.917,-1.9529,-1.9777,-2.027,-2.0652,-2.0652,-2.0652,-2.0652,-2.0652,-2.0652,-2.0652,-2.0652,-2.0885,-2.0729,-2.0218,-2.0214,-1.9112,0.0,0.0,0.0,0.0,0.0,0.0,0.0,0.0,0.0,0.0,0.0,0.0,0.0,0.0,0.0,0.0,0.0,0.0,0.0,0.0,0.0,0.0,0.0,0.0,0.0,0.0,0.0,-1.7379,-1.7591,0.0,0.0,0.0,0.0,-2.1852,-2.2672,-2.2975,-2.3456,-2.4014,-2.3587,-2.1904,-2.0933,-2.0353,-2.0337,-1.9206,-1.5896,-1.0526,-1.1738,-1.2242,-1.2242,-1.2242,-1.2242,-1.2242,-1.2369,-1.2369,-1.2266,-1.0836,-1.1043,-1.199,-1.1827,-1.1766,-1.1822,-1.3941,-1.3571,-1.2335,-1.3851,-1.45,-1.45,-1.45,-1.4402,-1.4468,-1.4449,-1.4311,0.0,0.0,-1.4308,-1.4203,-1.2919,-1.254,-1.3414,-1.7206,-1.8369,-1.856,-1.8466,-1.8467,-1.8969,-2.042,-2.0956,-2.0232,-1.7323,0.0,-1.6586,-1.5352,-1.5408,-1.624,-1.8051,-1.8998,-1.9418,-1.9418,-2.016,-2.0529,-2.0529,-2.0529,-2.0652,-2.0652,-2.0652,-2.0652,-2.0652,-2.0779,-1.9758,-1.7674,-1.7199,0.0,0.0,0.0,0.0,0.0,0.0,0.0,0.0,0.0,0.0,0.0,0.0,0.0,0.0,0.0,0.0,0.0,0.0,0.0,0.0,0.0,0.0,0.0,0.0,0.0,0.0,-1.3112,-1.3361,-1.4932,-1.4841,-1.3779,0.0,0.0,0.0,0.0,0.0,0.0,-2.31,-2.2212,-2.1269,-2.0866,-2.0536,-2.0038,-1.9105,-1.8007,-1.6369,-1.3992,-1.1065,-0.9681,-0.9681,-0.9681,-0.9681,-0.9681,-1.0483,-1.0828,-1.0797,-1.0445,-1.1043,-1.1763,-0.9368,-0.7211,-0.545,-0.6043,-0.8717,-1.2063,-1.2583,-1.2721,-1.2721,-1.2721,-1.2647,-1.2656,-1.2655,0.0,0.0,0.0,0.0,-1.2889,-1.3797,-1.3292,-1.2747,-1.3685,-1.7138,-1.9828,-1.869,-1.9258,-2.0468,-2.1821,-2.1752,-2.0155,-1.5896,-1.5289,0.0,-1.2749,-1.4071,-1.563,-1.6648,-1.8192,-1.917,-1.917,-1.9789,-2.0147,-2.0147,-2.0406,-2.0652,-2.0652,-2.0652,-2.0652,-2.0652,-1.9106,-1.7792,-1.6859,0.0,0.0,0.0,0.0,0.0,0.0,0.0,0.0,0.0,0.0,0.0,0.0,0.0,0.0,0.0,0.0,0.0,0.0,0.0,0.0,0.0,0.0,0.0,0.0,0.0,0.0,0.0,-1.0558,-1.0446,-1.1013,-1.0995,-0.9917,0.0,0.0,0.0,0.0,0.0,0.0,0.0,0.0,0.0,-1.5037,-1.8015,-1.9306,-1.8688,-1.7088,-1.5981,-1.5255,-1.0904,-0.8783,-0.8783,-0.8783,-0.8783,-0.8783,-0.9326,-0.9532,-0.9535,-1.0047,-1.0182,-0.9578,0.0,0.0,0.0,0.0,-0.5361,-0.8928,-0.8928,-0.9864,-1.1169,-1.1781,0.0,0.0,0.0,0.0,0.0,0.0,0.0,-0.9717,-1.0636,-1.2319,-1.3482,-1.2548,-1.52,-1.8269,-1.9157,-1.9994,-2.0902,-2.2297,-2.2257,-1.9384,-1.1225,-0.9806,0.0,0.0,0.0,-1.5144,-1.5674,-1.7692,-1.9058,-1.9058,-1.9666,-2.0024,-2.0024,-2.0406,-2.0652,-2.0652,-2.0652,-2.0075,-1.9075,-1.7845,-1.5623,0.0,0.0,0.0,0.0,0.0,0.0,0.0,0.0,0.0,0.0,0.0,0.0,0.0,0.0,0.0,0.0,0.0,0.0,0.0,0.0,0.0,0.0,0.0,0.0,0.0,0.0,0.0,0.0,0.0,-0.8549,-0.6688,0.0,0.0,0.0,0.0,0.0,0.0,0.0,0.0,0.0,0.0,0.0,0.0,0.0,-1.6725,-1.6635,-1.5225,-1.451,-1.4399,-1.0585,-0.8783,-0.8783,-0.8783,-0.8783,-0.877,-0.8722,0.0,-0.7843,-0.9309,0.0,0.0,0.0,0.0,0.0,0.0,0.0,0.0,0.0,0.0,0.0,0.0,0.0,0.0,0.0,0.0,0.0,0.0,0.0,0.0,0.0,0.0,-1.488,-1.2941,-1.3629,-1.5496,-1.8362,-1.8547,-1.8608,-1.9857,-1.9847,-1.6095,0.0,0.0,0.0,0.0,0.0,0.0,-1.5311,-1.7497,-1.8934,-1.8934,-1.9542,-1.99,-1.99,-2.027,-2.0529,-2.0652,-2.0287,-1.9359,-1.7634,-1.6629,0.0,0.0,0.0,0.0,0.0,0.0,0.0,0.0,0.0,0.0,0.0,0.0,0.0,0.0,0.0,0.0,0.0,0.0,0.0,0.0,0.0,0.0,0.0,0.0,0.0,0.0,0.0,0.0,0.0,0.0,0.0,0.0,0.0,0.0,0.0,0.0,0.0,0.0,0.0,0.0,0.0,0.0,0.0,0.0,0.0,0.0,0.0,0.0,0.0,0.0,-0.9098,-0.8783,-0.8783,-0.8783,-0.8783,-0.873,-0.8512,-0.6901,-0.4549,-0.6836,0.0,0.0,0.0,0.0,0.0,0.0,0.0,0.0,0.0,0.0,0.0,0.0,0.0,0.0,0.0,0.0,0.0,0.0,0.0,0.0,0.0,0.0,-1.5235,-1.4898,-1.5018,-1.4278,-1.1005,0.0,0.0,0.0,0.0,0.0,0.0,0.0,0.0,0.0,0.0,0.0,-1.5231,-1.7219,-1.856,-1.856,-1.8934,-1.9294,-1.9529,-1.99,-2.0283,-2.0529,-1.8392,-1.7974,0.0,0.0,0.0,0.0,0.0,0.0,0.0,0.0,0.0,0.0,0.0,0.0,0.0,0.0,0.0,0.0,0.0,0.0,0.0,0.0,0.0,0.0,0.0,0.0,0.0,0.0,0.0,0.0,0.0,0.0,0.0,0.0,0.0,0.0,0.0,0.0,0.0,0.0,0.0,0.0,0.0,0.0,0.0,0.0,0.0,0.0,0.0,0.0,0.0,0.0,0.0,0.0,0.0,0.0,0.0,0.0,0.0,0.0,-0.817,-0.6868,0.0,0.0,0.0,0.0,0.0,0.0,0.0,0.0,0.0,0.0,0.0,0.0,0.0,0.0,0.0,0.0,0.0,0.0,0.0,0.0,0.0,0.0,0.0,0.0,0.0,0.0,0.0,0.0,0.0,0.0,0.0,0.0,0.0,0.0,0.0,0.0,0.0,0.0,0.0,0.0,-1.4989,-1.6974,-1.8435,-1.8435,-1.8809,-1.9058,-1.917,-1.9666,-1.9415,-1.8192,-1.84,0.0,0.0,0.0,0.0,0.0,0.0,0.0,0.0,0.0,0.0,0.0,0.0,0.0,0.0,0.0,0.0,0.0,0.0,0.0,0.0,0.0,0.0,0.0,0.0,0.0,0.0,0.0,0.0,0.0,0.0,0.0,0.0,0.0,0.0,0.0,0.0,0.0,0.0,0.0,0.0,0.0,0.0,0.0,0.0,0.0,0.0,0.0,0.0,0.0,0.0,0.0,0.0,0.0,0.0,0.0,0.0,0.0,0.0,0.0,-0.6463,-0.6133,0.0,0.0,0.0,0.0,0.0,0.0,0.0,0.0,0.0,0.0,0.0,0.0,0.0,0.0,0.0,0.0,0.0,0.0,0.0,0.0,0.0,0.0,0.0,0.0,0.0,0.0,0.0,0.0,0.0,0.0,0.0,0.0,0.0,0.0,0.0,0.0,0.0,0.0,0.0,0.0,-1.5507,-1.7098,-1.8424,-1.8435,-1.8685,-1.8934,-1.917,-1.9554,-1.8603,-1.6044,-1.758,0.0,0.0,0.0,0.0,0.0,0.0,0.0,0.0,0.0,0.0,0.0,0.0,0.0,0.0,0.0,0.0,0.0,0.0,0.0,0.0,0.0,0.0,0.0,0.0,0.0,0.0,0.0,0.0,0.0,0.0,0.0,0.0,0.0,0.0,0.0,0.0,0.0,0.0,0.0,0.0,0.0,0.0,0.0,0.0,0.0,0.0,0.0,0.0,0.0,0.0,0.0,0.0,0.0,0.0,0.0,0.0,0.0,0.0,0.0,0.0,0.0,0.0,0.0,0.0,0.0,0.0,0.0,0.0,0.0,0.0,0.0,0.0,0.0,0.0,0.0,0.0,0.0,0.0,0.0,0.0,0.0,0.0,0.0,0.0,0.0,0.0,0.0,0.0,0.0,0.0,0.0,0.0,0.0,0.0,0.0,0.0,0.0,0.0,0.0,0.0,0.0,-1.8148,-1.8266,-1.8525,-1.8424,-1.856,-1.8797,-1.9418,-1.8963,-1.8087,-1.6426,0.0,0.0,0.0,0.0,0.0,0.0,0.0,0.0,0.0,0.0,0.0,0.0,0.0,0.0,0.0,0.0,0.0,0.0,0.0,0.0,0.0,0.0,0.0,0.0,0.0,0.0,0.0,0.0,0.0,0.0,0.0,0.0,0.0,0.0,0.0,0.0,0.0,0.0,0.0,0.0,0.0,0.0,0.0,0.0,0.0,0.0,0.0,0.0,0.0,0.0,0.0,0.0,0.0,0.0,0.0,0.0,0.0,0.0,0.0,0.0,0.0,0.0,0.0,0.0,0.0,0.0,0.0,0.0,0.0,0.0,0.0,0.0,0.0,0.0,0.0,0.0,0.0,0.0,0.0,0.0,0.0,0.0,0.0,0.0,0.0,0.0,0.0,0.0,0.0,0.0,0.0,0.0,0.0,0.0,0.0,0.0,0.0,0.0,0.0,0.0,0.0,0.0,-1.7719,-1.8501,-1.8452,-1.8525,-1.8435,-1.8431,-1.8334,-1.8611,-1.6971,-1.298,0.0,0.0,0.0,0.0,0.0,0.0,0.0,0.0,0.0,0.0,0.0,0.0,0.0,0.0,0.0,0.0,0.0,0.0,0.0,0.0,0.0,0.0,0.0,0.0,0.0,0.0,0.0,0.0,0.0,0.0,0.0,0.0,0.0,0.0,0.0,0.0,0.0,0.0,0.0,0.0,0.0,0.0,0.0,0.0,0.0,0.0,0.0,0.0,0.0,0.0,0.0,0.0,0.0,0.0,0.0,0.0,0.0,0.0,0.0,0.0,0.0,0.0,0.0,0.0,0.0,0.0,0.0,0.0,0.0,0.0,0.0,0.0,0.0,0.0,0.0,0.0,0.0,0.0,0.0,0.0,0.0,0.0,0.0,0.0,0.0,0.0,0.0,0.0,0.0,0.0,0.0,0.0,0.0,0.0,0.0,0.0,0.0,0.0,0.0,0.0,0.0,0.0,-1.6834,-1.8284,-1.848,-1.8501,-1.8284,-1.8161,-1.8024,-1.7921,-1.5844,-1.1137,0.0,0.0,0.0,0.0,0.0,0.0,0.0,0.0,0.0,0.0,0.0,0.0,0.0,0.0,0.0,0.0,0.0,0.0,0.0,0.0,0.0,0.0,0.0,0.0,0.0,0.0,0.0,0.0,0.0,0.0,0.0,0.0,0.0,0.0,0.0,0.0,0.0,0.0,0.0,0.0,0.0,0.0,0.0,0.0,0.0,0.0,0.0,0.0,0.0,0.0,0.0,0.0,0.0,0.0,0.0,0.0,0.0,0.0,0.0,0.0,0.0,0.0,0.0,0.0,0.0,0.0,0.0,0.0,0.0,0.0,0.0,0.0,0.0,0.0,0.0,0.0,0.0,0.0,0.0,0.0,0.0,0.0,0.0,0.0,0.0,0.0,0.0,0.0,0.0,0.0,0.0,0.0,0.0,0.0,0.0,0.0,0.0,0.0,0.0,0.0,0.0,0.0,-1.5943,-1.7878,-1.8443,-1.8501,-1.7946,-1.7858,-1.8607,-1.7109,-1.4976,0.0,0.0,0.0,0.0,0.0,0.0,0.0,0.0,0.0,0.0,0.0,0.0,0.0,0.0,0.0,0.0,0.0,0.0,0.0,0.0,0.0,0.0,0.0,0.0,0.0,0.0,0.0,0.0,0.0,0.0,0.0,0.0,0.0,0.0,0.0,0.0,0.0,0.0,0.0,0.0,0.0,0.0,0.0,0.0,0.0,0.0,0.0,0.0,0.0,0.0,0.0,0.0,0.0,0.0,0.0,0.0,0.0,0.0,0.0,0.0,0.0,0.0,0.0,0.0,0.0,0.0,0.0,0.0,0.0,0.0,0.0,0.0,0.0,0.0,0.0,0.0,0.0,0.0,0.0,0.0,0.0,0.0,0.0,0.0,0.0,0.0,0.0,0.0,0.0,0.0,0.0,0.0,0.0,0.0,0.0,0.0,0.0,0.0,0.0,0.0,0.0,0.0,0.0,-1.5944,-1.7885,-1.8506,-1.8434,-1.8251,-1.7703,-1.6548,-1.6769,-1.473,-0.9213,0.0,0.0,0.0,0.0,0.0,0.0,0.0,0.0,0.0,0.0,0.0,0.0,0.0,0.0,0.0,0.0,0.0,0.0,0.0,0.0,0.0,0.0,0.0,0.0,0.0,0.0,0.0,0.0,0.0,0.0,0.0,0.0,0.0,0.0,0.0,0.0,0.0,0.0,0.0,0.0,0.0,0.0,0.0,0.0,0.0,0.0,0.0,0.0,0.0,0.0,0.0,0.0,0.0,0.0,0.0,0.0,0.0,0.0,0.0,0.0,0.0,0.0,0.0,0.0,0.0,0.0,0.0,0.0,0.0,0.0,0.0,0.0,0.0,0.0,0.0,0.0,0.0,0.0,0.0,0.0,0.0,0.0,0.0,0.0,0.0,0.0,0.0,0.0,0.0,0.0,0.0,0.0,0.0,0.0,0.0,0.0,0.0,0.0,0.0,0.0,0.0,0.0,0.0,-1.5292,-1.7265,-1.7287,-1.7323,-1.6935,-1.6081,-1.6475,-1.4522,-0.9446,0.0,0.0,0.0,0.0,0.0,0.0,0.0,0.0,0.0,0.0,0.0,0.0,0.0,0.0,0.0,0.0,0.0,0.0,0.0,0.0,0.0,0.0,0.0,0.0,0.0,0.0,0.0,0.0,0.0,0.0,0.0,0.0,0.0,0.0,0.0,0.0,0.0,0.0,0.0,0.0,0.0,0.0,0.0,0.0,0.0,0.0,0.0,0.0,0.0,0.0,0.0,0.0,0.0,0.0,0.0,0.0,0.0,0.0,0.0,0.0,0.0,0.0,0.0,0.0,0.0,0.0,0.0,0.0,0.0,0.0,0.0,0.0,0.0,0.0,0.0,0.0,0.0,0.0,0.0,0.0,0.0,0.0,0.0,0.0,0.0,0.0,0.0,0.0,0.0,0.0,0.0,0.0,0.0,0.0,0.0,0.0,0.0,0.0,0.0,0.0,0.0,0.0,0.0,-1.1304,-1.5379,-1.5322,-1.5363,-1.5806,-1.6841,-1.6004,-1.4313,-1.1653,-0.6522,0.0,0.0,0.0,0.0,0.0,0.0,0.0,0.0,0.0,0.0,0.0,0.0,0.0,0.0,0.0,0.0,0.0,0.0,0.0,0.0,0.0,0.0,0.0,0.0,0.0,0.0,0.0,0.0,0.0,0.0,0.0,0.0,0.0,0.0,0.0,0.0,0.0,0.0,0.0,0.0,0.0,0.0,0.0,0.0,0.0,0.0,0.0,0.0,0.0,0.0,0.0,0.0,0.0,0.0,0.0,0.0,0.0,0.0,0.0,0.0,0.0,0.0,0.0,0.0,0.0,0.0,0.0,0.0,0.0,0.0,0.0,0.0,0.0,0.0,0.0,0.0,0.0,0.0,0.0,0.0,0.0,0.0,0.0,0.0,0.0,0.0,0.0,0.0,0.0,0.0,0.0,0.0,0.0,0.0,0.0,0.0,0.0,0.0,0.0,0.0,0.0,0.0,-1.4888,-1.536,-1.5359,-1.5358,-1.551,-1.5777,-1.6344,-1.3519,-0.5964,-0.497,0.0,0.0,0.0,0.0,0.0,0.0,0.0,0.0,0.0,0.0,0.0,0.0,0.0,0.0,0.0,0.0,0.0,0.0,0.0,0.0,0.0,0.0,0.0,0.0,0.0,0.0,0.0,0.0,0.0,0.0,0.0,0.0,0.0,0.0,0.0,0.0,0.0,0.0,0.0,0.0,0.0,0.0,0.0,0.0,0.0,0.0,0.0,0.0,0.0,0.0,0.0,0.0,0.0,0.0,0.0,0.0,0.0,0.0,0.0,0.0,0.0,0.0,0.0,0.0,0.0,0.0,0.0,0.0,0.0,0.0,0.0,0.0,0.0,0.0,0.0,0.0,0.0,0.0,0.0,0.0,0.0,0.0,0.0,0.0,0.0,0.0,0.0,0.0,0.0,0.0,0.0,0.0,0.0,0.0,0.0,0.0,0.0,0.0,0.0,0.0,0.0,0.0,-1.6584,-1.6511,-1.5427,-1.5336,-1.5336,-1.5381,-1.6394,-1.5039,-1.0042,-0.7495,0.0,0.0,0.0,0.0,0.0,0.0,0.0,0.0,0.0,0.0,0.0,0.0,0.0,0.0,0.0,0.0,0.0,0.0,0.0,0.0,0.0,0.0,0.0,0.0,0.0,0.0,0.0,0.0,0.0,0.0,0.0,0.0,0.0,0.0,0.0,0.0,0.0,0.0,0.0,0.0,0.0,0.0,0.0,0.0,0.0,0.0,0.0,0.0,0.0,0.0,0.0,0.0,0.0,0.0,0.0,0.0,0.0,0.0,0.0,0.0,0.0,0.0,0.0,0.0,0.0,0.0,0.0,0.0,0.0,0.0,0.0,0.0,0.0,0.0,0.0,0.0,0.0,0.0,0.0,0.0,0.0,0.0,0.0,0.0,0.0,0.0,0.0,0.0,0.0,0.0,0.0,0.0,0.0,0.0,0.0,0.0,0.0,0.0,0.0,0.0,0.0,0.0,0.0,-1.6567,-1.5744,-1.548,-1.5347,-1.5404,-1.6407,-1.7084,-1.714,0.0,0.0,0.0,0.0,0.0,0.0,0.0,0.0,0.0,0.0,0.0,0.0,0.0,0.0,0.0,0.0,0.0,0.0,0.0,0.0,0.0,0.0,0.0,0.0,0.0,0.0,0.0,0.0,0.0,0.0,0.0,0.0,0.0,0.0,0.0,0.0,0.0,0.0,0.0,0.0,0.0,0.0,0.0,0.0,0.0,0.0,0.0,0.0,0.0,0.0,0.0,0.0,0.0,0.0,0.0,0.0,0.0,0.0,0.0,0.0,0.0,0.0,0.0,0.0,0.0,0.0,0.0,0.0,0.0,0.0,0.0,0.0,0.0,0.0,0.0,0.0,0.0,0.0,0.0,0.0,0.0,0.0,0.0,0.0,0.0,0.0,0.0,0.0,0.0,0.0,0.0,0.0,0.0,0.0,0.0,0.0,0.0,0.0,0.0,0.0,0.0,0.0,0.0,0.0,-1.0751,-1.6256,-1.5992,-1.5336,-1.5369,-1.6394,-1.7088,-1.7087,0.0,0.0,0.0,0.0,0.0,0.0,0.0,0.0,0.0,0.0,0.0,0.0,0.0,0.0]}]]]